<?xml version="1.0" encoding="UTF-8" standalone="no" ?>
<gpx xmlns="http://www.topografix.com/GPX/1/1" xmlns:xsi="http://www.w3.org/2001/XMLSchema-instance" xsi:schemaLocation="http://www.topografix.com/GPX/1/1 http://www.topografix.com/GPX/1/1/gpx.xsd" version="1.1" creator="VisuGPX - https://www.visugpx.com">
  <metadata>
    <name>Rocamadour - Moulin de Cougnaguet</name>
    <desc><![CDATA[Boucle depuis Rocamadour passant par le moulin de Cougnaguet.]]></desc>
  </metadata>
  <trk>
    <name><![CDATA[2023-04-17 09:05]]></name>
    <desc><![CDATA[<p>Heure de départ: 09:05 17 avr. 2023<br/>Heure d'arrivée: 17:13 17 avr. 2023<br/>Distance: 20,9 km (08:07)<br/>Temps déplacement: 05:12<br/>Vitesse moyenne: 2,57 km/h<br/>Vitesse moyenne mouv.: 4,01 km/h<br/>Vitesse Max.: 6,14 km/h<br/>Altitude minimale: 95 m<br/>Altitude maximale: 276 m<br/>Vitesse de montée: 398,2 m/h<br/>Vitesse de descente: -296,8 m/h<br/>Gain d'altitude: 1374 m<br/>Perte d'altitude: -1373 m<br/>Temps de montée: 03:27<br/>Temps de descente: 04:37<br/></p><hr align="center" width="480" style="height: 2px; width: 517px"/>]]></desc>
    <extensions>
      <line xmlns="http://www.topografix.com/GPX/gpx_style/0/2">
        <color>0000FF</color>
        <width>4</width>
      </line>
    </extensions>
    <trkseg>
      <trkpt lat="44.8015" lon="1.61967">
        <ele>179.2</ele>
        <time>2023-04-17T07:05:25Z</time>
      </trkpt>
      <trkpt lat="44.80154" lon="1.61978">
        <ele>178</ele>
        <time>2023-04-17T07:05:35Z</time>
      </trkpt>
      <trkpt lat="44.8016" lon="1.61988">
        <ele>178.6</ele>
        <time>2023-04-17T07:05:45Z</time>
      </trkpt>
      <trkpt lat="44.80167" lon="1.61997">
        <ele>179.8</ele>
        <time>2023-04-17T07:05:56Z</time>
      </trkpt>
      <trkpt lat="44.80173" lon="1.62007">
        <ele>179.2</ele>
        <time>2023-04-17T07:06:06Z</time>
      </trkpt>
      <trkpt lat="44.8018" lon="1.62017">
        <ele>178.6</ele>
        <time>2023-04-17T07:06:16Z</time>
      </trkpt>
      <trkpt lat="44.80187" lon="1.62026">
        <ele>177.7</ele>
        <time>2023-04-17T07:06:26Z</time>
      </trkpt>
      <trkpt lat="44.80194" lon="1.62033">
        <ele>178.8</ele>
        <time>2023-04-17T07:06:37Z</time>
      </trkpt>
      <trkpt lat="44.80202" lon="1.62042">
        <ele>180.1</ele>
        <time>2023-04-17T07:06:47Z</time>
      </trkpt>
      <trkpt lat="44.80206" lon="1.62053">
        <ele>177.9</ele>
        <time>2023-04-17T07:06:55Z</time>
      </trkpt>
      <trkpt lat="44.80213" lon="1.62062">
        <ele>179.2</ele>
        <time>2023-04-17T07:07:05Z</time>
      </trkpt>
      <trkpt lat="44.80221" lon="1.62069">
        <ele>182.1</ele>
        <time>2023-04-17T07:07:15Z</time>
      </trkpt>
      <trkpt lat="44.80229" lon="1.62075">
        <ele>185</ele>
        <time>2023-04-17T07:07:24Z</time>
      </trkpt>
      <trkpt lat="44.80236" lon="1.62084">
        <ele>185.3</ele>
        <time>2023-04-17T07:07:33Z</time>
      </trkpt>
      <trkpt lat="44.80245" lon="1.62091">
        <ele>187.3</ele>
        <time>2023-04-17T07:07:45Z</time>
      </trkpt>
      <trkpt lat="44.80252" lon="1.62099">
        <ele>189.5</ele>
        <time>2023-04-17T07:07:54Z</time>
      </trkpt>
      <trkpt lat="44.80258" lon="1.6211">
        <ele>190.4</ele>
        <time>2023-04-17T07:08:03Z</time>
      </trkpt>
      <trkpt lat="44.80263" lon="1.62121">
        <ele>190.3</ele>
        <time>2023-04-17T07:08:13Z</time>
      </trkpt>
      <trkpt lat="44.80268" lon="1.62132">
        <ele>189.7</ele>
        <time>2023-04-17T07:08:23Z</time>
      </trkpt>
      <trkpt lat="44.80274" lon="1.62143">
        <ele>189.9</ele>
        <time>2023-04-17T07:08:33Z</time>
      </trkpt>
      <trkpt lat="44.8028" lon="1.62153">
        <ele>192.8</ele>
        <time>2023-04-17T07:08:43Z</time>
      </trkpt>
      <trkpt lat="44.80287" lon="1.62164">
        <ele>194.5</ele>
        <time>2023-04-17T07:08:53Z</time>
      </trkpt>
      <trkpt lat="44.80293" lon="1.62174">
        <ele>194.9</ele>
        <time>2023-04-17T07:09:04Z</time>
      </trkpt>
      <trkpt lat="44.80299" lon="1.62183">
        <ele>195.5</ele>
        <time>2023-04-17T07:09:18Z</time>
      </trkpt>
      <trkpt lat="44.80306" lon="1.62193">
        <ele>196.7</ele>
        <time>2023-04-17T07:09:33Z</time>
      </trkpt>
      <trkpt lat="44.80313" lon="1.62201">
        <ele>198.7</ele>
        <time>2023-04-17T07:09:44Z</time>
      </trkpt>
      <trkpt lat="44.80319" lon="1.6221">
        <ele>199.9</ele>
        <time>2023-04-17T07:09:56Z</time>
      </trkpt>
      <trkpt lat="44.80326" lon="1.62219">
        <ele>201.5</ele>
        <time>2023-04-17T07:10:10Z</time>
      </trkpt>
      <trkpt lat="44.80333" lon="1.62227">
        <ele>203.2</ele>
        <time>2023-04-17T07:10:21Z</time>
      </trkpt>
      <trkpt lat="44.80339" lon="1.62238">
        <ele>205</ele>
        <time>2023-04-17T07:10:33Z</time>
      </trkpt>
      <trkpt lat="44.80346" lon="1.62247">
        <ele>206.5</ele>
        <time>2023-04-17T07:10:45Z</time>
      </trkpt>
      <trkpt lat="44.80339" lon="1.62236">
        <ele>205.4</ele>
        <time>2023-04-17T07:11:15Z</time>
      </trkpt>
      <trkpt lat="44.80347" lon="1.62245">
        <ele>207.2</ele>
        <time>2023-04-17T07:12:01Z</time>
      </trkpt>
      <trkpt lat="44.80353" lon="1.62256">
        <ele>208.2</ele>
        <time>2023-04-17T07:12:13Z</time>
      </trkpt>
      <trkpt lat="44.80359" lon="1.62266">
        <ele>209.8</ele>
        <time>2023-04-17T07:12:25Z</time>
      </trkpt>
      <trkpt lat="44.80363" lon="1.62277">
        <ele>211.1</ele>
        <time>2023-04-17T07:12:35Z</time>
      </trkpt>
      <trkpt lat="44.80367" lon="1.62289">
        <ele>211.3</ele>
        <time>2023-04-17T07:12:46Z</time>
      </trkpt>
      <trkpt lat="44.80373" lon="1.62299">
        <ele>213.3</ele>
        <time>2023-04-17T07:12:56Z</time>
      </trkpt>
      <trkpt lat="44.80379" lon="1.6231">
        <ele>215.4</ele>
        <time>2023-04-17T07:13:08Z</time>
      </trkpt>
      <trkpt lat="44.80385" lon="1.6232">
        <ele>217.5</ele>
        <time>2023-04-17T07:13:20Z</time>
      </trkpt>
      <trkpt lat="44.80391" lon="1.62332">
        <ele>219.2</ele>
        <time>2023-04-17T07:13:34Z</time>
      </trkpt>
      <trkpt lat="44.80395" lon="1.62343">
        <ele>221.5</ele>
        <time>2023-04-17T07:13:48Z</time>
      </trkpt>
      <trkpt lat="44.80398" lon="1.62356">
        <ele>223.2</ele>
        <time>2023-04-17T07:14:02Z</time>
      </trkpt>
      <trkpt lat="44.80403" lon="1.62368">
        <ele>225.1</ele>
        <time>2023-04-17T07:14:14Z</time>
      </trkpt>
      <trkpt lat="44.80405" lon="1.6238">
        <ele>225.8</ele>
        <time>2023-04-17T07:14:25Z</time>
      </trkpt>
      <trkpt lat="44.80408" lon="1.62393">
        <ele>227.3</ele>
        <time>2023-04-17T07:14:39Z</time>
      </trkpt>
      <trkpt lat="44.80409" lon="1.62406">
        <ele>228.5</ele>
        <time>2023-04-17T07:14:52Z</time>
      </trkpt>
      <trkpt lat="44.80413" lon="1.62418">
        <ele>230.7</ele>
        <time>2023-04-17T07:15:05Z</time>
      </trkpt>
      <trkpt lat="44.80414" lon="1.62431">
        <ele>232.1</ele>
        <time>2023-04-17T07:15:17Z</time>
      </trkpt>
      <trkpt lat="44.80415" lon="1.62444">
        <ele>233.2</ele>
        <time>2023-04-17T07:17:37Z</time>
      </trkpt>
      <trkpt lat="44.80415" lon="1.62457">
        <ele>234.5</ele>
        <time>2023-04-17T07:17:51Z</time>
      </trkpt>
      <trkpt lat="44.80414" lon="1.6247">
        <ele>235.5</ele>
        <time>2023-04-17T07:18:01Z</time>
      </trkpt>
      <trkpt lat="44.80414" lon="1.62483">
        <ele>237.1</ele>
        <time>2023-04-17T07:18:13Z</time>
      </trkpt>
      <trkpt lat="44.80412" lon="1.62497">
        <ele>237.9</ele>
        <time>2023-04-17T07:18:24Z</time>
      </trkpt>
      <trkpt lat="44.80411" lon="1.6251">
        <ele>239.5</ele>
        <time>2023-04-17T07:18:37Z</time>
      </trkpt>
      <trkpt lat="44.80411" lon="1.62524">
        <ele>241.2</ele>
        <time>2023-04-17T07:18:49Z</time>
      </trkpt>
      <trkpt lat="44.8041" lon="1.62537">
        <ele>243.2</ele>
        <time>2023-04-17T07:19:01Z</time>
      </trkpt>
      <trkpt lat="44.8041" lon="1.6255">
        <ele>246.2</ele>
        <time>2023-04-17T07:19:13Z</time>
      </trkpt>
      <trkpt lat="44.80412" lon="1.62564">
        <ele>248.3</ele>
        <time>2023-04-17T07:19:25Z</time>
      </trkpt>
      <trkpt lat="44.80413" lon="1.62577">
        <ele>249.7</ele>
        <time>2023-04-17T07:19:38Z</time>
      </trkpt>
      <trkpt lat="44.80415" lon="1.6259">
        <ele>251.2</ele>
        <time>2023-04-17T07:19:50Z</time>
      </trkpt>
      <trkpt lat="44.80412" lon="1.62603">
        <ele>251.9</ele>
        <time>2023-04-17T07:20:05Z</time>
      </trkpt>
      <trkpt lat="44.80411" lon="1.62616">
        <ele>252.8</ele>
        <time>2023-04-17T07:20:24Z</time>
      </trkpt>
      <trkpt lat="44.80419" lon="1.6262">
        <ele>254.6</ele>
        <time>2023-04-17T07:21:02Z</time>
      </trkpt>
      <trkpt lat="44.80428" lon="1.62619">
        <ele>255.6</ele>
        <time>2023-04-17T07:23:34Z</time>
      </trkpt>
      <trkpt lat="44.80435" lon="1.6261">
        <ele>256</ele>
        <time>2023-04-17T07:23:46Z</time>
      </trkpt>
      <trkpt lat="44.8044" lon="1.62599">
        <ele>255.9</ele>
        <time>2023-04-17T07:24:15Z</time>
      </trkpt>
      <trkpt lat="44.80447" lon="1.62608">
        <ele>257</ele>
        <time>2023-04-17T07:24:56Z</time>
      </trkpt>
      <trkpt lat="44.80456" lon="1.62614">
        <ele>257.5</ele>
        <time>2023-04-17T07:25:08Z</time>
      </trkpt>
      <trkpt lat="44.80465" lon="1.62617">
        <ele>257.8</ele>
        <time>2023-04-17T07:25:21Z</time>
      </trkpt>
      <trkpt lat="44.80473" lon="1.6262">
        <ele>258</ele>
        <time>2023-04-17T07:25:33Z</time>
      </trkpt>
      <trkpt lat="44.80479" lon="1.6261">
        <ele>258</ele>
        <time>2023-04-17T07:27:11Z</time>
      </trkpt>
      <trkpt lat="44.80482" lon="1.62598">
        <ele>258.2</ele>
        <time>2023-04-17T07:27:25Z</time>
      </trkpt>
      <trkpt lat="44.80485" lon="1.62584">
        <ele>258.4</ele>
        <time>2023-04-17T07:27:35Z</time>
      </trkpt>
      <trkpt lat="44.80486" lon="1.6257">
        <ele>259</ele>
        <time>2023-04-17T07:27:44Z</time>
      </trkpt>
      <trkpt lat="44.80488" lon="1.62557">
        <ele>259.5</ele>
        <time>2023-04-17T07:27:53Z</time>
      </trkpt>
      <trkpt lat="44.80489" lon="1.62543">
        <ele>259.6</ele>
        <time>2023-04-17T07:28:03Z</time>
      </trkpt>
      <trkpt lat="44.80489" lon="1.6253">
        <ele>259.6</ele>
        <time>2023-04-17T07:28:11Z</time>
      </trkpt>
      <trkpt lat="44.80488" lon="1.62518">
        <ele>259.8</ele>
        <time>2023-04-17T07:28:20Z</time>
      </trkpt>
      <trkpt lat="44.80488" lon="1.62504">
        <ele>260.1</ele>
        <time>2023-04-17T07:28:29Z</time>
      </trkpt>
      <trkpt lat="44.80489" lon="1.62491">
        <ele>260.2</ele>
        <time>2023-04-17T07:28:39Z</time>
      </trkpt>
      <trkpt lat="44.80492" lon="1.62477">
        <ele>260.4</ele>
        <time>2023-04-17T07:28:50Z</time>
      </trkpt>
      <trkpt lat="44.80491" lon="1.62463">
        <ele>260.6</ele>
        <time>2023-04-17T07:28:59Z</time>
      </trkpt>
      <trkpt lat="44.8049" lon="1.6245">
        <ele>260.8</ele>
        <time>2023-04-17T07:29:09Z</time>
      </trkpt>
      <trkpt lat="44.8049" lon="1.62436">
        <ele>261.3</ele>
        <time>2023-04-17T07:29:17Z</time>
      </trkpt>
      <trkpt lat="44.80488" lon="1.62424">
        <ele>261.7</ele>
        <time>2023-04-17T07:29:25Z</time>
      </trkpt>
      <trkpt lat="44.80487" lon="1.62411">
        <ele>262.1</ele>
        <time>2023-04-17T07:29:33Z</time>
      </trkpt>
      <trkpt lat="44.80484" lon="1.62398">
        <ele>262.3</ele>
        <time>2023-04-17T07:29:42Z</time>
      </trkpt>
      <trkpt lat="44.80478" lon="1.62387">
        <ele>262.2</ele>
        <time>2023-04-17T07:30:08Z</time>
      </trkpt>
      <trkpt lat="44.80476" lon="1.62375">
        <ele>262.1</ele>
        <time>2023-04-17T07:30:34Z</time>
      </trkpt>
      <trkpt lat="44.80471" lon="1.62363">
        <ele>261.6</ele>
        <time>2023-04-17T07:30:48Z</time>
      </trkpt>
      <trkpt lat="44.80472" lon="1.6235">
        <ele>261.7</ele>
        <time>2023-04-17T07:30:57Z</time>
      </trkpt>
      <trkpt lat="44.80471" lon="1.62336">
        <ele>261.3</ele>
        <time>2023-04-17T07:31:05Z</time>
      </trkpt>
      <trkpt lat="44.8047" lon="1.62323">
        <ele>261.3</ele>
        <time>2023-04-17T07:31:14Z</time>
      </trkpt>
      <trkpt lat="44.80465" lon="1.62312">
        <ele>259.2</ele>
        <time>2023-04-17T07:31:26Z</time>
      </trkpt>
      <trkpt lat="44.80464" lon="1.623">
        <ele>259.6</ele>
        <time>2023-04-17T07:31:55Z</time>
      </trkpt>
      <trkpt lat="44.80462" lon="1.62287">
        <ele>259.5</ele>
        <time>2023-04-17T07:32:04Z</time>
      </trkpt>
      <trkpt lat="44.80458" lon="1.62274">
        <ele>259.9</ele>
        <time>2023-04-17T07:32:15Z</time>
      </trkpt>
      <trkpt lat="44.80455" lon="1.62261">
        <ele>260.9</ele>
        <time>2023-04-17T07:32:25Z</time>
      </trkpt>
      <trkpt lat="44.80451" lon="1.62249">
        <ele>262.3</ele>
        <time>2023-04-17T07:32:36Z</time>
      </trkpt>
      <trkpt lat="44.80447" lon="1.62238">
        <ele>262.9</ele>
        <time>2023-04-17T07:32:46Z</time>
      </trkpt>
      <trkpt lat="44.80441" lon="1.62227">
        <ele>262</ele>
        <time>2023-04-17T07:32:57Z</time>
      </trkpt>
      <trkpt lat="44.80436" lon="1.62216">
        <ele>260.8</ele>
        <time>2023-04-17T07:33:08Z</time>
      </trkpt>
      <trkpt lat="44.80429" lon="1.62207">
        <ele>260</ele>
        <time>2023-04-17T07:33:19Z</time>
      </trkpt>
      <trkpt lat="44.80424" lon="1.62196">
        <ele>262.7</ele>
        <time>2023-04-17T07:33:30Z</time>
      </trkpt>
      <trkpt lat="44.80419" lon="1.62185">
        <ele>264</ele>
        <time>2023-04-17T07:33:42Z</time>
      </trkpt>
      <trkpt lat="44.80411" lon="1.62176">
        <ele>262.1</ele>
        <time>2023-04-17T07:33:54Z</time>
      </trkpt>
      <trkpt lat="44.80405" lon="1.62166">
        <ele>261.2</ele>
        <time>2023-04-17T07:34:05Z</time>
      </trkpt>
      <trkpt lat="44.80399" lon="1.62156">
        <ele>261.7</ele>
        <time>2023-04-17T07:34:16Z</time>
      </trkpt>
      <trkpt lat="44.80392" lon="1.62146">
        <ele>263.4</ele>
        <time>2023-04-17T07:34:26Z</time>
      </trkpt>
      <trkpt lat="44.80387" lon="1.62135">
        <ele>264.4</ele>
        <time>2023-04-17T07:34:37Z</time>
      </trkpt>
      <trkpt lat="44.8038" lon="1.62126">
        <ele>261.3</ele>
        <time>2023-04-17T07:34:46Z</time>
      </trkpt>
      <trkpt lat="44.80375" lon="1.62115">
        <ele>261.3</ele>
        <time>2023-04-17T07:34:56Z</time>
      </trkpt>
      <trkpt lat="44.8037" lon="1.62102">
        <ele>262.7</ele>
        <time>2023-04-17T07:35:06Z</time>
      </trkpt>
      <trkpt lat="44.80366" lon="1.62091">
        <ele>264.5</ele>
        <time>2023-04-17T07:35:15Z</time>
      </trkpt>
      <trkpt lat="44.8036" lon="1.62081">
        <ele>265.3</ele>
        <time>2023-04-17T07:35:24Z</time>
      </trkpt>
      <trkpt lat="44.80353" lon="1.62071">
        <ele>263.8</ele>
        <time>2023-04-17T07:35:34Z</time>
      </trkpt>
      <trkpt lat="44.80347" lon="1.62062">
        <ele>263.4</ele>
        <time>2023-04-17T07:35:43Z</time>
      </trkpt>
      <trkpt lat="44.8034" lon="1.62053">
        <ele>263.8</ele>
        <time>2023-04-17T07:35:51Z</time>
      </trkpt>
      <trkpt lat="44.80334" lon="1.62043">
        <ele>264.4</ele>
        <time>2023-04-17T07:36:01Z</time>
      </trkpt>
      <trkpt lat="44.80326" lon="1.62036">
        <ele>263.7</ele>
        <time>2023-04-17T07:36:09Z</time>
      </trkpt>
      <trkpt lat="44.80319" lon="1.62027">
        <ele>263.9</ele>
        <time>2023-04-17T07:36:19Z</time>
      </trkpt>
      <trkpt lat="44.80311" lon="1.6202">
        <ele>263</ele>
        <time>2023-04-17T07:36:28Z</time>
      </trkpt>
      <trkpt lat="44.80304" lon="1.62011">
        <ele>262.9</ele>
        <time>2023-04-17T07:36:37Z</time>
      </trkpt>
      <trkpt lat="44.80296" lon="1.62003">
        <ele>262.7</ele>
        <time>2023-04-17T07:36:45Z</time>
      </trkpt>
      <trkpt lat="44.80287" lon="1.61998">
        <ele>262.3</ele>
        <time>2023-04-17T07:36:53Z</time>
      </trkpt>
      <trkpt lat="44.80278" lon="1.61993">
        <ele>261.3</ele>
        <time>2023-04-17T07:37:01Z</time>
      </trkpt>
      <trkpt lat="44.80269" lon="1.61987">
        <ele>258.8</ele>
        <time>2023-04-17T07:37:11Z</time>
      </trkpt>
      <trkpt lat="44.8026" lon="1.6198">
        <ele>257.6</ele>
        <time>2023-04-17T07:37:20Z</time>
      </trkpt>
      <trkpt lat="44.80253" lon="1.61971">
        <ele>257.7</ele>
        <time>2023-04-17T07:37:31Z</time>
      </trkpt>
      <trkpt lat="44.80258" lon="1.61961">
        <ele>259.6</ele>
        <time>2023-04-17T07:42:10Z</time>
      </trkpt>
      <trkpt lat="44.80254" lon="1.61949">
        <ele>260.1</ele>
        <time>2023-04-17T07:42:18Z</time>
      </trkpt>
      <trkpt lat="44.80252" lon="1.61937">
        <ele>260</ele>
        <time>2023-04-17T07:42:27Z</time>
      </trkpt>
      <trkpt lat="44.80251" lon="1.61924">
        <ele>259.4</ele>
        <time>2023-04-17T07:42:37Z</time>
      </trkpt>
      <trkpt lat="44.8025" lon="1.61911">
        <ele>259.3</ele>
        <time>2023-04-17T07:42:46Z</time>
      </trkpt>
      <trkpt lat="44.80249" lon="1.61898">
        <ele>258.7</ele>
        <time>2023-04-17T07:42:55Z</time>
      </trkpt>
      <trkpt lat="44.80249" lon="1.61885">
        <ele>259.2</ele>
        <time>2023-04-17T07:43:05Z</time>
      </trkpt>
      <trkpt lat="44.80246" lon="1.61872">
        <ele>258.4</ele>
        <time>2023-04-17T07:43:14Z</time>
      </trkpt>
      <trkpt lat="44.8024" lon="1.61849">
        <ele>257.2</ele>
        <time>2023-04-17T07:59:05Z</time>
      </trkpt>
      <trkpt lat="44.80235" lon="1.61838">
        <ele>258.2</ele>
        <time>2023-04-17T07:59:28Z</time>
      </trkpt>
      <trkpt lat="44.80228" lon="1.61829">
        <ele>259.2</ele>
        <time>2023-04-17T08:01:16Z</time>
      </trkpt>
      <trkpt lat="44.80221" lon="1.61818">
        <ele>260</ele>
        <time>2023-04-17T08:01:28Z</time>
      </trkpt>
      <trkpt lat="44.80214" lon="1.6181">
        <ele>260.5</ele>
        <time>2023-04-17T08:01:39Z</time>
      </trkpt>
      <trkpt lat="44.80206" lon="1.61803">
        <ele>262.1</ele>
        <time>2023-04-17T08:01:49Z</time>
      </trkpt>
      <trkpt lat="44.80198" lon="1.61796">
        <ele>262.7</ele>
        <time>2023-04-17T08:02:00Z</time>
      </trkpt>
      <trkpt lat="44.80193" lon="1.61784">
        <ele>263.4</ele>
        <time>2023-04-17T08:02:08Z</time>
      </trkpt>
      <trkpt lat="44.80188" lon="1.61772">
        <ele>263.7</ele>
        <time>2023-04-17T08:02:18Z</time>
      </trkpt>
      <trkpt lat="44.80184" lon="1.61761">
        <ele>263.9</ele>
        <time>2023-04-17T08:02:28Z</time>
      </trkpt>
      <trkpt lat="44.80177" lon="1.61751">
        <ele>264.3</ele>
        <time>2023-04-17T08:02:36Z</time>
      </trkpt>
      <trkpt lat="44.80168" lon="1.61745">
        <ele>264.1</ele>
        <time>2023-04-17T08:02:43Z</time>
      </trkpt>
      <trkpt lat="44.80164" lon="1.61733">
        <ele>263.9</ele>
        <time>2023-04-17T08:02:53Z</time>
      </trkpt>
      <trkpt lat="44.8016" lon="1.61721">
        <ele>263.8</ele>
        <time>2023-04-17T08:03:05Z</time>
      </trkpt>
      <trkpt lat="44.80155" lon="1.61709">
        <ele>263.9</ele>
        <time>2023-04-17T08:03:14Z</time>
      </trkpt>
      <trkpt lat="44.8015" lon="1.61699">
        <ele>263.8</ele>
        <time>2023-04-17T08:03:23Z</time>
      </trkpt>
      <trkpt lat="44.80144" lon="1.61689">
        <ele>263.5</ele>
        <time>2023-04-17T08:03:31Z</time>
      </trkpt>
      <trkpt lat="44.80138" lon="1.61679">
        <ele>263.5</ele>
        <time>2023-04-17T08:03:39Z</time>
      </trkpt>
      <trkpt lat="44.80134" lon="1.61667">
        <ele>263.8</ele>
        <time>2023-04-17T08:04:11Z</time>
      </trkpt>
      <trkpt lat="44.80142" lon="1.61659">
        <ele>264</ele>
        <time>2023-04-17T08:04:19Z</time>
      </trkpt>
      <trkpt lat="44.8015" lon="1.61667">
        <ele>264</ele>
        <time>2023-04-17T08:04:27Z</time>
      </trkpt>
      <trkpt lat="44.80157" lon="1.61676">
        <ele>264.1</ele>
        <time>2023-04-17T08:04:38Z</time>
      </trkpt>
      <trkpt lat="44.80163" lon="1.61685">
        <ele>264.5</ele>
        <time>2023-04-17T08:04:46Z</time>
      </trkpt>
      <trkpt lat="44.80169" lon="1.61696">
        <ele>265</ele>
        <time>2023-04-17T08:04:54Z</time>
      </trkpt>
      <trkpt lat="44.80175" lon="1.61705">
        <ele>264.7</ele>
        <time>2023-04-17T08:05:04Z</time>
      </trkpt>
      <trkpt lat="44.80177" lon="1.61718">
        <ele>264.5</ele>
        <time>2023-04-17T08:05:13Z</time>
      </trkpt>
      <trkpt lat="44.80183" lon="1.61729">
        <ele>264.6</ele>
        <time>2023-04-17T08:05:21Z</time>
      </trkpt>
      <trkpt lat="44.80192" lon="1.61726">
        <ele>264.9</ele>
        <time>2023-04-17T08:05:29Z</time>
      </trkpt>
      <trkpt lat="44.80195" lon="1.61713">
        <ele>265</ele>
        <time>2023-04-17T08:05:37Z</time>
      </trkpt>
      <trkpt lat="44.80199" lon="1.61701">
        <ele>265.2</ele>
        <time>2023-04-17T08:05:45Z</time>
      </trkpt>
      <trkpt lat="44.80204" lon="1.61689">
        <ele>265.3</ele>
        <time>2023-04-17T08:05:53Z</time>
      </trkpt>
      <trkpt lat="44.80208" lon="1.61677">
        <ele>265.5</ele>
        <time>2023-04-17T08:06:02Z</time>
      </trkpt>
      <trkpt lat="44.80212" lon="1.61665">
        <ele>265.6</ele>
        <time>2023-04-17T08:06:11Z</time>
      </trkpt>
      <trkpt lat="44.80216" lon="1.61652">
        <ele>265.8</ele>
        <time>2023-04-17T08:06:21Z</time>
      </trkpt>
      <trkpt lat="44.8022" lon="1.6164">
        <ele>265.9</ele>
        <time>2023-04-17T08:06:29Z</time>
      </trkpt>
      <trkpt lat="44.80224" lon="1.61628">
        <ele>266.1</ele>
        <time>2023-04-17T08:06:38Z</time>
      </trkpt>
      <trkpt lat="44.80228" lon="1.61617">
        <ele>266.2</ele>
        <time>2023-04-17T08:06:46Z</time>
      </trkpt>
      <trkpt lat="44.80233" lon="1.61606">
        <ele>266.4</ele>
        <time>2023-04-17T08:06:54Z</time>
      </trkpt>
      <trkpt lat="44.80236" lon="1.61593">
        <ele>266.5</ele>
        <time>2023-04-17T08:07:03Z</time>
      </trkpt>
      <trkpt lat="44.80242" lon="1.61581">
        <ele>266.7</ele>
        <time>2023-04-17T08:07:11Z</time>
      </trkpt>
      <trkpt lat="44.80248" lon="1.6157">
        <ele>266.9</ele>
        <time>2023-04-17T08:07:19Z</time>
      </trkpt>
      <trkpt lat="44.80253" lon="1.61558">
        <ele>267.1</ele>
        <time>2023-04-17T08:07:28Z</time>
      </trkpt>
      <trkpt lat="44.80258" lon="1.61547">
        <ele>267.3</ele>
        <time>2023-04-17T08:07:38Z</time>
      </trkpt>
      <trkpt lat="44.80263" lon="1.61536">
        <ele>267.5</ele>
        <time>2023-04-17T08:07:47Z</time>
      </trkpt>
      <trkpt lat="44.80268" lon="1.61525">
        <ele>267.8</ele>
        <time>2023-04-17T08:07:55Z</time>
      </trkpt>
      <trkpt lat="44.80274" lon="1.61515">
        <ele>268.3</ele>
        <time>2023-04-17T08:08:02Z</time>
      </trkpt>
      <trkpt lat="44.8028" lon="1.61503">
        <ele>268.9</ele>
        <time>2023-04-17T08:08:10Z</time>
      </trkpt>
      <trkpt lat="44.80284" lon="1.61491">
        <ele>269</ele>
        <time>2023-04-17T08:08:18Z</time>
      </trkpt>
      <trkpt lat="44.80289" lon="1.6148">
        <ele>269</ele>
        <time>2023-04-17T08:08:25Z</time>
      </trkpt>
      <trkpt lat="44.80294" lon="1.61469">
        <ele>269.1</ele>
        <time>2023-04-17T08:08:33Z</time>
      </trkpt>
      <trkpt lat="44.803" lon="1.61459">
        <ele>269.5</ele>
        <time>2023-04-17T08:08:40Z</time>
      </trkpt>
      <trkpt lat="44.80305" lon="1.61447">
        <ele>269.9</ele>
        <time>2023-04-17T08:08:48Z</time>
      </trkpt>
      <trkpt lat="44.8031" lon="1.61437">
        <ele>270.1</ele>
        <time>2023-04-17T08:08:56Z</time>
      </trkpt>
      <trkpt lat="44.80316" lon="1.61426">
        <ele>270.3</ele>
        <time>2023-04-17T08:09:04Z</time>
      </trkpt>
      <trkpt lat="44.80322" lon="1.61415">
        <ele>270.5</ele>
        <time>2023-04-17T08:09:12Z</time>
      </trkpt>
      <trkpt lat="44.80329" lon="1.61405">
        <ele>270.5</ele>
        <time>2023-04-17T08:09:20Z</time>
      </trkpt>
      <trkpt lat="44.80335" lon="1.61395">
        <ele>270.7</ele>
        <time>2023-04-17T08:09:28Z</time>
      </trkpt>
      <trkpt lat="44.8034" lon="1.61384">
        <ele>270.8</ele>
        <time>2023-04-17T08:09:37Z</time>
      </trkpt>
      <trkpt lat="44.80346" lon="1.61373">
        <ele>270.5</ele>
        <time>2023-04-17T08:09:46Z</time>
      </trkpt>
      <trkpt lat="44.80351" lon="1.61361">
        <ele>270.4</ele>
        <time>2023-04-17T08:09:54Z</time>
      </trkpt>
      <trkpt lat="44.80358" lon="1.61352">
        <ele>270.4</ele>
        <time>2023-04-17T08:10:02Z</time>
      </trkpt>
      <trkpt lat="44.80364" lon="1.61342">
        <ele>270.6</ele>
        <time>2023-04-17T08:10:12Z</time>
      </trkpt>
      <trkpt lat="44.80372" lon="1.61335">
        <ele>270.6</ele>
        <time>2023-04-17T08:10:21Z</time>
      </trkpt>
      <trkpt lat="44.8038" lon="1.61327">
        <ele>270.5</ele>
        <time>2023-04-17T08:10:29Z</time>
      </trkpt>
      <trkpt lat="44.80387" lon="1.61319">
        <ele>270.5</ele>
        <time>2023-04-17T08:10:36Z</time>
      </trkpt>
      <trkpt lat="44.80395" lon="1.61313">
        <ele>270.5</ele>
        <time>2023-04-17T08:10:44Z</time>
      </trkpt>
      <trkpt lat="44.80403" lon="1.61303">
        <ele>270.5</ele>
        <time>2023-04-17T08:10:54Z</time>
      </trkpt>
      <trkpt lat="44.80411" lon="1.61297">
        <ele>270.2</ele>
        <time>2023-04-17T08:11:03Z</time>
      </trkpt>
      <trkpt lat="44.80419" lon="1.61288">
        <ele>270</ele>
        <time>2023-04-17T08:11:13Z</time>
      </trkpt>
      <trkpt lat="44.80427" lon="1.61279">
        <ele>270</ele>
        <time>2023-04-17T08:11:21Z</time>
      </trkpt>
      <trkpt lat="44.80434" lon="1.6127">
        <ele>270.3</ele>
        <time>2023-04-17T08:11:30Z</time>
      </trkpt>
      <trkpt lat="44.80441" lon="1.61262">
        <ele>270.6</ele>
        <time>2023-04-17T08:11:38Z</time>
      </trkpt>
      <trkpt lat="44.80448" lon="1.61253">
        <ele>270.8</ele>
        <time>2023-04-17T08:11:48Z</time>
      </trkpt>
      <trkpt lat="44.80451" lon="1.6124">
        <ele>270.8</ele>
        <time>2023-04-17T08:11:57Z</time>
      </trkpt>
      <trkpt lat="44.80451" lon="1.61226">
        <ele>270.8</ele>
        <time>2023-04-17T08:12:07Z</time>
      </trkpt>
      <trkpt lat="44.8045" lon="1.61213">
        <ele>270.5</ele>
        <time>2023-04-17T08:12:15Z</time>
      </trkpt>
      <trkpt lat="44.80449" lon="1.612">
        <ele>270.2</ele>
        <time>2023-04-17T08:12:23Z</time>
      </trkpt>
      <trkpt lat="44.80448" lon="1.61187">
        <ele>270</ele>
        <time>2023-04-17T08:12:31Z</time>
      </trkpt>
      <trkpt lat="44.80448" lon="1.61173">
        <ele>270</ele>
        <time>2023-04-17T08:12:39Z</time>
      </trkpt>
      <trkpt lat="44.80447" lon="1.61159">
        <ele>269.7</ele>
        <time>2023-04-17T08:12:48Z</time>
      </trkpt>
      <trkpt lat="44.80445" lon="1.61146">
        <ele>269.2</ele>
        <time>2023-04-17T08:12:59Z</time>
      </trkpt>
      <trkpt lat="44.8044" lon="1.61135">
        <ele>268.9</ele>
        <time>2023-04-17T08:13:08Z</time>
      </trkpt>
      <trkpt lat="44.80434" lon="1.61123">
        <ele>268.4</ele>
        <time>2023-04-17T08:13:17Z</time>
      </trkpt>
      <trkpt lat="44.80429" lon="1.61113">
        <ele>268.1</ele>
        <time>2023-04-17T08:13:26Z</time>
      </trkpt>
      <trkpt lat="44.80423" lon="1.61102">
        <ele>267.4</ele>
        <time>2023-04-17T08:13:35Z</time>
      </trkpt>
      <trkpt lat="44.80418" lon="1.61091">
        <ele>266.6</ele>
        <time>2023-04-17T08:13:43Z</time>
      </trkpt>
      <trkpt lat="44.80412" lon="1.61081">
        <ele>266.2</ele>
        <time>2023-04-17T08:13:51Z</time>
      </trkpt>
      <trkpt lat="44.80406" lon="1.61069">
        <ele>266.3</ele>
        <time>2023-04-17T08:13:59Z</time>
      </trkpt>
      <trkpt lat="44.804" lon="1.61059">
        <ele>266.3</ele>
        <time>2023-04-17T08:14:07Z</time>
      </trkpt>
      <trkpt lat="44.80395" lon="1.61048">
        <ele>266.3</ele>
        <time>2023-04-17T08:14:15Z</time>
      </trkpt>
      <trkpt lat="44.80393" lon="1.61035">
        <ele>266</ele>
        <time>2023-04-17T08:14:24Z</time>
      </trkpt>
      <trkpt lat="44.80392" lon="1.61023">
        <ele>265.8</ele>
        <time>2023-04-17T08:14:31Z</time>
      </trkpt>
      <trkpt lat="44.8039" lon="1.61009">
        <ele>265.9</ele>
        <time>2023-04-17T08:14:40Z</time>
      </trkpt>
      <trkpt lat="44.80387" lon="1.60997">
        <ele>266</ele>
        <time>2023-04-17T08:14:49Z</time>
      </trkpt>
      <trkpt lat="44.80386" lon="1.60983">
        <ele>265.7</ele>
        <time>2023-04-17T08:14:59Z</time>
      </trkpt>
      <trkpt lat="44.80386" lon="1.60969">
        <ele>265.4</ele>
        <time>2023-04-17T08:15:07Z</time>
      </trkpt>
      <trkpt lat="44.80384" lon="1.60956">
        <ele>265.5</ele>
        <time>2023-04-17T08:15:17Z</time>
      </trkpt>
      <trkpt lat="44.80382" lon="1.60943">
        <ele>265.7</ele>
        <time>2023-04-17T08:15:24Z</time>
      </trkpt>
      <trkpt lat="44.80383" lon="1.60929">
        <ele>265.2</ele>
        <time>2023-04-17T08:15:31Z</time>
      </trkpt>
      <trkpt lat="44.8038" lon="1.60916">
        <ele>265.3</ele>
        <time>2023-04-17T08:15:40Z</time>
      </trkpt>
      <trkpt lat="44.80379" lon="1.60903">
        <ele>265.8</ele>
        <time>2023-04-17T08:15:48Z</time>
      </trkpt>
      <trkpt lat="44.80379" lon="1.60889">
        <ele>266.1</ele>
        <time>2023-04-17T08:15:57Z</time>
      </trkpt>
      <trkpt lat="44.80381" lon="1.60876">
        <ele>266.2</ele>
        <time>2023-04-17T08:16:05Z</time>
      </trkpt>
      <trkpt lat="44.8038" lon="1.60862">
        <ele>266.6</ele>
        <time>2023-04-17T08:16:16Z</time>
      </trkpt>
      <trkpt lat="44.8038" lon="1.60848">
        <ele>267</ele>
        <time>2023-04-17T08:16:26Z</time>
      </trkpt>
      <trkpt lat="44.80381" lon="1.60835">
        <ele>267.2</ele>
        <time>2023-04-17T08:16:34Z</time>
      </trkpt>
      <trkpt lat="44.80381" lon="1.60821">
        <ele>267.6</ele>
        <time>2023-04-17T08:16:42Z</time>
      </trkpt>
      <trkpt lat="44.80384" lon="1.60807">
        <ele>267.9</ele>
        <time>2023-04-17T08:16:50Z</time>
      </trkpt>
      <trkpt lat="44.80385" lon="1.60794">
        <ele>268</ele>
        <time>2023-04-17T08:16:59Z</time>
      </trkpt>
      <trkpt lat="44.80386" lon="1.6078">
        <ele>268</ele>
        <time>2023-04-17T08:17:07Z</time>
      </trkpt>
      <trkpt lat="44.80386" lon="1.60767">
        <ele>268</ele>
        <time>2023-04-17T08:17:15Z</time>
      </trkpt>
      <trkpt lat="44.80384" lon="1.60754">
        <ele>267.9</ele>
        <time>2023-04-17T08:17:24Z</time>
      </trkpt>
      <trkpt lat="44.80384" lon="1.6074">
        <ele>267.1</ele>
        <time>2023-04-17T08:17:34Z</time>
      </trkpt>
      <trkpt lat="44.80384" lon="1.60725">
        <ele>266</ele>
        <time>2023-04-17T08:17:44Z</time>
      </trkpt>
      <trkpt lat="44.80386" lon="1.60712">
        <ele>265.5</ele>
        <time>2023-04-17T08:17:53Z</time>
      </trkpt>
      <trkpt lat="44.80388" lon="1.60698">
        <ele>265.1</ele>
        <time>2023-04-17T08:18:01Z</time>
      </trkpt>
      <trkpt lat="44.80393" lon="1.60687">
        <ele>264.1</ele>
        <time>2023-04-17T08:18:10Z</time>
      </trkpt>
      <trkpt lat="44.80399" lon="1.60677">
        <ele>263.1</ele>
        <time>2023-04-17T08:18:20Z</time>
      </trkpt>
      <trkpt lat="44.80407" lon="1.60669">
        <ele>262.6</ele>
        <time>2023-04-17T08:18:31Z</time>
      </trkpt>
      <trkpt lat="44.80415" lon="1.60666">
        <ele>262.6</ele>
        <time>2023-04-17T08:18:41Z</time>
      </trkpt>
      <trkpt lat="44.80424" lon="1.60662">
        <ele>262.9</ele>
        <time>2023-04-17T08:18:50Z</time>
      </trkpt>
      <trkpt lat="44.80433" lon="1.6066">
        <ele>263.8</ele>
        <time>2023-04-17T08:19:00Z</time>
      </trkpt>
      <trkpt lat="44.80442" lon="1.60654">
        <ele>264.2</ele>
        <time>2023-04-17T08:19:09Z</time>
      </trkpt>
      <trkpt lat="44.8045" lon="1.60646">
        <ele>264.2</ele>
        <time>2023-04-17T08:19:17Z</time>
      </trkpt>
      <trkpt lat="44.80456" lon="1.60638">
        <ele>264.1</ele>
        <time>2023-04-17T08:22:58Z</time>
      </trkpt>
      <trkpt lat="44.80463" lon="1.60628">
        <ele>264.6</ele>
        <time>2023-04-17T08:24:13Z</time>
      </trkpt>
      <trkpt lat="44.80467" lon="1.60615">
        <ele>264.5</ele>
        <time>2023-04-17T08:24:23Z</time>
      </trkpt>
      <trkpt lat="44.80471" lon="1.60603">
        <ele>264</ele>
        <time>2023-04-17T08:24:32Z</time>
      </trkpt>
      <trkpt lat="44.80477" lon="1.60592">
        <ele>263.8</ele>
        <time>2023-04-17T08:24:42Z</time>
      </trkpt>
      <trkpt lat="44.80481" lon="1.6058">
        <ele>263.3</ele>
        <time>2023-04-17T08:24:52Z</time>
      </trkpt>
      <trkpt lat="44.80485" lon="1.60568">
        <ele>263.6</ele>
        <time>2023-04-17T08:25:01Z</time>
      </trkpt>
      <trkpt lat="44.8049" lon="1.60556">
        <ele>263.9</ele>
        <time>2023-04-17T08:25:10Z</time>
      </trkpt>
      <trkpt lat="44.80495" lon="1.60546">
        <ele>264.5</ele>
        <time>2023-04-17T08:25:19Z</time>
      </trkpt>
      <trkpt lat="44.80502" lon="1.60534">
        <ele>264.7</ele>
        <time>2023-04-17T08:25:27Z</time>
      </trkpt>
      <trkpt lat="44.80503" lon="1.60521">
        <ele>264.7</ele>
        <time>2023-04-17T08:25:36Z</time>
      </trkpt>
      <trkpt lat="44.80501" lon="1.60508">
        <ele>264.8</ele>
        <time>2023-04-17T08:25:45Z</time>
      </trkpt>
      <trkpt lat="44.80498" lon="1.60495">
        <ele>265.4</ele>
        <time>2023-04-17T08:25:55Z</time>
      </trkpt>
      <trkpt lat="44.80496" lon="1.60482">
        <ele>266.3</ele>
        <time>2023-04-17T08:26:04Z</time>
      </trkpt>
      <trkpt lat="44.80495" lon="1.60469">
        <ele>267.2</ele>
        <time>2023-04-17T08:26:13Z</time>
      </trkpt>
      <trkpt lat="44.80495" lon="1.60456">
        <ele>268.1</ele>
        <time>2023-04-17T08:26:23Z</time>
      </trkpt>
      <trkpt lat="44.80497" lon="1.60443">
        <ele>269.1</ele>
        <time>2023-04-17T08:26:33Z</time>
      </trkpt>
      <trkpt lat="44.80499" lon="1.6043">
        <ele>270.1</ele>
        <time>2023-04-17T08:26:43Z</time>
      </trkpt>
      <trkpt lat="44.80501" lon="1.60416">
        <ele>271.1</ele>
        <time>2023-04-17T08:26:53Z</time>
      </trkpt>
      <trkpt lat="44.80503" lon="1.60403">
        <ele>272</ele>
        <time>2023-04-17T08:27:03Z</time>
      </trkpt>
      <trkpt lat="44.80503" lon="1.60389">
        <ele>273</ele>
        <time>2023-04-17T08:27:13Z</time>
      </trkpt>
      <trkpt lat="44.80505" lon="1.60376">
        <ele>273.1</ele>
        <time>2023-04-17T08:27:22Z</time>
      </trkpt>
      <trkpt lat="44.80508" lon="1.60363">
        <ele>273.5</ele>
        <time>2023-04-17T08:27:31Z</time>
      </trkpt>
      <trkpt lat="44.80511" lon="1.60351">
        <ele>274.2</ele>
        <time>2023-04-17T08:27:39Z</time>
      </trkpt>
      <trkpt lat="44.80511" lon="1.60337">
        <ele>274.7</ele>
        <time>2023-04-17T08:27:48Z</time>
      </trkpt>
      <trkpt lat="44.80513" lon="1.60324">
        <ele>275.3</ele>
        <time>2023-04-17T08:27:57Z</time>
      </trkpt>
      <trkpt lat="44.80514" lon="1.60311">
        <ele>275.8</ele>
        <time>2023-04-17T08:28:06Z</time>
      </trkpt>
      <trkpt lat="44.80515" lon="1.60298">
        <ele>276.1</ele>
        <time>2023-04-17T08:28:15Z</time>
      </trkpt>
      <trkpt lat="44.80517" lon="1.60284">
        <ele>276.2</ele>
        <time>2023-04-17T08:28:24Z</time>
      </trkpt>
      <trkpt lat="44.80518" lon="1.60271">
        <ele>276.3</ele>
        <time>2023-04-17T08:28:33Z</time>
      </trkpt>
      <trkpt lat="44.80519" lon="1.60257">
        <ele>276.3</ele>
        <time>2023-04-17T08:28:42Z</time>
      </trkpt>
      <trkpt lat="44.8052" lon="1.60243">
        <ele>276.6</ele>
        <time>2023-04-17T08:28:51Z</time>
      </trkpt>
      <trkpt lat="44.8052" lon="1.60231">
        <ele>277</ele>
        <time>2023-04-17T08:28:59Z</time>
      </trkpt>
      <trkpt lat="44.80521" lon="1.60217">
        <ele>277.3</ele>
        <time>2023-04-17T08:29:08Z</time>
      </trkpt>
      <trkpt lat="44.80522" lon="1.60204">
        <ele>277.2</ele>
        <time>2023-04-17T08:29:16Z</time>
      </trkpt>
      <trkpt lat="44.80522" lon="1.6019">
        <ele>277.2</ele>
        <time>2023-04-17T08:29:24Z</time>
      </trkpt>
      <trkpt lat="44.80524" lon="1.60176">
        <ele>277.4</ele>
        <time>2023-04-17T08:29:33Z</time>
      </trkpt>
      <trkpt lat="44.80526" lon="1.60163">
        <ele>277.7</ele>
        <time>2023-04-17T08:29:42Z</time>
      </trkpt>
      <trkpt lat="44.80528" lon="1.60151">
        <ele>277.4</ele>
        <time>2023-04-17T08:29:50Z</time>
      </trkpt>
      <trkpt lat="44.80529" lon="1.60137">
        <ele>277.1</ele>
        <time>2023-04-17T08:29:59Z</time>
      </trkpt>
      <trkpt lat="44.8053" lon="1.60124">
        <ele>277.2</ele>
        <time>2023-04-17T08:30:07Z</time>
      </trkpt>
      <trkpt lat="44.80532" lon="1.6011">
        <ele>277.3</ele>
        <time>2023-04-17T08:30:15Z</time>
      </trkpt>
      <trkpt lat="44.80533" lon="1.60097">
        <ele>277.3</ele>
        <time>2023-04-17T08:30:23Z</time>
      </trkpt>
      <trkpt lat="44.80533" lon="1.60084">
        <ele>277.2</ele>
        <time>2023-04-17T08:30:31Z</time>
      </trkpt>
      <trkpt lat="44.80534" lon="1.6007">
        <ele>276.9</ele>
        <time>2023-04-17T08:30:40Z</time>
      </trkpt>
      <trkpt lat="44.80535" lon="1.60057">
        <ele>276.5</ele>
        <time>2023-04-17T08:30:48Z</time>
      </trkpt>
      <trkpt lat="44.80536" lon="1.60043">
        <ele>276.1</ele>
        <time>2023-04-17T08:30:56Z</time>
      </trkpt>
      <trkpt lat="44.80536" lon="1.6003">
        <ele>275.7</ele>
        <time>2023-04-17T08:31:04Z</time>
      </trkpt>
      <trkpt lat="44.80536" lon="1.60016">
        <ele>275.6</ele>
        <time>2023-04-17T08:31:12Z</time>
      </trkpt>
      <trkpt lat="44.80535" lon="1.60003">
        <ele>275.6</ele>
        <time>2023-04-17T08:31:20Z</time>
      </trkpt>
      <trkpt lat="44.80536" lon="1.5999">
        <ele>275.5</ele>
        <time>2023-04-17T08:31:28Z</time>
      </trkpt>
      <trkpt lat="44.80537" lon="1.59976">
        <ele>275.4</ele>
        <time>2023-04-17T08:31:36Z</time>
      </trkpt>
      <trkpt lat="44.80536" lon="1.59963">
        <ele>275.2</ele>
        <time>2023-04-17T08:31:44Z</time>
      </trkpt>
      <trkpt lat="44.80537" lon="1.5995">
        <ele>275.1</ele>
        <time>2023-04-17T08:31:51Z</time>
      </trkpt>
      <trkpt lat="44.80537" lon="1.59937">
        <ele>274.8</ele>
        <time>2023-04-17T08:31:59Z</time>
      </trkpt>
      <trkpt lat="44.80536" lon="1.59923">
        <ele>274.5</ele>
        <time>2023-04-17T08:32:07Z</time>
      </trkpt>
      <trkpt lat="44.80536" lon="1.5991">
        <ele>274.2</ele>
        <time>2023-04-17T08:32:15Z</time>
      </trkpt>
      <trkpt lat="44.80536" lon="1.59896">
        <ele>274.1</ele>
        <time>2023-04-17T08:32:23Z</time>
      </trkpt>
      <trkpt lat="44.80536" lon="1.59883">
        <ele>273.8</ele>
        <time>2023-04-17T08:32:31Z</time>
      </trkpt>
      <trkpt lat="44.80536" lon="1.59869">
        <ele>273.3</ele>
        <time>2023-04-17T08:32:39Z</time>
      </trkpt>
      <trkpt lat="44.80536" lon="1.59856">
        <ele>272.8</ele>
        <time>2023-04-17T08:32:48Z</time>
      </trkpt>
      <trkpt lat="44.80529" lon="1.59847">
        <ele>272.5</ele>
        <time>2023-04-17T08:36:16Z</time>
      </trkpt>
      <trkpt lat="44.80519" lon="1.59845">
        <ele>272.3</ele>
        <time>2023-04-17T08:36:26Z</time>
      </trkpt>
      <trkpt lat="44.8051" lon="1.59844">
        <ele>272.1</ele>
        <time>2023-04-17T08:36:34Z</time>
      </trkpt>
      <trkpt lat="44.805" lon="1.59841">
        <ele>272</ele>
        <time>2023-04-17T08:36:42Z</time>
      </trkpt>
      <trkpt lat="44.8049" lon="1.5984">
        <ele>271.7</ele>
        <time>2023-04-17T08:36:51Z</time>
      </trkpt>
      <trkpt lat="44.80481" lon="1.59839">
        <ele>271.3</ele>
        <time>2023-04-17T08:37:00Z</time>
      </trkpt>
      <trkpt lat="44.80471" lon="1.59839">
        <ele>270.9</ele>
        <time>2023-04-17T08:37:09Z</time>
      </trkpt>
      <trkpt lat="44.80462" lon="1.59839">
        <ele>270.5</ele>
        <time>2023-04-17T08:37:18Z</time>
      </trkpt>
      <trkpt lat="44.80453" lon="1.59839">
        <ele>270.2</ele>
        <time>2023-04-17T08:37:26Z</time>
      </trkpt>
      <trkpt lat="44.80443" lon="1.59838">
        <ele>269.7</ele>
        <time>2023-04-17T08:37:35Z</time>
      </trkpt>
      <trkpt lat="44.80433" lon="1.59837">
        <ele>269.1</ele>
        <time>2023-04-17T08:37:43Z</time>
      </trkpt>
      <trkpt lat="44.80424" lon="1.59835">
        <ele>268.5</ele>
        <time>2023-04-17T08:37:51Z</time>
      </trkpt>
      <trkpt lat="44.80415" lon="1.59834">
        <ele>267.9</ele>
        <time>2023-04-17T08:37:59Z</time>
      </trkpt>
      <trkpt lat="44.80406" lon="1.59828">
        <ele>267.2</ele>
        <time>2023-04-17T08:38:08Z</time>
      </trkpt>
      <trkpt lat="44.80403" lon="1.59816">
        <ele>267</ele>
        <time>2023-04-17T08:38:15Z</time>
      </trkpt>
      <trkpt lat="44.80408" lon="1.59804">
        <ele>267.4</ele>
        <time>2023-04-17T08:38:23Z</time>
      </trkpt>
      <trkpt lat="44.80415" lon="1.59793">
        <ele>267.9</ele>
        <time>2023-04-17T08:38:32Z</time>
      </trkpt>
      <trkpt lat="44.8042" lon="1.59782">
        <ele>268.1</ele>
        <time>2023-04-17T08:38:40Z</time>
      </trkpt>
      <trkpt lat="44.80421" lon="1.59769">
        <ele>268.2</ele>
        <time>2023-04-17T08:38:49Z</time>
      </trkpt>
      <trkpt lat="44.80422" lon="1.59756">
        <ele>268.2</ele>
        <time>2023-04-17T08:38:57Z</time>
      </trkpt>
      <trkpt lat="44.80422" lon="1.59743">
        <ele>268.2</ele>
        <time>2023-04-17T08:39:05Z</time>
      </trkpt>
      <trkpt lat="44.80424" lon="1.5973">
        <ele>268.3</ele>
        <time>2023-04-17T08:39:13Z</time>
      </trkpt>
      <trkpt lat="44.80425" lon="1.59717">
        <ele>268.3</ele>
        <time>2023-04-17T08:39:21Z</time>
      </trkpt>
      <trkpt lat="44.80426" lon="1.59702">
        <ele>268.4</ele>
        <time>2023-04-17T08:39:30Z</time>
      </trkpt>
      <trkpt lat="44.80428" lon="1.59689">
        <ele>268.2</ele>
        <time>2023-04-17T08:39:39Z</time>
      </trkpt>
      <trkpt lat="44.8043" lon="1.59676">
        <ele>267.8</ele>
        <time>2023-04-17T08:39:47Z</time>
      </trkpt>
      <trkpt lat="44.80431" lon="1.59663">
        <ele>267.5</ele>
        <time>2023-04-17T08:39:55Z</time>
      </trkpt>
      <trkpt lat="44.80432" lon="1.59649">
        <ele>267.6</ele>
        <time>2023-04-17T08:40:04Z</time>
      </trkpt>
      <trkpt lat="44.80433" lon="1.59635">
        <ele>267.4</ele>
        <time>2023-04-17T08:40:12Z</time>
      </trkpt>
      <trkpt lat="44.80434" lon="1.59622">
        <ele>267</ele>
        <time>2023-04-17T08:40:20Z</time>
      </trkpt>
      <trkpt lat="44.80433" lon="1.59608">
        <ele>266.5</ele>
        <time>2023-04-17T08:40:29Z</time>
      </trkpt>
      <trkpt lat="44.80434" lon="1.59596">
        <ele>266.3</ele>
        <time>2023-04-17T08:40:38Z</time>
      </trkpt>
      <trkpt lat="44.80436" lon="1.59583">
        <ele>266</ele>
        <time>2023-04-17T08:40:48Z</time>
      </trkpt>
      <trkpt lat="44.80438" lon="1.59569">
        <ele>265.5</ele>
        <time>2023-04-17T08:40:58Z</time>
      </trkpt>
      <trkpt lat="44.80436" lon="1.59556">
        <ele>265</ele>
        <time>2023-04-17T08:41:07Z</time>
      </trkpt>
      <trkpt lat="44.80435" lon="1.59542">
        <ele>264.5</ele>
        <time>2023-04-17T08:41:15Z</time>
      </trkpt>
      <trkpt lat="44.80439" lon="1.59529">
        <ele>264</ele>
        <time>2023-04-17T08:41:24Z</time>
      </trkpt>
      <trkpt lat="44.80447" lon="1.59522">
        <ele>263.8</ele>
        <time>2023-04-17T08:41:32Z</time>
      </trkpt>
      <trkpt lat="44.80456" lon="1.59518">
        <ele>263.6</ele>
        <time>2023-04-17T08:41:40Z</time>
      </trkpt>
      <trkpt lat="44.80464" lon="1.59511">
        <ele>263.4</ele>
        <time>2023-04-17T08:42:49Z</time>
      </trkpt>
      <trkpt lat="44.80472" lon="1.59504">
        <ele>263.1</ele>
        <time>2023-04-17T08:43:00Z</time>
      </trkpt>
      <trkpt lat="44.80479" lon="1.59495">
        <ele>262.6</ele>
        <time>2023-04-17T08:43:52Z</time>
      </trkpt>
      <trkpt lat="44.80487" lon="1.59486">
        <ele>262</ele>
        <time>2023-04-17T08:44:02Z</time>
      </trkpt>
      <trkpt lat="44.80495" lon="1.59479">
        <ele>261.5</ele>
        <time>2023-04-17T08:44:11Z</time>
      </trkpt>
      <trkpt lat="44.80502" lon="1.59469">
        <ele>260.8</ele>
        <time>2023-04-17T08:44:20Z</time>
      </trkpt>
      <trkpt lat="44.8051" lon="1.5946">
        <ele>260.3</ele>
        <time>2023-04-17T08:44:28Z</time>
      </trkpt>
      <trkpt lat="44.80517" lon="1.59451">
        <ele>259.9</ele>
        <time>2023-04-17T08:44:36Z</time>
      </trkpt>
      <trkpt lat="44.80524" lon="1.59441">
        <ele>259.5</ele>
        <time>2023-04-17T08:44:44Z</time>
      </trkpt>
      <trkpt lat="44.80529" lon="1.59429">
        <ele>258.4</ele>
        <time>2023-04-17T08:44:52Z</time>
      </trkpt>
      <trkpt lat="44.80534" lon="1.59419">
        <ele>257.4</ele>
        <time>2023-04-17T08:45:00Z</time>
      </trkpt>
      <trkpt lat="44.80541" lon="1.59408">
        <ele>257.2</ele>
        <time>2023-04-17T08:45:08Z</time>
      </trkpt>
      <trkpt lat="44.80546" lon="1.59396">
        <ele>256.9</ele>
        <time>2023-04-17T08:45:16Z</time>
      </trkpt>
      <trkpt lat="44.80553" lon="1.59386">
        <ele>256.7</ele>
        <time>2023-04-17T08:45:24Z</time>
      </trkpt>
      <trkpt lat="44.8056" lon="1.59376">
        <ele>255.9</ele>
        <time>2023-04-17T08:45:33Z</time>
      </trkpt>
      <trkpt lat="44.80566" lon="1.59367">
        <ele>255</ele>
        <time>2023-04-17T08:45:41Z</time>
      </trkpt>
      <trkpt lat="44.8057" lon="1.59355">
        <ele>254.2</ele>
        <time>2023-04-17T08:45:49Z</time>
      </trkpt>
      <trkpt lat="44.80573" lon="1.59342">
        <ele>253.4</ele>
        <time>2023-04-17T08:45:58Z</time>
      </trkpt>
      <trkpt lat="44.80575" lon="1.59329">
        <ele>252.8</ele>
        <time>2023-04-17T08:46:06Z</time>
      </trkpt>
      <trkpt lat="44.80579" lon="1.59316">
        <ele>252.4</ele>
        <time>2023-04-17T08:46:16Z</time>
      </trkpt>
      <trkpt lat="44.80582" lon="1.59304">
        <ele>251.9</ele>
        <time>2023-04-17T08:46:24Z</time>
      </trkpt>
      <trkpt lat="44.80584" lon="1.59291">
        <ele>250.9</ele>
        <time>2023-04-17T08:46:33Z</time>
      </trkpt>
      <trkpt lat="44.80586" lon="1.59278">
        <ele>249.8</ele>
        <time>2023-04-17T08:46:41Z</time>
      </trkpt>
      <trkpt lat="44.80588" lon="1.59266">
        <ele>249.2</ele>
        <time>2023-04-17T08:46:50Z</time>
      </trkpt>
      <trkpt lat="44.8059" lon="1.59253">
        <ele>248.7</ele>
        <time>2023-04-17T08:46:59Z</time>
      </trkpt>
      <trkpt lat="44.8059" lon="1.5924">
        <ele>247.8</ele>
        <time>2023-04-17T08:48:06Z</time>
      </trkpt>
      <trkpt lat="44.80592" lon="1.59226">
        <ele>246.6</ele>
        <time>2023-04-17T08:48:15Z</time>
      </trkpt>
      <trkpt lat="44.80595" lon="1.59214">
        <ele>245.5</ele>
        <time>2023-04-17T08:48:23Z</time>
      </trkpt>
      <trkpt lat="44.80597" lon="1.592">
        <ele>244.4</ele>
        <time>2023-04-17T08:48:33Z</time>
      </trkpt>
      <trkpt lat="44.806" lon="1.59187">
        <ele>243.4</ele>
        <time>2023-04-17T08:48:41Z</time>
      </trkpt>
      <trkpt lat="44.80603" lon="1.59174">
        <ele>242.7</ele>
        <time>2023-04-17T08:48:49Z</time>
      </trkpt>
      <trkpt lat="44.80605" lon="1.59162">
        <ele>241.7</ele>
        <time>2023-04-17T08:48:58Z</time>
      </trkpt>
      <trkpt lat="44.80606" lon="1.59149">
        <ele>240.4</ele>
        <time>2023-04-17T08:49:05Z</time>
      </trkpt>
      <trkpt lat="44.80606" lon="1.59135">
        <ele>238.9</ele>
        <time>2023-04-17T08:49:13Z</time>
      </trkpt>
      <trkpt lat="44.80607" lon="1.59122">
        <ele>237.5</ele>
        <time>2023-04-17T08:49:21Z</time>
      </trkpt>
      <trkpt lat="44.80608" lon="1.59108">
        <ele>236</ele>
        <time>2023-04-17T08:49:31Z</time>
      </trkpt>
      <trkpt lat="44.80612" lon="1.59096">
        <ele>234.3</ele>
        <time>2023-04-17T08:51:04Z</time>
      </trkpt>
      <trkpt lat="44.80617" lon="1.59085">
        <ele>232.3</ele>
        <time>2023-04-17T08:51:17Z</time>
      </trkpt>
      <trkpt lat="44.80623" lon="1.59075">
        <ele>229.8</ele>
        <time>2023-04-17T08:51:27Z</time>
      </trkpt>
      <trkpt lat="44.8063" lon="1.59066">
        <ele>227.5</ele>
        <time>2023-04-17T08:51:38Z</time>
      </trkpt>
      <trkpt lat="44.80636" lon="1.59056">
        <ele>225.3</ele>
        <time>2023-04-17T08:51:49Z</time>
      </trkpt>
      <trkpt lat="44.80642" lon="1.59046">
        <ele>222.5</ele>
        <time>2023-04-17T08:52:02Z</time>
      </trkpt>
      <trkpt lat="44.8065" lon="1.59038">
        <ele>219.7</ele>
        <time>2023-04-17T08:52:14Z</time>
      </trkpt>
      <trkpt lat="44.80659" lon="1.59034">
        <ele>217.4</ele>
        <time>2023-04-17T08:52:25Z</time>
      </trkpt>
      <trkpt lat="44.80668" lon="1.59031">
        <ele>215.2</ele>
        <time>2023-04-17T08:52:37Z</time>
      </trkpt>
      <trkpt lat="44.80678" lon="1.5903">
        <ele>212.7</ele>
        <time>2023-04-17T08:52:50Z</time>
      </trkpt>
      <trkpt lat="44.80687" lon="1.59029">
        <ele>210</ele>
        <time>2023-04-17T08:53:01Z</time>
      </trkpt>
      <trkpt lat="44.80697" lon="1.59029">
        <ele>207.4</ele>
        <time>2023-04-17T08:53:12Z</time>
      </trkpt>
      <trkpt lat="44.80706" lon="1.59031">
        <ele>205.2</ele>
        <time>2023-04-17T08:53:21Z</time>
      </trkpt>
      <trkpt lat="44.80715" lon="1.59036">
        <ele>203.5</ele>
        <time>2023-04-17T08:53:32Z</time>
      </trkpt>
      <trkpt lat="44.80723" lon="1.59043">
        <ele>201.9</ele>
        <time>2023-04-17T08:53:41Z</time>
      </trkpt>
      <trkpt lat="44.80731" lon="1.59051">
        <ele>200.7</ele>
        <time>2023-04-17T08:53:52Z</time>
      </trkpt>
      <trkpt lat="44.8074" lon="1.59057">
        <ele>198.5</ele>
        <time>2023-04-17T08:54:02Z</time>
      </trkpt>
      <trkpt lat="44.80749" lon="1.59063">
        <ele>195.4</ele>
        <time>2023-04-17T08:54:12Z</time>
      </trkpt>
      <trkpt lat="44.80755" lon="1.59053">
        <ele>193.3</ele>
        <time>2023-04-17T08:54:23Z</time>
      </trkpt>
      <trkpt lat="44.80756" lon="1.5904">
        <ele>192.2</ele>
        <time>2023-04-17T08:54:31Z</time>
      </trkpt>
      <trkpt lat="44.80758" lon="1.59028">
        <ele>191.2</ele>
        <time>2023-04-17T08:54:39Z</time>
      </trkpt>
      <trkpt lat="44.80758" lon="1.59015">
        <ele>189.5</ele>
        <time>2023-04-17T08:55:41Z</time>
      </trkpt>
      <trkpt lat="44.80755" lon="1.59003">
        <ele>188.4</ele>
        <time>2023-04-17T08:55:51Z</time>
      </trkpt>
      <trkpt lat="44.80751" lon="1.5899">
        <ele>187.3</ele>
        <time>2023-04-17T08:56:00Z</time>
      </trkpt>
      <trkpt lat="44.80749" lon="1.58977">
        <ele>185.8</ele>
        <time>2023-04-17T08:56:08Z</time>
      </trkpt>
      <trkpt lat="44.80746" lon="1.58965">
        <ele>184</ele>
        <time>2023-04-17T08:56:15Z</time>
      </trkpt>
      <trkpt lat="44.8074" lon="1.58954">
        <ele>182.5</ele>
        <time>2023-04-17T08:56:23Z</time>
      </trkpt>
      <trkpt lat="44.80735" lon="1.58943">
        <ele>180.9</ele>
        <time>2023-04-17T08:56:31Z</time>
      </trkpt>
      <trkpt lat="44.80727" lon="1.58934">
        <ele>180.1</ele>
        <time>2023-04-17T08:57:13Z</time>
      </trkpt>
      <trkpt lat="44.80719" lon="1.58925">
        <ele>179.2</ele>
        <time>2023-04-17T08:57:21Z</time>
      </trkpt>
      <trkpt lat="44.80711" lon="1.58918">
        <ele>178.1</ele>
        <time>2023-04-17T08:58:06Z</time>
      </trkpt>
      <trkpt lat="44.80702" lon="1.58913">
        <ele>177.4</ele>
        <time>2023-04-17T08:58:15Z</time>
      </trkpt>
      <trkpt lat="44.80694" lon="1.58908">
        <ele>176.5</ele>
        <time>2023-04-17T08:58:24Z</time>
      </trkpt>
      <trkpt lat="44.80685" lon="1.58902">
        <ele>175.5</ele>
        <time>2023-04-17T08:58:33Z</time>
      </trkpt>
      <trkpt lat="44.80675" lon="1.58897">
        <ele>174.7</ele>
        <time>2023-04-17T08:58:41Z</time>
      </trkpt>
      <trkpt lat="44.80668" lon="1.58888">
        <ele>172.7</ele>
        <time>2023-04-17T08:58:49Z</time>
      </trkpt>
      <trkpt lat="44.80661" lon="1.58879">
        <ele>169.9</ele>
        <time>2023-04-17T08:58:57Z</time>
      </trkpt>
      <trkpt lat="44.80653" lon="1.58872">
        <ele>167.2</ele>
        <time>2023-04-17T08:59:05Z</time>
      </trkpt>
      <trkpt lat="44.80644" lon="1.58866">
        <ele>164.9</ele>
        <time>2023-04-17T08:59:14Z</time>
      </trkpt>
      <trkpt lat="44.80635" lon="1.58862">
        <ele>162.8</ele>
        <time>2023-04-17T08:59:23Z</time>
      </trkpt>
      <trkpt lat="44.80626" lon="1.58859">
        <ele>161.2</ele>
        <time>2023-04-17T08:59:31Z</time>
      </trkpt>
      <trkpt lat="44.80616" lon="1.58858">
        <ele>159.9</ele>
        <time>2023-04-17T08:59:40Z</time>
      </trkpt>
      <trkpt lat="44.80607" lon="1.5886">
        <ele>159.4</ele>
        <time>2023-04-17T08:59:48Z</time>
      </trkpt>
      <trkpt lat="44.80599" lon="1.58869">
        <ele>161.1</ele>
        <time>2023-04-17T08:59:56Z</time>
      </trkpt>
      <trkpt lat="44.8059" lon="1.58869">
        <ele>160.3</ele>
        <time>2023-04-17T09:00:15Z</time>
      </trkpt>
      <trkpt lat="44.8059" lon="1.58855">
        <ele>157</ele>
        <time>2023-04-17T09:04:51Z</time>
      </trkpt>
      <trkpt lat="44.80589" lon="1.58843">
        <ele>155.3</ele>
        <time>2023-04-17T09:05:00Z</time>
      </trkpt>
      <trkpt lat="44.80587" lon="1.58829">
        <ele>154.5</ele>
        <time>2023-04-17T09:05:08Z</time>
      </trkpt>
      <trkpt lat="44.80584" lon="1.58817">
        <ele>155.2</ele>
        <time>2023-04-17T09:05:16Z</time>
      </trkpt>
      <trkpt lat="44.80593" lon="1.58813">
        <ele>156.1</ele>
        <time>2023-04-17T09:07:07Z</time>
      </trkpt>
      <trkpt lat="44.80602" lon="1.58815">
        <ele>156.4</ele>
        <time>2023-04-17T09:07:15Z</time>
      </trkpt>
      <trkpt lat="44.80612" lon="1.58815">
        <ele>157</ele>
        <time>2023-04-17T09:07:29Z</time>
      </trkpt>
      <trkpt lat="44.80621" lon="1.58815">
        <ele>157.1</ele>
        <time>2023-04-17T09:07:39Z</time>
      </trkpt>
      <trkpt lat="44.80629" lon="1.58821">
        <ele>156.7</ele>
        <time>2023-04-17T09:07:52Z</time>
      </trkpt>
      <trkpt lat="44.80639" lon="1.5882">
        <ele>157</ele>
        <time>2023-04-17T09:08:08Z</time>
      </trkpt>
      <trkpt lat="44.80648" lon="1.58815">
        <ele>157.3</ele>
        <time>2023-04-17T09:08:21Z</time>
      </trkpt>
      <trkpt lat="44.80657" lon="1.58818">
        <ele>157.3</ele>
        <time>2023-04-17T09:08:33Z</time>
      </trkpt>
      <trkpt lat="44.80666" lon="1.5882">
        <ele>157.5</ele>
        <time>2023-04-17T09:08:48Z</time>
      </trkpt>
      <trkpt lat="44.80676" lon="1.58821">
        <ele>157.9</ele>
        <time>2023-04-17T09:08:58Z</time>
      </trkpt>
      <trkpt lat="44.80685" lon="1.5882">
        <ele>158.2</ele>
        <time>2023-04-17T09:09:13Z</time>
      </trkpt>
      <trkpt lat="44.80694" lon="1.58822">
        <ele>158.4</ele>
        <time>2023-04-17T09:09:26Z</time>
      </trkpt>
      <trkpt lat="44.80703" lon="1.58826">
        <ele>159.8</ele>
        <time>2023-04-17T09:09:36Z</time>
      </trkpt>
      <trkpt lat="44.80712" lon="1.58833">
        <ele>159.3</ele>
        <time>2023-04-17T09:09:48Z</time>
      </trkpt>
      <trkpt lat="44.8072" lon="1.58839">
        <ele>159.8</ele>
        <time>2023-04-17T09:10:00Z</time>
      </trkpt>
      <trkpt lat="44.80724" lon="1.58851">
        <ele>159.5</ele>
        <time>2023-04-17T09:10:10Z</time>
      </trkpt>
      <trkpt lat="44.80733" lon="1.58854">
        <ele>160</ele>
        <time>2023-04-17T09:10:21Z</time>
      </trkpt>
      <trkpt lat="44.80743" lon="1.58854">
        <ele>160.7</ele>
        <time>2023-04-17T09:10:35Z</time>
      </trkpt>
      <trkpt lat="44.80752" lon="1.58854">
        <ele>161.5</ele>
        <time>2023-04-17T09:11:01Z</time>
      </trkpt>
      <trkpt lat="44.80761" lon="1.58855">
        <ele>162.4</ele>
        <time>2023-04-17T09:11:17Z</time>
      </trkpt>
      <trkpt lat="44.8077" lon="1.58857">
        <ele>163.1</ele>
        <time>2023-04-17T09:14:01Z</time>
      </trkpt>
      <trkpt lat="44.80775" lon="1.58846">
        <ele>166.4</ele>
        <time>2023-04-17T09:15:06Z</time>
      </trkpt>
      <trkpt lat="44.80782" lon="1.58839">
        <ele>171.3</ele>
        <time>2023-04-17T09:15:26Z</time>
      </trkpt>
      <trkpt lat="44.80779" lon="1.58826">
        <ele>174.5</ele>
        <time>2023-04-17T09:15:39Z</time>
      </trkpt>
      <trkpt lat="44.8077" lon="1.58823">
        <ele>173.6</ele>
        <time>2023-04-17T09:15:47Z</time>
      </trkpt>
      <trkpt lat="44.80761" lon="1.58823">
        <ele>172</ele>
        <time>2023-04-17T09:15:54Z</time>
      </trkpt>
      <trkpt lat="44.80752" lon="1.5882">
        <ele>171.9</ele>
        <time>2023-04-17T09:16:43Z</time>
      </trkpt>
      <trkpt lat="44.80743" lon="1.58815">
        <ele>172.7</ele>
        <time>2023-04-17T09:16:53Z</time>
      </trkpt>
      <trkpt lat="44.80738" lon="1.58804">
        <ele>176.3</ele>
        <time>2023-04-17T09:17:03Z</time>
      </trkpt>
      <trkpt lat="44.80734" lon="1.58792">
        <ele>179.3</ele>
        <time>2023-04-17T09:17:14Z</time>
      </trkpt>
      <trkpt lat="44.80732" lon="1.58778">
        <ele>182.6</ele>
        <time>2023-04-17T09:17:26Z</time>
      </trkpt>
      <trkpt lat="44.80727" lon="1.58767">
        <ele>184.5</ele>
        <time>2023-04-17T09:17:36Z</time>
      </trkpt>
      <trkpt lat="44.80725" lon="1.58753">
        <ele>188</ele>
        <time>2023-04-17T09:17:48Z</time>
      </trkpt>
      <trkpt lat="44.80721" lon="1.58742">
        <ele>190.8</ele>
        <time>2023-04-17T09:18:00Z</time>
      </trkpt>
      <trkpt lat="44.80714" lon="1.58732">
        <ele>193.7</ele>
        <time>2023-04-17T09:18:13Z</time>
      </trkpt>
      <trkpt lat="44.80705" lon="1.58726">
        <ele>195.1</ele>
        <time>2023-04-17T09:18:23Z</time>
      </trkpt>
      <trkpt lat="44.80697" lon="1.58718">
        <ele>196.9</ele>
        <time>2023-04-17T09:18:34Z</time>
      </trkpt>
      <trkpt lat="44.80688" lon="1.58712">
        <ele>198.9</ele>
        <time>2023-04-17T09:18:42Z</time>
      </trkpt>
      <trkpt lat="44.80681" lon="1.58705">
        <ele>201.6</ele>
        <time>2023-04-17T09:18:50Z</time>
      </trkpt>
      <trkpt lat="44.80688" lon="1.58696">
        <ele>205.9</ele>
        <time>2023-04-17T09:19:09Z</time>
      </trkpt>
      <trkpt lat="44.80697" lon="1.58693">
        <ele>207.8</ele>
        <time>2023-04-17T09:19:20Z</time>
      </trkpt>
      <trkpt lat="44.80706" lon="1.58691">
        <ele>210</ele>
        <time>2023-04-17T09:19:30Z</time>
      </trkpt>
      <trkpt lat="44.80716" lon="1.5869">
        <ele>211.9</ele>
        <time>2023-04-17T09:19:41Z</time>
      </trkpt>
      <trkpt lat="44.80725" lon="1.58685">
        <ele>215.5</ele>
        <time>2023-04-17T09:19:52Z</time>
      </trkpt>
      <trkpt lat="44.80734" lon="1.58684">
        <ele>218.5</ele>
        <time>2023-04-17T09:20:02Z</time>
      </trkpt>
      <trkpt lat="44.80744" lon="1.58683">
        <ele>221.4</ele>
        <time>2023-04-17T09:20:13Z</time>
      </trkpt>
      <trkpt lat="44.80754" lon="1.58684">
        <ele>223.7</ele>
        <time>2023-04-17T09:20:25Z</time>
      </trkpt>
      <trkpt lat="44.8076" lon="1.58673">
        <ele>228.5</ele>
        <time>2023-04-17T09:20:39Z</time>
      </trkpt>
      <trkpt lat="44.80755" lon="1.58662">
        <ele>230.2</ele>
        <time>2023-04-17T09:20:48Z</time>
      </trkpt>
      <trkpt lat="44.80747" lon="1.58655">
        <ele>230.5</ele>
        <time>2023-04-17T09:20:56Z</time>
      </trkpt>
      <trkpt lat="44.8074" lon="1.58646">
        <ele>231.9</ele>
        <time>2023-04-17T09:21:04Z</time>
      </trkpt>
      <trkpt lat="44.80735" lon="1.58635">
        <ele>234</ele>
        <time>2023-04-17T09:21:11Z</time>
      </trkpt>
      <trkpt lat="44.80728" lon="1.58625">
        <ele>235</ele>
        <time>2023-04-17T09:21:20Z</time>
      </trkpt>
      <trkpt lat="44.80723" lon="1.58613">
        <ele>236.7</ele>
        <time>2023-04-17T09:21:28Z</time>
      </trkpt>
      <trkpt lat="44.80718" lon="1.58603">
        <ele>237.6</ele>
        <time>2023-04-17T09:21:37Z</time>
      </trkpt>
      <trkpt lat="44.80712" lon="1.58591">
        <ele>238.4</ele>
        <time>2023-04-17T09:21:46Z</time>
      </trkpt>
      <trkpt lat="44.80704" lon="1.58583">
        <ele>239</ele>
        <time>2023-04-17T09:21:54Z</time>
      </trkpt>
      <trkpt lat="44.80699" lon="1.58571">
        <ele>239.8</ele>
        <time>2023-04-17T09:22:02Z</time>
      </trkpt>
      <trkpt lat="44.80695" lon="1.58559">
        <ele>240.7</ele>
        <time>2023-04-17T09:22:09Z</time>
      </trkpt>
      <trkpt lat="44.8069" lon="1.58548">
        <ele>241.7</ele>
        <time>2023-04-17T09:22:16Z</time>
      </trkpt>
      <trkpt lat="44.80687" lon="1.58536">
        <ele>242.7</ele>
        <time>2023-04-17T09:22:25Z</time>
      </trkpt>
      <trkpt lat="44.80682" lon="1.58525">
        <ele>243.5</ele>
        <time>2023-04-17T09:31:50Z</time>
      </trkpt>
      <trkpt lat="44.80677" lon="1.58513">
        <ele>244.3</ele>
        <time>2023-04-17T09:32:36Z</time>
      </trkpt>
      <trkpt lat="44.8067" lon="1.58505">
        <ele>245.4</ele>
        <time>2023-04-17T09:33:00Z</time>
      </trkpt>
      <trkpt lat="44.80662" lon="1.58497">
        <ele>246.3</ele>
        <time>2023-04-17T09:33:13Z</time>
      </trkpt>
      <trkpt lat="44.80654" lon="1.5849">
        <ele>247</ele>
        <time>2023-04-17T09:33:24Z</time>
      </trkpt>
      <trkpt lat="44.80646" lon="1.58483">
        <ele>247.8</ele>
        <time>2023-04-17T09:33:35Z</time>
      </trkpt>
      <trkpt lat="44.80641" lon="1.58472">
        <ele>248.9</ele>
        <time>2023-04-17T09:33:47Z</time>
      </trkpt>
      <trkpt lat="44.80634" lon="1.58463">
        <ele>249.9</ele>
        <time>2023-04-17T09:33:57Z</time>
      </trkpt>
      <trkpt lat="44.80626" lon="1.58455">
        <ele>250.7</ele>
        <time>2023-04-17T09:34:06Z</time>
      </trkpt>
      <trkpt lat="44.80619" lon="1.58446">
        <ele>251.6</ele>
        <time>2023-04-17T09:34:16Z</time>
      </trkpt>
      <trkpt lat="44.80614" lon="1.58435">
        <ele>251.9</ele>
        <time>2023-04-17T09:34:26Z</time>
      </trkpt>
      <trkpt lat="44.80606" lon="1.58427">
        <ele>252</ele>
        <time>2023-04-17T09:34:36Z</time>
      </trkpt>
      <trkpt lat="44.80601" lon="1.58416">
        <ele>252</ele>
        <time>2023-04-17T09:34:48Z</time>
      </trkpt>
      <trkpt lat="44.80608" lon="1.58405">
        <ele>252</ele>
        <time>2023-04-17T09:35:00Z</time>
      </trkpt>
      <trkpt lat="44.80612" lon="1.58394">
        <ele>252</ele>
        <time>2023-04-17T09:36:08Z</time>
      </trkpt>
      <trkpt lat="44.80622" lon="1.5839">
        <ele>251.6</ele>
        <time>2023-04-17T09:36:19Z</time>
      </trkpt>
      <trkpt lat="44.80629" lon="1.58381">
        <ele>251.1</ele>
        <time>2023-04-17T09:36:28Z</time>
      </trkpt>
      <trkpt lat="44.80632" lon="1.58378">
        <ele>250.8</ele>
        <time>2023-04-17T10:13:07Z</time>
      </trkpt>
      <trkpt lat="44.80638" lon="1.58367">
        <ele>250.2</ele>
        <time>2023-04-17T10:13:29Z</time>
      </trkpt>
      <trkpt lat="44.80642" lon="1.58355">
        <ele>249.4</ele>
        <time>2023-04-17T10:13:45Z</time>
      </trkpt>
      <trkpt lat="44.80637" lon="1.58344">
        <ele>249.5</ele>
        <time>2023-04-17T10:15:59Z</time>
      </trkpt>
      <trkpt lat="44.80633" lon="1.58331">
        <ele>249</ele>
        <time>2023-04-17T10:16:07Z</time>
      </trkpt>
      <trkpt lat="44.8063" lon="1.58318">
        <ele>248.4</ele>
        <time>2023-04-17T10:16:14Z</time>
      </trkpt>
      <trkpt lat="44.80628" lon="1.58304">
        <ele>247.7</ele>
        <time>2023-04-17T10:16:23Z</time>
      </trkpt>
      <trkpt lat="44.80625" lon="1.58291">
        <ele>247.2</ele>
        <time>2023-04-17T10:16:31Z</time>
      </trkpt>
      <trkpt lat="44.80624" lon="1.58278">
        <ele>246.6</ele>
        <time>2023-04-17T10:16:38Z</time>
      </trkpt>
      <trkpt lat="44.80622" lon="1.58265">
        <ele>246.5</ele>
        <time>2023-04-17T10:16:45Z</time>
      </trkpt>
      <trkpt lat="44.80622" lon="1.58252">
        <ele>246.2</ele>
        <time>2023-04-17T10:16:52Z</time>
      </trkpt>
      <trkpt lat="44.80621" lon="1.58238">
        <ele>245.7</ele>
        <time>2023-04-17T10:17:00Z</time>
      </trkpt>
      <trkpt lat="44.8062" lon="1.58224">
        <ele>245.5</ele>
        <time>2023-04-17T10:17:07Z</time>
      </trkpt>
      <trkpt lat="44.80619" lon="1.58211">
        <ele>245.6</ele>
        <time>2023-04-17T10:17:14Z</time>
      </trkpt>
      <trkpt lat="44.80619" lon="1.58197">
        <ele>245.6</ele>
        <time>2023-04-17T10:17:21Z</time>
      </trkpt>
      <trkpt lat="44.8062" lon="1.58184">
        <ele>245.4</ele>
        <time>2023-04-17T10:17:29Z</time>
      </trkpt>
      <trkpt lat="44.80622" lon="1.5817">
        <ele>245.1</ele>
        <time>2023-04-17T10:17:37Z</time>
      </trkpt>
      <trkpt lat="44.80623" lon="1.58157">
        <ele>244.9</ele>
        <time>2023-04-17T10:17:44Z</time>
      </trkpt>
      <trkpt lat="44.80633" lon="1.58155">
        <ele>243.4</ele>
        <time>2023-04-17T10:17:59Z</time>
      </trkpt>
      <trkpt lat="44.80642" lon="1.58153">
        <ele>241.7</ele>
        <time>2023-04-17T10:18:36Z</time>
      </trkpt>
      <trkpt lat="44.80651" lon="1.58153">
        <ele>239.3</ele>
        <time>2023-04-17T10:18:50Z</time>
      </trkpt>
      <trkpt lat="44.8066" lon="1.58152">
        <ele>237.1</ele>
        <time>2023-04-17T10:18:59Z</time>
      </trkpt>
      <trkpt lat="44.80669" lon="1.5815">
        <ele>234.8</ele>
        <time>2023-04-17T10:19:10Z</time>
      </trkpt>
      <trkpt lat="44.80679" lon="1.58147">
        <ele>232</ele>
        <time>2023-04-17T10:19:21Z</time>
      </trkpt>
      <trkpt lat="44.80688" lon="1.58145">
        <ele>229.1</ele>
        <time>2023-04-17T10:19:40Z</time>
      </trkpt>
      <trkpt lat="44.80698" lon="1.58143">
        <ele>226.5</ele>
        <time>2023-04-17T10:19:49Z</time>
      </trkpt>
      <trkpt lat="44.80706" lon="1.58136">
        <ele>224.9</ele>
        <time>2023-04-17T10:20:00Z</time>
      </trkpt>
      <trkpt lat="44.80714" lon="1.5813">
        <ele>222.9</ele>
        <time>2023-04-17T10:20:10Z</time>
      </trkpt>
      <trkpt lat="44.80724" lon="1.58125">
        <ele>220.4</ele>
        <time>2023-04-17T10:20:19Z</time>
      </trkpt>
      <trkpt lat="44.80732" lon="1.58119">
        <ele>218.6</ele>
        <time>2023-04-17T10:20:26Z</time>
      </trkpt>
      <trkpt lat="44.8074" lon="1.58113">
        <ele>216.2</ele>
        <time>2023-04-17T10:20:34Z</time>
      </trkpt>
      <trkpt lat="44.80748" lon="1.58107">
        <ele>213.8</ele>
        <time>2023-04-17T10:20:40Z</time>
      </trkpt>
      <trkpt lat="44.80757" lon="1.581">
        <ele>211.4</ele>
        <time>2023-04-17T10:20:48Z</time>
      </trkpt>
      <trkpt lat="44.80765" lon="1.58095">
        <ele>208.9</ele>
        <time>2023-04-17T10:20:57Z</time>
      </trkpt>
      <trkpt lat="44.80774" lon="1.58089">
        <ele>205.6</ele>
        <time>2023-04-17T10:21:07Z</time>
      </trkpt>
      <trkpt lat="44.80784" lon="1.58085">
        <ele>203</ele>
        <time>2023-04-17T10:21:16Z</time>
      </trkpt>
      <trkpt lat="44.80793" lon="1.58082">
        <ele>201.8</ele>
        <time>2023-04-17T10:21:24Z</time>
      </trkpt>
      <trkpt lat="44.80802" lon="1.58078">
        <ele>200.3</ele>
        <time>2023-04-17T10:21:33Z</time>
      </trkpt>
      <trkpt lat="44.8081" lon="1.58074">
        <ele>198.2</ele>
        <time>2023-04-17T10:21:41Z</time>
      </trkpt>
      <trkpt lat="44.80819" lon="1.58072">
        <ele>196.3</ele>
        <time>2023-04-17T10:21:48Z</time>
      </trkpt>
      <trkpt lat="44.80829" lon="1.5807">
        <ele>194.2</ele>
        <time>2023-04-17T10:21:56Z</time>
      </trkpt>
      <trkpt lat="44.80839" lon="1.58068">
        <ele>192.1</ele>
        <time>2023-04-17T10:22:02Z</time>
      </trkpt>
      <trkpt lat="44.80849" lon="1.58066">
        <ele>189.9</ele>
        <time>2023-04-17T10:22:09Z</time>
      </trkpt>
      <trkpt lat="44.80858" lon="1.58064">
        <ele>188</ele>
        <time>2023-04-17T10:22:18Z</time>
      </trkpt>
      <trkpt lat="44.80867" lon="1.5806">
        <ele>186.1</ele>
        <time>2023-04-17T10:22:27Z</time>
      </trkpt>
      <trkpt lat="44.80876" lon="1.58055">
        <ele>184.4</ele>
        <time>2023-04-17T10:22:34Z</time>
      </trkpt>
      <trkpt lat="44.80886" lon="1.58052">
        <ele>182.9</ele>
        <time>2023-04-17T10:22:54Z</time>
      </trkpt>
      <trkpt lat="44.80895" lon="1.58048">
        <ele>181.2</ele>
        <time>2023-04-17T10:23:01Z</time>
      </trkpt>
      <trkpt lat="44.80904" lon="1.58046">
        <ele>179.5</ele>
        <time>2023-04-17T10:23:09Z</time>
      </trkpt>
      <trkpt lat="44.80914" lon="1.58043">
        <ele>177.6</ele>
        <time>2023-04-17T10:23:18Z</time>
      </trkpt>
      <trkpt lat="44.80923" lon="1.58046">
        <ele>176.7</ele>
        <time>2023-04-17T10:23:24Z</time>
      </trkpt>
      <trkpt lat="44.80932" lon="1.58054">
        <ele>176.6</ele>
        <time>2023-04-17T10:23:31Z</time>
      </trkpt>
      <trkpt lat="44.8094" lon="1.5806">
        <ele>175.7</ele>
        <time>2023-04-17T10:23:38Z</time>
      </trkpt>
      <trkpt lat="44.80949" lon="1.58064">
        <ele>173.9</ele>
        <time>2023-04-17T10:23:45Z</time>
      </trkpt>
      <trkpt lat="44.80957" lon="1.5807">
        <ele>171.8</ele>
        <time>2023-04-17T10:23:52Z</time>
      </trkpt>
      <trkpt lat="44.80964" lon="1.58079">
        <ele>170.1</ele>
        <time>2023-04-17T10:23:58Z</time>
      </trkpt>
      <trkpt lat="44.80964" lon="1.58092">
        <ele>169.4</ele>
        <time>2023-04-17T10:24:04Z</time>
      </trkpt>
      <trkpt lat="44.8096" lon="1.58103">
        <ele>169.1</ele>
        <time>2023-04-17T10:24:15Z</time>
      </trkpt>
      <trkpt lat="44.80969" lon="1.58108">
        <ele>167.5</ele>
        <time>2023-04-17T10:24:29Z</time>
      </trkpt>
      <trkpt lat="44.80977" lon="1.58102">
        <ele>168.2</ele>
        <time>2023-04-17T10:24:36Z</time>
      </trkpt>
      <trkpt lat="44.80981" lon="1.5809">
        <ele>168.7</ele>
        <time>2023-04-17T10:24:43Z</time>
      </trkpt>
      <trkpt lat="44.80986" lon="1.58077">
        <ele>168.9</ele>
        <time>2023-04-17T10:24:51Z</time>
      </trkpt>
      <trkpt lat="44.80986" lon="1.58064">
        <ele>168.7</ele>
        <time>2023-04-17T10:24:59Z</time>
      </trkpt>
      <trkpt lat="44.80987" lon="1.58051">
        <ele>168.3</ele>
        <time>2023-04-17T10:25:07Z</time>
      </trkpt>
      <trkpt lat="44.80988" lon="1.58037">
        <ele>167.6</ele>
        <time>2023-04-17T10:25:15Z</time>
      </trkpt>
      <trkpt lat="44.8099" lon="1.58024">
        <ele>166.8</ele>
        <time>2023-04-17T10:25:21Z</time>
      </trkpt>
      <trkpt lat="44.80989" lon="1.58011">
        <ele>165.2</ele>
        <time>2023-04-17T10:25:27Z</time>
      </trkpt>
      <trkpt lat="44.80989" lon="1.57998">
        <ele>163.5</ele>
        <time>2023-04-17T10:25:34Z</time>
      </trkpt>
      <trkpt lat="44.80989" lon="1.57984">
        <ele>160.6</ele>
        <time>2023-04-17T10:25:42Z</time>
      </trkpt>
      <trkpt lat="44.8099" lon="1.57972">
        <ele>158.3</ele>
        <time>2023-04-17T10:25:49Z</time>
      </trkpt>
      <trkpt lat="44.80994" lon="1.5796">
        <ele>158.5</ele>
        <time>2023-04-17T10:29:13Z</time>
      </trkpt>
      <trkpt lat="44.81003" lon="1.57954">
        <ele>159.8</ele>
        <time>2023-04-17T10:29:25Z</time>
      </trkpt>
      <trkpt lat="44.81011" lon="1.57947">
        <ele>160.9</ele>
        <time>2023-04-17T10:29:33Z</time>
      </trkpt>
      <trkpt lat="44.81018" lon="1.57937">
        <ele>162.9</ele>
        <time>2023-04-17T10:29:43Z</time>
      </trkpt>
      <trkpt lat="44.81025" lon="1.57929">
        <ele>164.3</ele>
        <time>2023-04-17T10:29:52Z</time>
      </trkpt>
      <trkpt lat="44.81035" lon="1.57929">
        <ele>165.2</ele>
        <time>2023-04-17T10:30:01Z</time>
      </trkpt>
      <trkpt lat="44.81044" lon="1.57928">
        <ele>166.7</ele>
        <time>2023-04-17T10:30:10Z</time>
      </trkpt>
      <trkpt lat="44.81054" lon="1.57927">
        <ele>168.1</ele>
        <time>2023-04-17T10:30:22Z</time>
      </trkpt>
      <trkpt lat="44.81063" lon="1.57924">
        <ele>168.9</ele>
        <time>2023-04-17T10:30:32Z</time>
      </trkpt>
      <trkpt lat="44.81073" lon="1.57923">
        <ele>169.6</ele>
        <time>2023-04-17T10:30:41Z</time>
      </trkpt>
      <trkpt lat="44.81083" lon="1.57925">
        <ele>170.6</ele>
        <time>2023-04-17T10:30:48Z</time>
      </trkpt>
      <trkpt lat="44.81092" lon="1.57926">
        <ele>170.9</ele>
        <time>2023-04-17T10:30:55Z</time>
      </trkpt>
      <trkpt lat="44.81102" lon="1.57926">
        <ele>171.2</ele>
        <time>2023-04-17T10:31:03Z</time>
      </trkpt>
      <trkpt lat="44.81112" lon="1.5793">
        <ele>172</ele>
        <time>2023-04-17T10:31:10Z</time>
      </trkpt>
      <trkpt lat="44.81121" lon="1.57931">
        <ele>173</ele>
        <time>2023-04-17T10:31:17Z</time>
      </trkpt>
      <trkpt lat="44.81131" lon="1.57931">
        <ele>173.8</ele>
        <time>2023-04-17T10:31:24Z</time>
      </trkpt>
      <trkpt lat="44.8114" lon="1.57929">
        <ele>174.4</ele>
        <time>2023-04-17T10:31:32Z</time>
      </trkpt>
      <trkpt lat="44.8115" lon="1.57924">
        <ele>174.1</ele>
        <time>2023-04-17T10:31:40Z</time>
      </trkpt>
      <trkpt lat="44.81158" lon="1.57917">
        <ele>172.9</ele>
        <time>2023-04-17T10:31:48Z</time>
      </trkpt>
      <trkpt lat="44.81167" lon="1.57912">
        <ele>174</ele>
        <time>2023-04-17T10:31:55Z</time>
      </trkpt>
      <trkpt lat="44.81177" lon="1.5791">
        <ele>175.4</ele>
        <time>2023-04-17T10:32:04Z</time>
      </trkpt>
      <trkpt lat="44.81187" lon="1.5791">
        <ele>176.5</ele>
        <time>2023-04-17T10:32:13Z</time>
      </trkpt>
      <trkpt lat="44.81196" lon="1.57908">
        <ele>177.4</ele>
        <time>2023-04-17T10:32:21Z</time>
      </trkpt>
      <trkpt lat="44.81206" lon="1.57907">
        <ele>178</ele>
        <time>2023-04-17T10:32:29Z</time>
      </trkpt>
      <trkpt lat="44.81216" lon="1.57909">
        <ele>178.5</ele>
        <time>2023-04-17T10:32:38Z</time>
      </trkpt>
      <trkpt lat="44.81224" lon="1.57915">
        <ele>178.4</ele>
        <time>2023-04-17T10:32:44Z</time>
      </trkpt>
      <trkpt lat="44.81233" lon="1.57922">
        <ele>179.6</ele>
        <time>2023-04-17T10:32:52Z</time>
      </trkpt>
      <trkpt lat="44.81242" lon="1.57926">
        <ele>180.4</ele>
        <time>2023-04-17T10:32:59Z</time>
      </trkpt>
      <trkpt lat="44.8125" lon="1.57935">
        <ele>180.7</ele>
        <time>2023-04-17T10:33:07Z</time>
      </trkpt>
      <trkpt lat="44.81258" lon="1.57942">
        <ele>181.2</ele>
        <time>2023-04-17T10:33:16Z</time>
      </trkpt>
      <trkpt lat="44.81266" lon="1.5795">
        <ele>181.8</ele>
        <time>2023-04-17T10:33:24Z</time>
      </trkpt>
      <trkpt lat="44.81272" lon="1.5796">
        <ele>182.2</ele>
        <time>2023-04-17T10:33:32Z</time>
      </trkpt>
      <trkpt lat="44.8128" lon="1.57968">
        <ele>182.1</ele>
        <time>2023-04-17T10:33:40Z</time>
      </trkpt>
      <trkpt lat="44.81289" lon="1.57976">
        <ele>183.3</ele>
        <time>2023-04-17T10:33:50Z</time>
      </trkpt>
      <trkpt lat="44.81296" lon="1.57984">
        <ele>184.1</ele>
        <time>2023-04-17T10:33:58Z</time>
      </trkpt>
      <trkpt lat="44.81301" lon="1.57994">
        <ele>183.9</ele>
        <time>2023-04-17T10:34:06Z</time>
      </trkpt>
      <trkpt lat="44.81307" lon="1.58004">
        <ele>184.1</ele>
        <time>2023-04-17T10:34:14Z</time>
      </trkpt>
      <trkpt lat="44.81314" lon="1.58014">
        <ele>186.5</ele>
        <time>2023-04-17T10:34:22Z</time>
      </trkpt>
      <trkpt lat="44.81321" lon="1.58022">
        <ele>187.1</ele>
        <time>2023-04-17T10:34:31Z</time>
      </trkpt>
      <trkpt lat="44.8133" lon="1.58027">
        <ele>186.4</ele>
        <time>2023-04-17T10:34:39Z</time>
      </trkpt>
      <trkpt lat="44.81338" lon="1.58033">
        <ele>187.7</ele>
        <time>2023-04-17T10:34:49Z</time>
      </trkpt>
      <trkpt lat="44.81347" lon="1.58037">
        <ele>189</ele>
        <time>2023-04-17T10:35:00Z</time>
      </trkpt>
      <trkpt lat="44.81356" lon="1.58043">
        <ele>189.9</ele>
        <time>2023-04-17T10:35:08Z</time>
      </trkpt>
      <trkpt lat="44.81366" lon="1.58044">
        <ele>190.4</ele>
        <time>2023-04-17T10:35:16Z</time>
      </trkpt>
      <trkpt lat="44.81375" lon="1.58046">
        <ele>191</ele>
        <time>2023-04-17T10:35:25Z</time>
      </trkpt>
      <trkpt lat="44.81384" lon="1.58051">
        <ele>190.8</ele>
        <time>2023-04-17T10:35:33Z</time>
      </trkpt>
      <trkpt lat="44.81392" lon="1.58056">
        <ele>190.7</ele>
        <time>2023-04-17T10:35:40Z</time>
      </trkpt>
      <trkpt lat="44.81401" lon="1.58061">
        <ele>193.1</ele>
        <time>2023-04-17T10:35:48Z</time>
      </trkpt>
      <trkpt lat="44.8141" lon="1.58065">
        <ele>195.1</ele>
        <time>2023-04-17T10:35:55Z</time>
      </trkpt>
      <trkpt lat="44.81419" lon="1.58067">
        <ele>196.2</ele>
        <time>2023-04-17T10:36:01Z</time>
      </trkpt>
      <trkpt lat="44.81428" lon="1.5807">
        <ele>197.2</ele>
        <time>2023-04-17T10:36:08Z</time>
      </trkpt>
      <trkpt lat="44.81438" lon="1.58072">
        <ele>197.9</ele>
        <time>2023-04-17T10:36:16Z</time>
      </trkpt>
      <trkpt lat="44.81447" lon="1.58076">
        <ele>198.5</ele>
        <time>2023-04-17T10:36:24Z</time>
      </trkpt>
      <trkpt lat="44.81457" lon="1.58079">
        <ele>198.9</ele>
        <time>2023-04-17T10:36:33Z</time>
      </trkpt>
      <trkpt lat="44.81467" lon="1.58081">
        <ele>199</ele>
        <time>2023-04-17T10:36:40Z</time>
      </trkpt>
      <trkpt lat="44.81477" lon="1.58084">
        <ele>199.3</ele>
        <time>2023-04-17T10:36:47Z</time>
      </trkpt>
      <trkpt lat="44.81486" lon="1.58086">
        <ele>200.3</ele>
        <time>2023-04-17T10:36:55Z</time>
      </trkpt>
      <trkpt lat="44.81496" lon="1.58087">
        <ele>200.9</ele>
        <time>2023-04-17T10:37:02Z</time>
      </trkpt>
      <trkpt lat="44.81504" lon="1.58078">
        <ele>200.9</ele>
        <time>2023-04-17T10:37:10Z</time>
      </trkpt>
      <trkpt lat="44.81513" lon="1.58073">
        <ele>202.3</ele>
        <time>2023-04-17T10:37:18Z</time>
      </trkpt>
      <trkpt lat="44.81522" lon="1.58079">
        <ele>201.7</ele>
        <time>2023-04-17T10:37:25Z</time>
      </trkpt>
      <trkpt lat="44.81529" lon="1.58089">
        <ele>202.1</ele>
        <time>2023-04-17T10:37:32Z</time>
      </trkpt>
      <trkpt lat="44.81538" lon="1.58092">
        <ele>203.3</ele>
        <time>2023-04-17T10:37:42Z</time>
      </trkpt>
      <trkpt lat="44.81546" lon="1.58086">
        <ele>203.7</ele>
        <time>2023-04-17T10:37:57Z</time>
      </trkpt>
      <trkpt lat="44.81554" lon="1.58078">
        <ele>206</ele>
        <time>2023-04-17T10:38:07Z</time>
      </trkpt>
      <trkpt lat="44.81563" lon="1.58075">
        <ele>209</ele>
        <time>2023-04-17T10:38:18Z</time>
      </trkpt>
      <trkpt lat="44.81573" lon="1.5808">
        <ele>209.6</ele>
        <time>2023-04-17T10:38:28Z</time>
      </trkpt>
      <trkpt lat="44.81581" lon="1.58086">
        <ele>209.9</ele>
        <time>2023-04-17T10:38:37Z</time>
      </trkpt>
      <trkpt lat="44.8159" lon="1.58091">
        <ele>211.7</ele>
        <time>2023-04-17T10:38:46Z</time>
      </trkpt>
      <trkpt lat="44.81598" lon="1.58099">
        <ele>212.5</ele>
        <time>2023-04-17T10:38:58Z</time>
      </trkpt>
      <trkpt lat="44.81598" lon="1.58086">
        <ele>216.3</ele>
        <time>2023-04-17T10:39:21Z</time>
      </trkpt>
      <trkpt lat="44.81595" lon="1.58074">
        <ele>218.6</ele>
        <time>2023-04-17T10:39:31Z</time>
      </trkpt>
      <trkpt lat="44.81591" lon="1.58062">
        <ele>220.7</ele>
        <time>2023-04-17T10:39:40Z</time>
      </trkpt>
      <trkpt lat="44.81585" lon="1.58051">
        <ele>222.1</ele>
        <time>2023-04-17T10:39:51Z</time>
      </trkpt>
      <trkpt lat="44.8158" lon="1.58042">
        <ele>223.1</ele>
        <time>2023-04-17T10:40:00Z</time>
      </trkpt>
      <trkpt lat="44.81574" lon="1.5803">
        <ele>225.6</ele>
        <time>2023-04-17T10:40:10Z</time>
      </trkpt>
      <trkpt lat="44.81568" lon="1.5802">
        <ele>227.7</ele>
        <time>2023-04-17T10:40:23Z</time>
      </trkpt>
      <trkpt lat="44.8156" lon="1.58013">
        <ele>228.9</ele>
        <time>2023-04-17T10:40:34Z</time>
      </trkpt>
      <trkpt lat="44.81551" lon="1.58006">
        <ele>230.3</ele>
        <time>2023-04-17T10:40:45Z</time>
      </trkpt>
      <trkpt lat="44.81544" lon="1.57998">
        <ele>232.2</ele>
        <time>2023-04-17T10:40:54Z</time>
      </trkpt>
      <trkpt lat="44.81535" lon="1.57993">
        <ele>232.7</ele>
        <time>2023-04-17T10:41:02Z</time>
      </trkpt>
      <trkpt lat="44.81527" lon="1.57987">
        <ele>234</ele>
        <time>2023-04-17T10:41:14Z</time>
      </trkpt>
      <trkpt lat="44.81518" lon="1.57979">
        <ele>235.8</ele>
        <time>2023-04-17T10:41:24Z</time>
      </trkpt>
      <trkpt lat="44.8151" lon="1.57972">
        <ele>237.5</ele>
        <time>2023-04-17T10:41:33Z</time>
      </trkpt>
      <trkpt lat="44.81501" lon="1.57966">
        <ele>238.3</ele>
        <time>2023-04-17T10:41:42Z</time>
      </trkpt>
      <trkpt lat="44.81493" lon="1.5796">
        <ele>239.7</ele>
        <time>2023-04-17T10:41:52Z</time>
      </trkpt>
      <trkpt lat="44.81484" lon="1.57954">
        <ele>240.9</ele>
        <time>2023-04-17T10:42:00Z</time>
      </trkpt>
      <trkpt lat="44.81475" lon="1.57947">
        <ele>242.5</ele>
        <time>2023-04-17T10:42:08Z</time>
      </trkpt>
      <trkpt lat="44.81467" lon="1.5794">
        <ele>244.2</ele>
        <time>2023-04-17T10:42:17Z</time>
      </trkpt>
      <trkpt lat="44.81458" lon="1.57935">
        <ele>245.2</ele>
        <time>2023-04-17T10:42:25Z</time>
      </trkpt>
      <trkpt lat="44.81449" lon="1.5793">
        <ele>245.9</ele>
        <time>2023-04-17T10:42:32Z</time>
      </trkpt>
      <trkpt lat="44.81442" lon="1.57922">
        <ele>247.8</ele>
        <time>2023-04-17T10:42:41Z</time>
      </trkpt>
      <trkpt lat="44.81434" lon="1.57915">
        <ele>249.2</ele>
        <time>2023-04-17T10:42:49Z</time>
      </trkpt>
      <trkpt lat="44.81427" lon="1.57908">
        <ele>250.1</ele>
        <time>2023-04-17T10:42:57Z</time>
      </trkpt>
      <trkpt lat="44.8142" lon="1.579">
        <ele>251.1</ele>
        <time>2023-04-17T10:43:06Z</time>
      </trkpt>
      <trkpt lat="44.81412" lon="1.57891">
        <ele>251.7</ele>
        <time>2023-04-17T10:43:13Z</time>
      </trkpt>
      <trkpt lat="44.81405" lon="1.57882">
        <ele>251.9</ele>
        <time>2023-04-17T10:43:21Z</time>
      </trkpt>
      <trkpt lat="44.81399" lon="1.57872">
        <ele>252.7</ele>
        <time>2023-04-17T10:43:29Z</time>
      </trkpt>
      <trkpt lat="44.81393" lon="1.57862">
        <ele>253.5</ele>
        <time>2023-04-17T10:43:36Z</time>
      </trkpt>
      <trkpt lat="44.81388" lon="1.57851">
        <ele>253.9</ele>
        <time>2023-04-17T10:43:43Z</time>
      </trkpt>
      <trkpt lat="44.81383" lon="1.57839">
        <ele>254.1</ele>
        <time>2023-04-17T10:43:50Z</time>
      </trkpt>
      <trkpt lat="44.81379" lon="1.57826">
        <ele>254.6</ele>
        <time>2023-04-17T10:43:58Z</time>
      </trkpt>
      <trkpt lat="44.81373" lon="1.57815">
        <ele>254.7</ele>
        <time>2023-04-17T10:44:04Z</time>
      </trkpt>
      <trkpt lat="44.81369" lon="1.57802">
        <ele>255.3</ele>
        <time>2023-04-17T10:44:12Z</time>
      </trkpt>
      <trkpt lat="44.81365" lon="1.57789">
        <ele>255.6</ele>
        <time>2023-04-17T10:44:19Z</time>
      </trkpt>
      <trkpt lat="44.81363" lon="1.57775">
        <ele>256.3</ele>
        <time>2023-04-17T10:44:26Z</time>
      </trkpt>
      <trkpt lat="44.81361" lon="1.57762">
        <ele>256.6</ele>
        <time>2023-04-17T10:44:34Z</time>
      </trkpt>
      <trkpt lat="44.81363" lon="1.57749">
        <ele>257.2</ele>
        <time>2023-04-17T10:45:45Z</time>
      </trkpt>
      <trkpt lat="44.81358" lon="1.57738">
        <ele>257.6</ele>
        <time>2023-04-17T10:46:05Z</time>
      </trkpt>
      <trkpt lat="44.81354" lon="1.57726">
        <ele>258.2</ele>
        <time>2023-04-17T11:14:03Z</time>
      </trkpt>
      <trkpt lat="44.81346" lon="1.5772">
        <ele>258</ele>
        <time>2023-04-17T11:14:17Z</time>
      </trkpt>
      <trkpt lat="44.81355" lon="1.57724">
        <ele>258.4</ele>
        <time>2023-04-17T11:15:52Z</time>
      </trkpt>
      <trkpt lat="44.81362" lon="1.57733">
        <ele>258.3</ele>
        <time>2023-04-17T11:16:07Z</time>
      </trkpt>
      <trkpt lat="44.8137" lon="1.57741">
        <ele>258.1</ele>
        <time>2023-04-17T11:45:57Z</time>
      </trkpt>
      <trkpt lat="44.81363" lon="1.57732">
        <ele>258.3</ele>
        <time>2023-04-17T11:50:45Z</time>
      </trkpt>
      <trkpt lat="44.81356" lon="1.57725">
        <ele>258.4</ele>
        <time>2023-04-17T11:55:09Z</time>
      </trkpt>
      <trkpt lat="44.81348" lon="1.57717">
        <ele>258.2</ele>
        <time>2023-04-17T11:55:21Z</time>
      </trkpt>
      <trkpt lat="44.81341" lon="1.57707">
        <ele>258.3</ele>
        <time>2023-04-17T11:55:33Z</time>
      </trkpt>
      <trkpt lat="44.81334" lon="1.57699">
        <ele>258.7</ele>
        <time>2023-04-17T11:55:43Z</time>
      </trkpt>
      <trkpt lat="44.81328" lon="1.57688">
        <ele>258.8</ele>
        <time>2023-04-17T11:55:53Z</time>
      </trkpt>
      <trkpt lat="44.81321" lon="1.57678">
        <ele>258.8</ele>
        <time>2023-04-17T11:56:03Z</time>
      </trkpt>
      <trkpt lat="44.81315" lon="1.57668">
        <ele>259</ele>
        <time>2023-04-17T11:56:13Z</time>
      </trkpt>
      <trkpt lat="44.81311" lon="1.57657">
        <ele>259.4</ele>
        <time>2023-04-17T11:56:23Z</time>
      </trkpt>
      <trkpt lat="44.81306" lon="1.57645">
        <ele>259.8</ele>
        <time>2023-04-17T11:56:33Z</time>
      </trkpt>
      <trkpt lat="44.81302" lon="1.57633">
        <ele>260.2</ele>
        <time>2023-04-17T11:56:42Z</time>
      </trkpt>
      <trkpt lat="44.81298" lon="1.57621">
        <ele>260.7</ele>
        <time>2023-04-17T11:56:51Z</time>
      </trkpt>
      <trkpt lat="44.81295" lon="1.57608">
        <ele>261</ele>
        <time>2023-04-17T11:57:00Z</time>
      </trkpt>
      <trkpt lat="44.81292" lon="1.57595">
        <ele>261.3</ele>
        <time>2023-04-17T11:57:10Z</time>
      </trkpt>
      <trkpt lat="44.81289" lon="1.57583">
        <ele>261.6</ele>
        <time>2023-04-17T11:57:20Z</time>
      </trkpt>
      <trkpt lat="44.81286" lon="1.57569">
        <ele>261.7</ele>
        <time>2023-04-17T11:57:30Z</time>
      </trkpt>
      <trkpt lat="44.81282" lon="1.57557">
        <ele>261.8</ele>
        <time>2023-04-17T11:57:39Z</time>
      </trkpt>
      <trkpt lat="44.81278" lon="1.57544">
        <ele>262</ele>
        <time>2023-04-17T11:57:49Z</time>
      </trkpt>
      <trkpt lat="44.81275" lon="1.57531">
        <ele>262.1</ele>
        <time>2023-04-17T11:57:58Z</time>
      </trkpt>
      <trkpt lat="44.81271" lon="1.57518">
        <ele>262.2</ele>
        <time>2023-04-17T11:58:07Z</time>
      </trkpt>
      <trkpt lat="44.81268" lon="1.57505">
        <ele>262.1</ele>
        <time>2023-04-17T11:58:16Z</time>
      </trkpt>
      <trkpt lat="44.81264" lon="1.57494">
        <ele>261.9</ele>
        <time>2023-04-17T11:58:25Z</time>
      </trkpt>
      <trkpt lat="44.8126" lon="1.57481">
        <ele>261.8</ele>
        <time>2023-04-17T11:58:35Z</time>
      </trkpt>
      <trkpt lat="44.81256" lon="1.57468">
        <ele>261.7</ele>
        <time>2023-04-17T11:58:45Z</time>
      </trkpt>
      <trkpt lat="44.81253" lon="1.57456">
        <ele>261.3</ele>
        <time>2023-04-17T11:58:53Z</time>
      </trkpt>
      <trkpt lat="44.81249" lon="1.57444">
        <ele>261</ele>
        <time>2023-04-17T11:59:01Z</time>
      </trkpt>
      <trkpt lat="44.81245" lon="1.57432">
        <ele>260.7</ele>
        <time>2023-04-17T11:59:10Z</time>
      </trkpt>
      <trkpt lat="44.81242" lon="1.5742">
        <ele>260.4</ele>
        <time>2023-04-17T11:59:19Z</time>
      </trkpt>
      <trkpt lat="44.81238" lon="1.57408">
        <ele>260.1</ele>
        <time>2023-04-17T11:59:28Z</time>
      </trkpt>
      <trkpt lat="44.81234" lon="1.57396">
        <ele>259.8</ele>
        <time>2023-04-17T11:59:38Z</time>
      </trkpt>
      <trkpt lat="44.8123" lon="1.57384">
        <ele>259.5</ele>
        <time>2023-04-17T11:59:47Z</time>
      </trkpt>
      <trkpt lat="44.81226" lon="1.57373">
        <ele>259.3</ele>
        <time>2023-04-17T12:00:45Z</time>
      </trkpt>
      <trkpt lat="44.81223" lon="1.57359">
        <ele>259</ele>
        <time>2023-04-17T12:01:06Z</time>
      </trkpt>
      <trkpt lat="44.81222" lon="1.57346">
        <ele>259</ele>
        <time>2023-04-17T12:01:17Z</time>
      </trkpt>
      <trkpt lat="44.81224" lon="1.57333">
        <ele>258.8</ele>
        <time>2023-04-17T12:01:27Z</time>
      </trkpt>
      <trkpt lat="44.81228" lon="1.5732">
        <ele>258.6</ele>
        <time>2023-04-17T12:01:36Z</time>
      </trkpt>
      <trkpt lat="44.81231" lon="1.57308">
        <ele>258.4</ele>
        <time>2023-04-17T12:01:44Z</time>
      </trkpt>
      <trkpt lat="44.81234" lon="1.57295">
        <ele>258.5</ele>
        <time>2023-04-17T12:01:52Z</time>
      </trkpt>
      <trkpt lat="44.81236" lon="1.57282">
        <ele>258.9</ele>
        <time>2023-04-17T12:02:01Z</time>
      </trkpt>
      <trkpt lat="44.81238" lon="1.5727">
        <ele>259</ele>
        <time>2023-04-17T12:02:17Z</time>
      </trkpt>
      <trkpt lat="44.81242" lon="1.57258">
        <ele>259.1</ele>
        <time>2023-04-17T12:02:25Z</time>
      </trkpt>
      <trkpt lat="44.81246" lon="1.57245">
        <ele>259.3</ele>
        <time>2023-04-17T12:02:34Z</time>
      </trkpt>
      <trkpt lat="44.81249" lon="1.57232">
        <ele>259.7</ele>
        <time>2023-04-17T12:02:43Z</time>
      </trkpt>
      <trkpt lat="44.81253" lon="1.5722">
        <ele>259.9</ele>
        <time>2023-04-17T12:02:52Z</time>
      </trkpt>
      <trkpt lat="44.81257" lon="1.57208">
        <ele>260</ele>
        <time>2023-04-17T12:03:01Z</time>
      </trkpt>
      <trkpt lat="44.8126" lon="1.57196">
        <ele>260.2</ele>
        <time>2023-04-17T12:03:10Z</time>
      </trkpt>
      <trkpt lat="44.81264" lon="1.57184">
        <ele>260.2</ele>
        <time>2023-04-17T12:03:19Z</time>
      </trkpt>
      <trkpt lat="44.81267" lon="1.5717">
        <ele>260.3</ele>
        <time>2023-04-17T12:03:28Z</time>
      </trkpt>
      <trkpt lat="44.81271" lon="1.57157">
        <ele>260.6</ele>
        <time>2023-04-17T12:03:37Z</time>
      </trkpt>
      <trkpt lat="44.81275" lon="1.57145">
        <ele>260.9</ele>
        <time>2023-04-17T12:03:45Z</time>
      </trkpt>
      <trkpt lat="44.81278" lon="1.57133">
        <ele>261.2</ele>
        <time>2023-04-17T12:03:53Z</time>
      </trkpt>
      <trkpt lat="44.81281" lon="1.57119">
        <ele>261.5</ele>
        <time>2023-04-17T12:04:02Z</time>
      </trkpt>
      <trkpt lat="44.81285" lon="1.57106">
        <ele>261.6</ele>
        <time>2023-04-17T12:04:10Z</time>
      </trkpt>
      <trkpt lat="44.81289" lon="1.57094">
        <ele>261.8</ele>
        <time>2023-04-17T12:04:18Z</time>
      </trkpt>
      <trkpt lat="44.81293" lon="1.57081">
        <ele>261.9</ele>
        <time>2023-04-17T12:04:27Z</time>
      </trkpt>
      <trkpt lat="44.81298" lon="1.5707">
        <ele>261.9</ele>
        <time>2023-04-17T12:04:35Z</time>
      </trkpt>
      <trkpt lat="44.81303" lon="1.57058">
        <ele>262</ele>
        <time>2023-04-17T12:04:44Z</time>
      </trkpt>
      <trkpt lat="44.81309" lon="1.57048">
        <ele>262</ele>
        <time>2023-04-17T12:04:55Z</time>
      </trkpt>
      <trkpt lat="44.81312" lon="1.57034">
        <ele>262.2</ele>
        <time>2023-04-17T12:05:04Z</time>
      </trkpt>
      <trkpt lat="44.81317" lon="1.57025">
        <ele>261.7</ele>
        <time>2023-04-17T12:05:11Z</time>
      </trkpt>
      <trkpt lat="44.81322" lon="1.57013">
        <ele>261.3</ele>
        <time>2023-04-17T12:05:19Z</time>
      </trkpt>
      <trkpt lat="44.81327" lon="1.57002">
        <ele>261.2</ele>
        <time>2023-04-17T12:05:28Z</time>
      </trkpt>
      <trkpt lat="44.81331" lon="1.5699">
        <ele>261.1</ele>
        <time>2023-04-17T12:05:36Z</time>
      </trkpt>
      <trkpt lat="44.81334" lon="1.56977">
        <ele>261</ele>
        <time>2023-04-17T12:05:44Z</time>
      </trkpt>
      <trkpt lat="44.81338" lon="1.56964">
        <ele>260.7</ele>
        <time>2023-04-17T12:05:53Z</time>
      </trkpt>
      <trkpt lat="44.81342" lon="1.56953">
        <ele>260.4</ele>
        <time>2023-04-17T12:06:01Z</time>
      </trkpt>
      <trkpt lat="44.81346" lon="1.56941">
        <ele>260.1</ele>
        <time>2023-04-17T12:06:10Z</time>
      </trkpt>
      <trkpt lat="44.81351" lon="1.5693">
        <ele>259.7</ele>
        <time>2023-04-17T12:06:20Z</time>
      </trkpt>
      <trkpt lat="44.81357" lon="1.56918">
        <ele>259.3</ele>
        <time>2023-04-17T12:06:28Z</time>
      </trkpt>
      <trkpt lat="44.81363" lon="1.56908">
        <ele>258.8</ele>
        <time>2023-04-17T12:06:36Z</time>
      </trkpt>
      <trkpt lat="44.81368" lon="1.56897">
        <ele>258.3</ele>
        <time>2023-04-17T12:06:44Z</time>
      </trkpt>
      <trkpt lat="44.81373" lon="1.56884">
        <ele>257.6</ele>
        <time>2023-04-17T12:06:53Z</time>
      </trkpt>
      <trkpt lat="44.81378" lon="1.56873">
        <ele>256.9</ele>
        <time>2023-04-17T12:07:15Z</time>
      </trkpt>
      <trkpt lat="44.81386" lon="1.56864">
        <ele>256.2</ele>
        <time>2023-04-17T12:07:24Z</time>
      </trkpt>
      <trkpt lat="44.81395" lon="1.56858">
        <ele>255.5</ele>
        <time>2023-04-17T12:07:34Z</time>
      </trkpt>
      <trkpt lat="44.81404" lon="1.56853">
        <ele>254.9</ele>
        <time>2023-04-17T12:07:43Z</time>
      </trkpt>
      <trkpt lat="44.81413" lon="1.56848">
        <ele>254.2</ele>
        <time>2023-04-17T12:07:51Z</time>
      </trkpt>
      <trkpt lat="44.81421" lon="1.56842">
        <ele>253.5</ele>
        <time>2023-04-17T12:07:59Z</time>
      </trkpt>
      <trkpt lat="44.81429" lon="1.56835">
        <ele>252.6</ele>
        <time>2023-04-17T12:08:08Z</time>
      </trkpt>
      <trkpt lat="44.81437" lon="1.56827">
        <ele>251.7</ele>
        <time>2023-04-17T12:08:43Z</time>
      </trkpt>
      <trkpt lat="44.81444" lon="1.56817">
        <ele>251.1</ele>
        <time>2023-04-17T12:09:03Z</time>
      </trkpt>
      <trkpt lat="44.81451" lon="1.5681">
        <ele>250.3</ele>
        <time>2023-04-17T12:09:12Z</time>
      </trkpt>
      <trkpt lat="44.81459" lon="1.56803">
        <ele>249.4</ele>
        <time>2023-04-17T12:09:21Z</time>
      </trkpt>
      <trkpt lat="44.81467" lon="1.56795">
        <ele>248.5</ele>
        <time>2023-04-17T12:09:31Z</time>
      </trkpt>
      <trkpt lat="44.81475" lon="1.56787">
        <ele>247.7</ele>
        <time>2023-04-17T12:09:41Z</time>
      </trkpt>
      <trkpt lat="44.81483" lon="1.5678">
        <ele>246.8</ele>
        <time>2023-04-17T12:09:50Z</time>
      </trkpt>
      <trkpt lat="44.8149" lon="1.56771">
        <ele>245.9</ele>
        <time>2023-04-17T12:09:58Z</time>
      </trkpt>
      <trkpt lat="44.81497" lon="1.56762">
        <ele>244.8</ele>
        <time>2023-04-17T12:10:06Z</time>
      </trkpt>
      <trkpt lat="44.81504" lon="1.56753">
        <ele>243.7</ele>
        <time>2023-04-17T12:10:14Z</time>
      </trkpt>
      <trkpt lat="44.81511" lon="1.56745">
        <ele>242.7</ele>
        <time>2023-04-17T12:10:22Z</time>
      </trkpt>
      <trkpt lat="44.81518" lon="1.56736">
        <ele>241.7</ele>
        <time>2023-04-17T12:10:30Z</time>
      </trkpt>
      <trkpt lat="44.81523" lon="1.56725">
        <ele>240.7</ele>
        <time>2023-04-17T12:10:38Z</time>
      </trkpt>
      <trkpt lat="44.81529" lon="1.56714">
        <ele>240.2</ele>
        <time>2023-04-17T12:10:47Z</time>
      </trkpt>
      <trkpt lat="44.81534" lon="1.56704">
        <ele>239.9</ele>
        <time>2023-04-17T12:10:56Z</time>
      </trkpt>
      <trkpt lat="44.81538" lon="1.56692">
        <ele>239.3</ele>
        <time>2023-04-17T12:11:05Z</time>
      </trkpt>
      <trkpt lat="44.81543" lon="1.56681">
        <ele>238.1</ele>
        <time>2023-04-17T12:11:13Z</time>
      </trkpt>
      <trkpt lat="44.81548" lon="1.56669">
        <ele>237</ele>
        <time>2023-04-17T12:11:22Z</time>
      </trkpt>
      <trkpt lat="44.81553" lon="1.56658">
        <ele>236</ele>
        <time>2023-04-17T12:11:31Z</time>
      </trkpt>
      <trkpt lat="44.81556" lon="1.56646">
        <ele>235.2</ele>
        <time>2023-04-17T12:11:40Z</time>
      </trkpt>
      <trkpt lat="44.81562" lon="1.56635">
        <ele>234</ele>
        <time>2023-04-17T12:11:50Z</time>
      </trkpt>
      <trkpt lat="44.81568" lon="1.56625">
        <ele>232.8</ele>
        <time>2023-04-17T12:12:04Z</time>
      </trkpt>
      <trkpt lat="44.81574" lon="1.56615">
        <ele>231.8</ele>
        <time>2023-04-17T12:12:40Z</time>
      </trkpt>
      <trkpt lat="44.81582" lon="1.56609">
        <ele>230.8</ele>
        <time>2023-04-17T12:13:48Z</time>
      </trkpt>
      <trkpt lat="44.81591" lon="1.56601">
        <ele>229.1</ele>
        <time>2023-04-17T12:13:59Z</time>
      </trkpt>
      <trkpt lat="44.81599" lon="1.56595">
        <ele>227.7</ele>
        <time>2023-04-17T12:14:08Z</time>
      </trkpt>
      <trkpt lat="44.81607" lon="1.56589">
        <ele>226.6</ele>
        <time>2023-04-17T12:14:17Z</time>
      </trkpt>
      <trkpt lat="44.81616" lon="1.56584">
        <ele>225.3</ele>
        <time>2023-04-17T12:14:30Z</time>
      </trkpt>
      <trkpt lat="44.81624" lon="1.56577">
        <ele>223.4</ele>
        <time>2023-04-17T12:14:41Z</time>
      </trkpt>
      <trkpt lat="44.81634" lon="1.56576">
        <ele>221.9</ele>
        <time>2023-04-17T12:15:00Z</time>
      </trkpt>
      <trkpt lat="44.81643" lon="1.56574">
        <ele>220.2</ele>
        <time>2023-04-17T12:17:01Z</time>
      </trkpt>
      <trkpt lat="44.81653" lon="1.56576">
        <ele>218.8</ele>
        <time>2023-04-17T12:17:12Z</time>
      </trkpt>
      <trkpt lat="44.81661" lon="1.56582">
        <ele>217.9</ele>
        <time>2023-04-17T12:17:21Z</time>
      </trkpt>
      <trkpt lat="44.8167" lon="1.56588">
        <ele>216.4</ele>
        <time>2023-04-17T12:17:31Z</time>
      </trkpt>
      <trkpt lat="44.81676" lon="1.566">
        <ele>215.6</ele>
        <time>2023-04-17T12:17:40Z</time>
      </trkpt>
      <trkpt lat="44.81681" lon="1.5661">
        <ele>214.7</ele>
        <time>2023-04-17T12:17:48Z</time>
      </trkpt>
      <trkpt lat="44.81688" lon="1.56619">
        <ele>213.1</ele>
        <time>2023-04-17T12:17:57Z</time>
      </trkpt>
      <trkpt lat="44.81693" lon="1.5663">
        <ele>212</ele>
        <time>2023-04-17T12:18:05Z</time>
      </trkpt>
      <trkpt lat="44.81699" lon="1.56641">
        <ele>210.8</ele>
        <time>2023-04-17T12:18:16Z</time>
      </trkpt>
      <trkpt lat="44.81705" lon="1.56653">
        <ele>209.6</ele>
        <time>2023-04-17T12:18:27Z</time>
      </trkpt>
      <trkpt lat="44.8171" lon="1.56664">
        <ele>208.5</ele>
        <time>2023-04-17T12:18:37Z</time>
      </trkpt>
      <trkpt lat="44.81712" lon="1.56677">
        <ele>207.7</ele>
        <time>2023-04-17T12:18:46Z</time>
      </trkpt>
      <trkpt lat="44.81716" lon="1.56689">
        <ele>206.5</ele>
        <time>2023-04-17T12:18:55Z</time>
      </trkpt>
      <trkpt lat="44.81718" lon="1.56702">
        <ele>205.8</ele>
        <time>2023-04-17T12:19:05Z</time>
      </trkpt>
      <trkpt lat="44.81716" lon="1.56716">
        <ele>205.9</ele>
        <time>2023-04-17T12:19:14Z</time>
      </trkpt>
      <trkpt lat="44.81712" lon="1.56728">
        <ele>205.5</ele>
        <time>2023-04-17T12:19:21Z</time>
      </trkpt>
      <trkpt lat="44.81707" lon="1.56739">
        <ele>204.9</ele>
        <time>2023-04-17T12:19:29Z</time>
      </trkpt>
      <trkpt lat="44.81701" lon="1.56751">
        <ele>204.5</ele>
        <time>2023-04-17T12:19:37Z</time>
      </trkpt>
      <trkpt lat="44.81696" lon="1.56761">
        <ele>203.1</ele>
        <time>2023-04-17T12:19:45Z</time>
      </trkpt>
      <trkpt lat="44.81689" lon="1.56772">
        <ele>201.8</ele>
        <time>2023-04-17T12:19:54Z</time>
      </trkpt>
      <trkpt lat="44.81683" lon="1.56782">
        <ele>201.3</ele>
        <time>2023-04-17T12:20:01Z</time>
      </trkpt>
      <trkpt lat="44.81677" lon="1.56793">
        <ele>200</ele>
        <time>2023-04-17T12:20:08Z</time>
      </trkpt>
      <trkpt lat="44.81673" lon="1.56806">
        <ele>197.8</ele>
        <time>2023-04-17T12:20:17Z</time>
      </trkpt>
      <trkpt lat="44.81666" lon="1.56815">
        <ele>197.7</ele>
        <time>2023-04-17T12:20:26Z</time>
      </trkpt>
      <trkpt lat="44.81659" lon="1.56825">
        <ele>197.5</ele>
        <time>2023-04-17T12:20:34Z</time>
      </trkpt>
      <trkpt lat="44.81652" lon="1.56836">
        <ele>197.4</ele>
        <time>2023-04-17T12:20:43Z</time>
      </trkpt>
      <trkpt lat="44.81655" lon="1.56849">
        <ele>195.5</ele>
        <time>2023-04-17T12:20:54Z</time>
      </trkpt>
      <trkpt lat="44.81665" lon="1.56846">
        <ele>193.4</ele>
        <time>2023-04-17T12:21:02Z</time>
      </trkpt>
      <trkpt lat="44.81673" lon="1.56842">
        <ele>193.4</ele>
        <time>2023-04-17T12:21:09Z</time>
      </trkpt>
      <trkpt lat="44.81683" lon="1.56837">
        <ele>193.7</ele>
        <time>2023-04-17T12:21:16Z</time>
      </trkpt>
      <trkpt lat="44.81692" lon="1.5683">
        <ele>193.5</ele>
        <time>2023-04-17T12:21:23Z</time>
      </trkpt>
      <trkpt lat="44.817" lon="1.56823">
        <ele>193.1</ele>
        <time>2023-04-17T12:21:30Z</time>
      </trkpt>
      <trkpt lat="44.81709" lon="1.56816">
        <ele>192.9</ele>
        <time>2023-04-17T12:21:39Z</time>
      </trkpt>
      <trkpt lat="44.81717" lon="1.56811">
        <ele>192.1</ele>
        <time>2023-04-17T12:21:46Z</time>
      </trkpt>
      <trkpt lat="44.81726" lon="1.56805">
        <ele>191</ele>
        <time>2023-04-17T12:21:56Z</time>
      </trkpt>
      <trkpt lat="44.81735" lon="1.56799">
        <ele>190.4</ele>
        <time>2023-04-17T12:22:11Z</time>
      </trkpt>
      <trkpt lat="44.81744" lon="1.56794">
        <ele>189.9</ele>
        <time>2023-04-17T12:22:31Z</time>
      </trkpt>
      <trkpt lat="44.81753" lon="1.56792">
        <ele>189.4</ele>
        <time>2023-04-17T12:22:39Z</time>
      </trkpt>
      <trkpt lat="44.81763" lon="1.56789">
        <ele>188.7</ele>
        <time>2023-04-17T12:22:46Z</time>
      </trkpt>
      <trkpt lat="44.81773" lon="1.56789">
        <ele>188.4</ele>
        <time>2023-04-17T12:22:55Z</time>
      </trkpt>
      <trkpt lat="44.81782" lon="1.56784">
        <ele>188.5</ele>
        <time>2023-04-17T12:23:02Z</time>
      </trkpt>
      <trkpt lat="44.81791" lon="1.56778">
        <ele>189.4</ele>
        <time>2023-04-17T12:23:09Z</time>
      </trkpt>
      <trkpt lat="44.81797" lon="1.56767">
        <ele>189.5</ele>
        <time>2023-04-17T12:23:16Z</time>
      </trkpt>
      <trkpt lat="44.81804" lon="1.56756">
        <ele>188.8</ele>
        <time>2023-04-17T12:23:24Z</time>
      </trkpt>
      <trkpt lat="44.81807" lon="1.56742">
        <ele>187.7</ele>
        <time>2023-04-17T12:23:31Z</time>
      </trkpt>
      <trkpt lat="44.8181" lon="1.56729">
        <ele>187.8</ele>
        <time>2023-04-17T12:23:38Z</time>
      </trkpt>
      <trkpt lat="44.81813" lon="1.56716">
        <ele>188.2</ele>
        <time>2023-04-17T12:23:45Z</time>
      </trkpt>
      <trkpt lat="44.81816" lon="1.56702">
        <ele>188.2</ele>
        <time>2023-04-17T12:23:53Z</time>
      </trkpt>
      <trkpt lat="44.81819" lon="1.5669">
        <ele>188.6</ele>
        <time>2023-04-17T12:24:00Z</time>
      </trkpt>
      <trkpt lat="44.8182" lon="1.56676">
        <ele>187.8</ele>
        <time>2023-04-17T12:24:09Z</time>
      </trkpt>
      <trkpt lat="44.81824" lon="1.56662">
        <ele>187.1</ele>
        <time>2023-04-17T12:24:17Z</time>
      </trkpt>
      <trkpt lat="44.81827" lon="1.56649">
        <ele>185.4</ele>
        <time>2023-04-17T12:24:25Z</time>
      </trkpt>
      <trkpt lat="44.81831" lon="1.56637">
        <ele>183.2</ele>
        <time>2023-04-17T12:24:32Z</time>
      </trkpt>
      <trkpt lat="44.81835" lon="1.56624">
        <ele>182.7</ele>
        <time>2023-04-17T12:24:40Z</time>
      </trkpt>
      <trkpt lat="44.8184" lon="1.56612">
        <ele>184.4</ele>
        <time>2023-04-17T12:24:48Z</time>
      </trkpt>
      <trkpt lat="44.81844" lon="1.56599">
        <ele>185.3</ele>
        <time>2023-04-17T12:25:01Z</time>
      </trkpt>
      <trkpt lat="44.81848" lon="1.56587">
        <ele>185.5</ele>
        <time>2023-04-17T12:25:09Z</time>
      </trkpt>
      <trkpt lat="44.81851" lon="1.56575">
        <ele>184.8</ele>
        <time>2023-04-17T12:25:17Z</time>
      </trkpt>
      <trkpt lat="44.81854" lon="1.56562">
        <ele>183.5</ele>
        <time>2023-04-17T12:25:25Z</time>
      </trkpt>
      <trkpt lat="44.81857" lon="1.5655">
        <ele>182</ele>
        <time>2023-04-17T12:25:33Z</time>
      </trkpt>
      <trkpt lat="44.8186" lon="1.56537">
        <ele>180.8</ele>
        <time>2023-04-17T12:25:56Z</time>
      </trkpt>
      <trkpt lat="44.81858" lon="1.56525">
        <ele>180.4</ele>
        <time>2023-04-17T12:26:04Z</time>
      </trkpt>
      <trkpt lat="44.81856" lon="1.56512">
        <ele>180.9</ele>
        <time>2023-04-17T12:26:11Z</time>
      </trkpt>
      <trkpt lat="44.8185" lon="1.56501">
        <ele>180.4</ele>
        <time>2023-04-17T12:26:19Z</time>
      </trkpt>
      <trkpt lat="44.81844" lon="1.56489">
        <ele>180.6</ele>
        <time>2023-04-17T12:26:27Z</time>
      </trkpt>
      <trkpt lat="44.81839" lon="1.56479">
        <ele>179.3</ele>
        <time>2023-04-17T12:26:34Z</time>
      </trkpt>
      <trkpt lat="44.81834" lon="1.56468">
        <ele>177.5</ele>
        <time>2023-04-17T12:26:42Z</time>
      </trkpt>
      <trkpt lat="44.81831" lon="1.56455">
        <ele>177.6</ele>
        <time>2023-04-17T12:26:50Z</time>
      </trkpt>
      <trkpt lat="44.81826" lon="1.56442">
        <ele>177.9</ele>
        <time>2023-04-17T12:26:58Z</time>
      </trkpt>
      <trkpt lat="44.81823" lon="1.5643">
        <ele>178.2</ele>
        <time>2023-04-17T12:27:05Z</time>
      </trkpt>
      <trkpt lat="44.8182" lon="1.56417">
        <ele>178.1</ele>
        <time>2023-04-17T12:27:13Z</time>
      </trkpt>
      <trkpt lat="44.81815" lon="1.56407">
        <ele>176.8</ele>
        <time>2023-04-17T12:27:20Z</time>
      </trkpt>
      <trkpt lat="44.81809" lon="1.56396">
        <ele>174.6</ele>
        <time>2023-04-17T12:27:28Z</time>
      </trkpt>
      <trkpt lat="44.81801" lon="1.56387">
        <ele>173.6</ele>
        <time>2023-04-17T12:27:36Z</time>
      </trkpt>
      <trkpt lat="44.81794" lon="1.56379">
        <ele>174.5</ele>
        <time>2023-04-17T12:27:44Z</time>
      </trkpt>
      <trkpt lat="44.81786" lon="1.5637">
        <ele>173.7</ele>
        <time>2023-04-17T12:27:52Z</time>
      </trkpt>
      <trkpt lat="44.81778" lon="1.56362">
        <ele>171.2</ele>
        <time>2023-04-17T12:28:00Z</time>
      </trkpt>
      <trkpt lat="44.8177" lon="1.56354">
        <ele>172.9</ele>
        <time>2023-04-17T12:28:08Z</time>
      </trkpt>
      <trkpt lat="44.81763" lon="1.56345">
        <ele>173.5</ele>
        <time>2023-04-17T12:28:16Z</time>
      </trkpt>
      <trkpt lat="44.81757" lon="1.56334">
        <ele>172.6</ele>
        <time>2023-04-17T12:28:25Z</time>
      </trkpt>
      <trkpt lat="44.81752" lon="1.56322">
        <ele>170.7</ele>
        <time>2023-04-17T12:28:34Z</time>
      </trkpt>
      <trkpt lat="44.81749" lon="1.5631">
        <ele>169.6</ele>
        <time>2023-04-17T12:28:42Z</time>
      </trkpt>
      <trkpt lat="44.81747" lon="1.56295">
        <ele>169.6</ele>
        <time>2023-04-17T12:28:50Z</time>
      </trkpt>
      <trkpt lat="44.81747" lon="1.56282">
        <ele>169.6</ele>
        <time>2023-04-17T12:28:57Z</time>
      </trkpt>
      <trkpt lat="44.81746" lon="1.56269">
        <ele>169.3</ele>
        <time>2023-04-17T12:29:05Z</time>
      </trkpt>
      <trkpt lat="44.81747" lon="1.56256">
        <ele>168.8</ele>
        <time>2023-04-17T12:29:13Z</time>
      </trkpt>
      <trkpt lat="44.81746" lon="1.56243">
        <ele>168.6</ele>
        <time>2023-04-17T12:29:20Z</time>
      </trkpt>
      <trkpt lat="44.81747" lon="1.56229">
        <ele>168.5</ele>
        <time>2023-04-17T12:29:28Z</time>
      </trkpt>
      <trkpt lat="44.81747" lon="1.56215">
        <ele>168.2</ele>
        <time>2023-04-17T12:29:37Z</time>
      </trkpt>
      <trkpt lat="44.81749" lon="1.56203">
        <ele>167.5</ele>
        <time>2023-04-17T12:29:44Z</time>
      </trkpt>
      <trkpt lat="44.81746" lon="1.5619">
        <ele>166.7</ele>
        <time>2023-04-17T12:29:51Z</time>
      </trkpt>
      <trkpt lat="44.81743" lon="1.56178">
        <ele>165</ele>
        <time>2023-04-17T12:29:58Z</time>
      </trkpt>
      <trkpt lat="44.81739" lon="1.56167">
        <ele>163.8</ele>
        <time>2023-04-17T12:30:05Z</time>
      </trkpt>
      <trkpt lat="44.81735" lon="1.56155">
        <ele>163.2</ele>
        <time>2023-04-17T12:30:13Z</time>
      </trkpt>
      <trkpt lat="44.81732" lon="1.56142">
        <ele>162.5</ele>
        <time>2023-04-17T12:30:20Z</time>
      </trkpt>
      <trkpt lat="44.81728" lon="1.5613">
        <ele>162.3</ele>
        <time>2023-04-17T12:30:29Z</time>
      </trkpt>
      <trkpt lat="44.81722" lon="1.56119">
        <ele>162.8</ele>
        <time>2023-04-17T12:30:37Z</time>
      </trkpt>
      <trkpt lat="44.81716" lon="1.56109">
        <ele>162.1</ele>
        <time>2023-04-17T12:30:45Z</time>
      </trkpt>
      <trkpt lat="44.81709" lon="1.56099">
        <ele>160.9</ele>
        <time>2023-04-17T12:30:54Z</time>
      </trkpt>
      <trkpt lat="44.81702" lon="1.5609">
        <ele>159.7</ele>
        <time>2023-04-17T12:31:02Z</time>
      </trkpt>
      <trkpt lat="44.81694" lon="1.56081">
        <ele>158.5</ele>
        <time>2023-04-17T12:31:10Z</time>
      </trkpt>
      <trkpt lat="44.81686" lon="1.56074">
        <ele>157</ele>
        <time>2023-04-17T12:31:18Z</time>
      </trkpt>
      <trkpt lat="44.81678" lon="1.56068">
        <ele>155.9</ele>
        <time>2023-04-17T12:31:26Z</time>
      </trkpt>
      <trkpt lat="44.8167" lon="1.56062">
        <ele>155</ele>
        <time>2023-04-17T12:31:34Z</time>
      </trkpt>
      <trkpt lat="44.8166" lon="1.56056">
        <ele>153.9</ele>
        <time>2023-04-17T12:31:42Z</time>
      </trkpt>
      <trkpt lat="44.81651" lon="1.56052">
        <ele>152.7</ele>
        <time>2023-04-17T12:31:50Z</time>
      </trkpt>
      <trkpt lat="44.81642" lon="1.56048">
        <ele>151.3</ele>
        <time>2023-04-17T12:31:58Z</time>
      </trkpt>
      <trkpt lat="44.81632" lon="1.56044">
        <ele>150.1</ele>
        <time>2023-04-17T12:32:06Z</time>
      </trkpt>
      <trkpt lat="44.81623" lon="1.56041">
        <ele>149.1</ele>
        <time>2023-04-17T12:32:13Z</time>
      </trkpt>
      <trkpt lat="44.81614" lon="1.56039">
        <ele>148.2</ele>
        <time>2023-04-17T12:32:33Z</time>
      </trkpt>
      <trkpt lat="44.81604" lon="1.56036">
        <ele>146.9</ele>
        <time>2023-04-17T12:32:42Z</time>
      </trkpt>
      <trkpt lat="44.81595" lon="1.56037">
        <ele>146.2</ele>
        <time>2023-04-17T12:32:50Z</time>
      </trkpt>
      <trkpt lat="44.81586" lon="1.56035">
        <ele>145.2</ele>
        <time>2023-04-17T12:32:57Z</time>
      </trkpt>
      <trkpt lat="44.81576" lon="1.56033">
        <ele>144.1</ele>
        <time>2023-04-17T12:33:04Z</time>
      </trkpt>
      <trkpt lat="44.81567" lon="1.56032">
        <ele>143.8</ele>
        <time>2023-04-17T12:33:12Z</time>
      </trkpt>
      <trkpt lat="44.81558" lon="1.5603">
        <ele>143</ele>
        <time>2023-04-17T12:33:19Z</time>
      </trkpt>
      <trkpt lat="44.81549" lon="1.56026">
        <ele>142</ele>
        <time>2023-04-17T12:33:27Z</time>
      </trkpt>
      <trkpt lat="44.81541" lon="1.56021">
        <ele>142.4</ele>
        <time>2023-04-17T12:33:34Z</time>
      </trkpt>
      <trkpt lat="44.81532" lon="1.56019">
        <ele>142.1</ele>
        <time>2023-04-17T12:33:42Z</time>
      </trkpt>
      <trkpt lat="44.81521" lon="1.56021">
        <ele>141.4</ele>
        <time>2023-04-17T12:33:50Z</time>
      </trkpt>
      <trkpt lat="44.81512" lon="1.5602">
        <ele>141.1</ele>
        <time>2023-04-17T12:33:58Z</time>
      </trkpt>
      <trkpt lat="44.81503" lon="1.56022">
        <ele>139.9</ele>
        <time>2023-04-17T12:34:06Z</time>
      </trkpt>
      <trkpt lat="44.81494" lon="1.56028">
        <ele>138.8</ele>
        <time>2023-04-17T12:34:14Z</time>
      </trkpt>
      <trkpt lat="44.81484" lon="1.56033">
        <ele>139.8</ele>
        <time>2023-04-17T12:34:21Z</time>
      </trkpt>
      <trkpt lat="44.81476" lon="1.5604">
        <ele>139.5</ele>
        <time>2023-04-17T12:35:59Z</time>
      </trkpt>
      <trkpt lat="44.81468" lon="1.56046">
        <ele>138.1</ele>
        <time>2023-04-17T12:36:06Z</time>
      </trkpt>
      <trkpt lat="44.81458" lon="1.56048">
        <ele>136.9</ele>
        <time>2023-04-17T12:36:15Z</time>
      </trkpt>
      <trkpt lat="44.81448" lon="1.56048">
        <ele>136.1</ele>
        <time>2023-04-17T12:36:23Z</time>
      </trkpt>
      <trkpt lat="44.81438" lon="1.56048">
        <ele>133.3</ele>
        <time>2023-04-17T12:36:30Z</time>
      </trkpt>
      <trkpt lat="44.81429" lon="1.56048">
        <ele>130</ele>
        <time>2023-04-17T12:36:38Z</time>
      </trkpt>
      <trkpt lat="44.81422" lon="1.56058">
        <ele>127.2</ele>
        <time>2023-04-17T12:36:45Z</time>
      </trkpt>
      <trkpt lat="44.81415" lon="1.56067">
        <ele>127.5</ele>
        <time>2023-04-17T12:36:53Z</time>
      </trkpt>
      <trkpt lat="44.81406" lon="1.56071">
        <ele>127</ele>
        <time>2023-04-17T12:37:03Z</time>
      </trkpt>
      <trkpt lat="44.81397" lon="1.56066">
        <ele>124.4</ele>
        <time>2023-04-17T12:37:13Z</time>
      </trkpt>
      <trkpt lat="44.81388" lon="1.5606">
        <ele>121.4</ele>
        <time>2023-04-17T12:37:23Z</time>
      </trkpt>
      <trkpt lat="44.8138" lon="1.56055">
        <ele>120.1</ele>
        <time>2023-04-17T12:37:33Z</time>
      </trkpt>
      <trkpt lat="44.81372" lon="1.56048">
        <ele>119</ele>
        <time>2023-04-17T12:37:43Z</time>
      </trkpt>
      <trkpt lat="44.81365" lon="1.56038">
        <ele>116.7</ele>
        <time>2023-04-17T12:37:53Z</time>
      </trkpt>
      <trkpt lat="44.81359" lon="1.56029">
        <ele>114.9</ele>
        <time>2023-04-17T12:38:03Z</time>
      </trkpt>
      <trkpt lat="44.81352" lon="1.56019">
        <ele>115.3</ele>
        <time>2023-04-17T12:38:14Z</time>
      </trkpt>
      <trkpt lat="44.81347" lon="1.56008">
        <ele>114.2</ele>
        <time>2023-04-17T12:38:42Z</time>
      </trkpt>
      <trkpt lat="44.81341" lon="1.55998">
        <ele>112.5</ele>
        <time>2023-04-17T12:38:51Z</time>
      </trkpt>
      <trkpt lat="44.81335" lon="1.55986">
        <ele>111.5</ele>
        <time>2023-04-17T12:39:00Z</time>
      </trkpt>
      <trkpt lat="44.81326" lon="1.5598">
        <ele>110.6</ele>
        <time>2023-04-17T12:39:08Z</time>
      </trkpt>
      <trkpt lat="44.81316" lon="1.55977">
        <ele>109.9</ele>
        <time>2023-04-17T12:39:15Z</time>
      </trkpt>
      <trkpt lat="44.81308" lon="1.55972">
        <ele>108.2</ele>
        <time>2023-04-17T12:39:21Z</time>
      </trkpt>
      <trkpt lat="44.81298" lon="1.55975">
        <ele>107.8</ele>
        <time>2023-04-17T12:39:28Z</time>
      </trkpt>
      <trkpt lat="44.81289" lon="1.5598">
        <ele>107.9</ele>
        <time>2023-04-17T12:39:35Z</time>
      </trkpt>
      <trkpt lat="44.8128" lon="1.55985">
        <ele>107.7</ele>
        <time>2023-04-17T12:39:42Z</time>
      </trkpt>
      <trkpt lat="44.81272" lon="1.5599">
        <ele>107.7</ele>
        <time>2023-04-17T12:39:49Z</time>
      </trkpt>
      <trkpt lat="44.81263" lon="1.55995">
        <ele>107.3</ele>
        <time>2023-04-17T12:39:57Z</time>
      </trkpt>
      <trkpt lat="44.81255" lon="1.56">
        <ele>106.7</ele>
        <time>2023-04-17T12:40:04Z</time>
      </trkpt>
      <trkpt lat="44.81248" lon="1.56011">
        <ele>108.1</ele>
        <time>2023-04-17T12:40:12Z</time>
      </trkpt>
      <trkpt lat="44.8124" lon="1.5602">
        <ele>108.8</ele>
        <time>2023-04-17T12:40:20Z</time>
      </trkpt>
      <trkpt lat="44.81231" lon="1.56024">
        <ele>108</ele>
        <time>2023-04-17T12:40:28Z</time>
      </trkpt>
      <trkpt lat="44.81223" lon="1.56029">
        <ele>107.5</ele>
        <time>2023-04-17T12:40:36Z</time>
      </trkpt>
      <trkpt lat="44.81215" lon="1.56037">
        <ele>108.1</ele>
        <time>2023-04-17T12:40:44Z</time>
      </trkpt>
      <trkpt lat="44.81207" lon="1.56043">
        <ele>107.9</ele>
        <time>2023-04-17T12:40:51Z</time>
      </trkpt>
      <trkpt lat="44.81201" lon="1.56053">
        <ele>108.1</ele>
        <time>2023-04-17T12:40:59Z</time>
      </trkpt>
      <trkpt lat="44.81194" lon="1.56063">
        <ele>108.7</ele>
        <time>2023-04-17T12:41:08Z</time>
      </trkpt>
      <trkpt lat="44.81187" lon="1.56072">
        <ele>109.2</ele>
        <time>2023-04-17T12:41:17Z</time>
      </trkpt>
      <trkpt lat="44.81179" lon="1.5608">
        <ele>109.1</ele>
        <time>2023-04-17T12:41:25Z</time>
      </trkpt>
      <trkpt lat="44.81169" lon="1.56084">
        <ele>108.4</ele>
        <time>2023-04-17T12:41:35Z</time>
      </trkpt>
      <trkpt lat="44.81162" lon="1.56076">
        <ele>106.4</ele>
        <time>2023-04-17T12:41:45Z</time>
      </trkpt>
      <trkpt lat="44.81155" lon="1.56068">
        <ele>105.6</ele>
        <time>2023-04-17T12:42:05Z</time>
      </trkpt>
      <trkpt lat="44.81146" lon="1.56075">
        <ele>106.6</ele>
        <time>2023-04-17T12:45:16Z</time>
      </trkpt>
      <trkpt lat="44.81138" lon="1.56082">
        <ele>107.7</ele>
        <time>2023-04-17T12:45:31Z</time>
      </trkpt>
      <trkpt lat="44.81131" lon="1.56092">
        <ele>111.1</ele>
        <time>2023-04-17T12:45:41Z</time>
      </trkpt>
      <trkpt lat="44.81124" lon="1.56099">
        <ele>111.6</ele>
        <time>2023-04-17T12:45:50Z</time>
      </trkpt>
      <trkpt lat="44.81115" lon="1.56102">
        <ele>108.1</ele>
        <time>2023-04-17T12:46:35Z</time>
      </trkpt>
      <trkpt lat="44.81106" lon="1.56107">
        <ele>107.1</ele>
        <time>2023-04-17T12:49:32Z</time>
      </trkpt>
      <trkpt lat="44.81098" lon="1.56104">
        <ele>107.6</ele>
        <time>2023-04-17T12:49:42Z</time>
      </trkpt>
      <trkpt lat="44.81092" lon="1.56093">
        <ele>106.7</ele>
        <time>2023-04-17T12:49:52Z</time>
      </trkpt>
      <trkpt lat="44.81084" lon="1.56087">
        <ele>106.4</ele>
        <time>2023-04-17T12:50:14Z</time>
      </trkpt>
      <trkpt lat="44.81076" lon="1.56083">
        <ele>107.3</ele>
        <time>2023-04-17T12:50:24Z</time>
      </trkpt>
      <trkpt lat="44.81068" lon="1.56075">
        <ele>107.5</ele>
        <time>2023-04-17T12:50:34Z</time>
      </trkpt>
      <trkpt lat="44.81062" lon="1.56065">
        <ele>106.5</ele>
        <time>2023-04-17T12:50:44Z</time>
      </trkpt>
      <trkpt lat="44.81054" lon="1.56055">
        <ele>105.4</ele>
        <time>2023-04-17T12:50:55Z</time>
      </trkpt>
      <trkpt lat="44.81045" lon="1.56048">
        <ele>106.6</ele>
        <time>2023-04-17T12:51:04Z</time>
      </trkpt>
      <trkpt lat="44.81037" lon="1.56041">
        <ele>106.9</ele>
        <time>2023-04-17T12:51:20Z</time>
      </trkpt>
      <trkpt lat="44.81031" lon="1.56032">
        <ele>105.8</ele>
        <time>2023-04-17T12:51:29Z</time>
      </trkpt>
      <trkpt lat="44.81024" lon="1.56022">
        <ele>105.8</ele>
        <time>2023-04-17T12:51:38Z</time>
      </trkpt>
      <trkpt lat="44.81017" lon="1.56013">
        <ele>106.5</ele>
        <time>2023-04-17T12:51:47Z</time>
      </trkpt>
      <trkpt lat="44.81009" lon="1.56005">
        <ele>106.4</ele>
        <time>2023-04-17T12:51:56Z</time>
      </trkpt>
      <trkpt lat="44.81001" lon="1.55998">
        <ele>105.9</ele>
        <time>2023-04-17T12:52:05Z</time>
      </trkpt>
      <trkpt lat="44.80993" lon="1.55993">
        <ele>106.5</ele>
        <time>2023-04-17T12:52:13Z</time>
      </trkpt>
      <trkpt lat="44.80984" lon="1.55986">
        <ele>106.7</ele>
        <time>2023-04-17T12:52:21Z</time>
      </trkpt>
      <trkpt lat="44.80977" lon="1.55979">
        <ele>106.1</ele>
        <time>2023-04-17T12:52:29Z</time>
      </trkpt>
      <trkpt lat="44.80968" lon="1.55975">
        <ele>105.7</ele>
        <time>2023-04-17T12:52:37Z</time>
      </trkpt>
      <trkpt lat="44.80958" lon="1.5597">
        <ele>105.5</ele>
        <time>2023-04-17T12:52:45Z</time>
      </trkpt>
      <trkpt lat="44.80949" lon="1.5597">
        <ele>105.8</ele>
        <time>2023-04-17T12:52:52Z</time>
      </trkpt>
      <trkpt lat="44.8094" lon="1.55973">
        <ele>106.1</ele>
        <time>2023-04-17T12:52:59Z</time>
      </trkpt>
      <trkpt lat="44.80931" lon="1.55977">
        <ele>106.2</ele>
        <time>2023-04-17T12:53:06Z</time>
      </trkpt>
      <trkpt lat="44.80923" lon="1.55984">
        <ele>106.1</ele>
        <time>2023-04-17T12:53:13Z</time>
      </trkpt>
      <trkpt lat="44.80915" lon="1.55991">
        <ele>105.6</ele>
        <time>2023-04-17T12:53:21Z</time>
      </trkpt>
      <trkpt lat="44.8091" lon="1.56003">
        <ele>106.1</ele>
        <time>2023-04-17T12:53:29Z</time>
      </trkpt>
      <trkpt lat="44.80907" lon="1.56016">
        <ele>107.1</ele>
        <time>2023-04-17T12:53:36Z</time>
      </trkpt>
      <trkpt lat="44.80904" lon="1.56029">
        <ele>107.7</ele>
        <time>2023-04-17T12:53:46Z</time>
      </trkpt>
      <trkpt lat="44.809" lon="1.56043">
        <ele>107.9</ele>
        <time>2023-04-17T12:53:54Z</time>
      </trkpt>
      <trkpt lat="44.80897" lon="1.56055">
        <ele>107.6</ele>
        <time>2023-04-17T12:54:02Z</time>
      </trkpt>
      <trkpt lat="44.80895" lon="1.56068">
        <ele>108</ele>
        <time>2023-04-17T12:54:19Z</time>
      </trkpt>
      <trkpt lat="44.80894" lon="1.56081">
        <ele>108.1</ele>
        <time>2023-04-17T12:54:28Z</time>
      </trkpt>
      <trkpt lat="44.8089" lon="1.56093">
        <ele>106.6</ele>
        <time>2023-04-17T12:54:35Z</time>
      </trkpt>
      <trkpt lat="44.80889" lon="1.56106">
        <ele>106</ele>
        <time>2023-04-17T12:54:43Z</time>
      </trkpt>
      <trkpt lat="44.80889" lon="1.56119">
        <ele>106.2</ele>
        <time>2023-04-17T12:54:50Z</time>
      </trkpt>
      <trkpt lat="44.8089" lon="1.56134">
        <ele>106.7</ele>
        <time>2023-04-17T12:54:58Z</time>
      </trkpt>
      <trkpt lat="44.80891" lon="1.56147">
        <ele>108</ele>
        <time>2023-04-17T12:55:05Z</time>
      </trkpt>
      <trkpt lat="44.80893" lon="1.5616">
        <ele>111.1</ele>
        <time>2023-04-17T12:55:12Z</time>
      </trkpt>
      <trkpt lat="44.80894" lon="1.56174">
        <ele>115.1</ele>
        <time>2023-04-17T12:55:20Z</time>
      </trkpt>
      <trkpt lat="44.80895" lon="1.56186">
        <ele>116.5</ele>
        <time>2023-04-17T12:55:27Z</time>
      </trkpt>
      <trkpt lat="44.80898" lon="1.56199">
        <ele>122</ele>
        <time>2023-04-17T12:55:34Z</time>
      </trkpt>
      <trkpt lat="44.80901" lon="1.56212">
        <ele>121.5</ele>
        <time>2023-04-17T12:55:42Z</time>
      </trkpt>
      <trkpt lat="44.80899" lon="1.56225">
        <ele>115.1</ele>
        <time>2023-04-17T12:55:49Z</time>
      </trkpt>
      <trkpt lat="44.80897" lon="1.56238">
        <ele>111.3</ele>
        <time>2023-04-17T12:55:57Z</time>
      </trkpt>
      <trkpt lat="44.80894" lon="1.56251">
        <ele>108.9</ele>
        <time>2023-04-17T12:56:05Z</time>
      </trkpt>
      <trkpt lat="44.8089" lon="1.56263">
        <ele>108.3</ele>
        <time>2023-04-17T12:56:13Z</time>
      </trkpt>
      <trkpt lat="44.80886" lon="1.56275">
        <ele>109</ele>
        <time>2023-04-17T12:56:23Z</time>
      </trkpt>
      <trkpt lat="44.80881" lon="1.56286">
        <ele>111.9</ele>
        <time>2023-04-17T12:56:32Z</time>
      </trkpt>
      <trkpt lat="44.80876" lon="1.56297">
        <ele>113.4</ele>
        <time>2023-04-17T12:56:40Z</time>
      </trkpt>
      <trkpt lat="44.8087" lon="1.56307">
        <ele>112.4</ele>
        <time>2023-04-17T12:56:48Z</time>
      </trkpt>
      <trkpt lat="44.80862" lon="1.56315">
        <ele>108.7</ele>
        <time>2023-04-17T12:56:57Z</time>
      </trkpt>
      <trkpt lat="44.80853" lon="1.5632">
        <ele>108.3</ele>
        <time>2023-04-17T12:57:06Z</time>
      </trkpt>
      <trkpt lat="44.80847" lon="1.56331">
        <ele>109.1</ele>
        <time>2023-04-17T12:57:13Z</time>
      </trkpt>
      <trkpt lat="44.80839" lon="1.56337">
        <ele>109.9</ele>
        <time>2023-04-17T12:57:21Z</time>
      </trkpt>
      <trkpt lat="44.80829" lon="1.56337">
        <ele>108.2</ele>
        <time>2023-04-17T12:57:28Z</time>
      </trkpt>
      <trkpt lat="44.8082" lon="1.56341">
        <ele>110.5</ele>
        <time>2023-04-17T12:57:36Z</time>
      </trkpt>
      <trkpt lat="44.80811" lon="1.56341">
        <ele>110.1</ele>
        <time>2023-04-17T12:57:45Z</time>
      </trkpt>
      <trkpt lat="44.80802" lon="1.56337">
        <ele>107.5</ele>
        <time>2023-04-17T12:57:54Z</time>
      </trkpt>
      <trkpt lat="44.80793" lon="1.56332">
        <ele>106.3</ele>
        <time>2023-04-17T12:58:02Z</time>
      </trkpt>
      <trkpt lat="44.80783" lon="1.56329">
        <ele>107</ele>
        <time>2023-04-17T12:58:16Z</time>
      </trkpt>
      <trkpt lat="44.80774" lon="1.56326">
        <ele>108.2</ele>
        <time>2023-04-17T12:58:26Z</time>
      </trkpt>
      <trkpt lat="44.80765" lon="1.56319">
        <ele>109</ele>
        <time>2023-04-17T12:58:35Z</time>
      </trkpt>
      <trkpt lat="44.80757" lon="1.56311">
        <ele>107.8</ele>
        <time>2023-04-17T12:58:43Z</time>
      </trkpt>
      <trkpt lat="44.8075" lon="1.56302">
        <ele>105.7</ele>
        <time>2023-04-17T12:58:50Z</time>
      </trkpt>
      <trkpt lat="44.80748" lon="1.5629">
        <ele>105.7</ele>
        <time>2023-04-17T12:58:59Z</time>
      </trkpt>
      <trkpt lat="44.80741" lon="1.5628">
        <ele>106.2</ele>
        <time>2023-04-17T12:59:08Z</time>
      </trkpt>
      <trkpt lat="44.80733" lon="1.56273">
        <ele>107.2</ele>
        <time>2023-04-17T12:59:16Z</time>
      </trkpt>
      <trkpt lat="44.80726" lon="1.56264">
        <ele>107.4</ele>
        <time>2023-04-17T12:59:24Z</time>
      </trkpt>
      <trkpt lat="44.8072" lon="1.56254">
        <ele>107.5</ele>
        <time>2023-04-17T12:59:32Z</time>
      </trkpt>
      <trkpt lat="44.80715" lon="1.56243">
        <ele>108.5</ele>
        <time>2023-04-17T12:59:41Z</time>
      </trkpt>
      <trkpt lat="44.8071" lon="1.5623">
        <ele>108.9</ele>
        <time>2023-04-17T12:59:50Z</time>
      </trkpt>
      <trkpt lat="44.80705" lon="1.56218">
        <ele>109</ele>
        <time>2023-04-17T12:59:58Z</time>
      </trkpt>
      <trkpt lat="44.807" lon="1.56208">
        <ele>109.5</ele>
        <time>2023-04-17T13:00:08Z</time>
      </trkpt>
      <trkpt lat="44.80696" lon="1.56196">
        <ele>108.9</ele>
        <time>2023-04-17T13:00:17Z</time>
      </trkpt>
      <trkpt lat="44.80693" lon="1.56183">
        <ele>108.3</ele>
        <time>2023-04-17T13:00:25Z</time>
      </trkpt>
      <trkpt lat="44.80691" lon="1.5617">
        <ele>108.1</ele>
        <time>2023-04-17T13:00:33Z</time>
      </trkpt>
      <trkpt lat="44.80688" lon="1.56157">
        <ele>108.6</ele>
        <time>2023-04-17T13:00:41Z</time>
      </trkpt>
      <trkpt lat="44.80684" lon="1.56144">
        <ele>109.3</ele>
        <time>2023-04-17T13:00:49Z</time>
      </trkpt>
      <trkpt lat="44.80684" lon="1.56131">
        <ele>108.8</ele>
        <time>2023-04-17T13:00:57Z</time>
      </trkpt>
      <trkpt lat="44.80681" lon="1.56118">
        <ele>108.7</ele>
        <time>2023-04-17T13:01:06Z</time>
      </trkpt>
      <trkpt lat="44.80679" lon="1.56105">
        <ele>108.8</ele>
        <time>2023-04-17T13:01:16Z</time>
      </trkpt>
      <trkpt lat="44.80678" lon="1.5609">
        <ele>108.6</ele>
        <time>2023-04-17T13:01:25Z</time>
      </trkpt>
      <trkpt lat="44.80673" lon="1.56079">
        <ele>108.7</ele>
        <time>2023-04-17T13:01:40Z</time>
      </trkpt>
      <trkpt lat="44.80669" lon="1.56067">
        <ele>108.1</ele>
        <time>2023-04-17T13:01:48Z</time>
      </trkpt>
      <trkpt lat="44.80663" lon="1.56057">
        <ele>108.3</ele>
        <time>2023-04-17T13:01:55Z</time>
      </trkpt>
      <trkpt lat="44.80656" lon="1.56047">
        <ele>109</ele>
        <time>2023-04-17T13:02:03Z</time>
      </trkpt>
      <trkpt lat="44.80651" lon="1.56036">
        <ele>108.5</ele>
        <time>2023-04-17T13:02:12Z</time>
      </trkpt>
      <trkpt lat="44.80644" lon="1.56026">
        <ele>107.5</ele>
        <time>2023-04-17T13:02:20Z</time>
      </trkpt>
      <trkpt lat="44.80637" lon="1.56017">
        <ele>107.6</ele>
        <time>2023-04-17T13:02:28Z</time>
      </trkpt>
      <trkpt lat="44.80629" lon="1.56009">
        <ele>107.8</ele>
        <time>2023-04-17T13:02:36Z</time>
      </trkpt>
      <trkpt lat="44.80622" lon="1.56">
        <ele>107.2</ele>
        <time>2023-04-17T13:02:44Z</time>
      </trkpt>
      <trkpt lat="44.80615" lon="1.55992">
        <ele>107.2</ele>
        <time>2023-04-17T13:02:52Z</time>
      </trkpt>
      <trkpt lat="44.80608" lon="1.55982">
        <ele>107.5</ele>
        <time>2023-04-17T13:03:00Z</time>
      </trkpt>
      <trkpt lat="44.806" lon="1.55974">
        <ele>107.8</ele>
        <time>2023-04-17T13:03:08Z</time>
      </trkpt>
      <trkpt lat="44.80594" lon="1.55964">
        <ele>107.9</ele>
        <time>2023-04-17T13:03:15Z</time>
      </trkpt>
      <trkpt lat="44.80588" lon="1.55952">
        <ele>107.5</ele>
        <time>2023-04-17T13:03:23Z</time>
      </trkpt>
      <trkpt lat="44.80583" lon="1.55942">
        <ele>107</ele>
        <time>2023-04-17T13:03:31Z</time>
      </trkpt>
      <trkpt lat="44.80578" lon="1.55931">
        <ele>107.2</ele>
        <time>2023-04-17T13:03:39Z</time>
      </trkpt>
      <trkpt lat="44.80572" lon="1.5592">
        <ele>107.4</ele>
        <time>2023-04-17T13:03:47Z</time>
      </trkpt>
      <trkpt lat="44.80564" lon="1.55911">
        <ele>107.6</ele>
        <time>2023-04-17T13:03:54Z</time>
      </trkpt>
      <trkpt lat="44.80557" lon="1.55901">
        <ele>107.2</ele>
        <time>2023-04-17T13:04:02Z</time>
      </trkpt>
      <trkpt lat="44.8055" lon="1.55891">
        <ele>106.6</ele>
        <time>2023-04-17T13:04:10Z</time>
      </trkpt>
      <trkpt lat="44.80544" lon="1.5588">
        <ele>106.7</ele>
        <time>2023-04-17T13:04:19Z</time>
      </trkpt>
      <trkpt lat="44.80538" lon="1.55869">
        <ele>106.8</ele>
        <time>2023-04-17T13:04:28Z</time>
      </trkpt>
      <trkpt lat="44.80531" lon="1.55859">
        <ele>106.8</ele>
        <time>2023-04-17T13:04:37Z</time>
      </trkpt>
      <trkpt lat="44.80524" lon="1.55849">
        <ele>106.8</ele>
        <time>2023-04-17T13:04:45Z</time>
      </trkpt>
      <trkpt lat="44.80516" lon="1.55842">
        <ele>107</ele>
        <time>2023-04-17T13:04:52Z</time>
      </trkpt>
      <trkpt lat="44.80508" lon="1.55832">
        <ele>107.3</ele>
        <time>2023-04-17T13:05:00Z</time>
      </trkpt>
      <trkpt lat="44.80501" lon="1.55824">
        <ele>107.3</ele>
        <time>2023-04-17T13:05:08Z</time>
      </trkpt>
      <trkpt lat="44.80493" lon="1.55816">
        <ele>107.5</ele>
        <time>2023-04-17T13:05:18Z</time>
      </trkpt>
      <trkpt lat="44.80485" lon="1.5581">
        <ele>107.9</ele>
        <time>2023-04-17T13:05:26Z</time>
      </trkpt>
      <trkpt lat="44.80479" lon="1.55799">
        <ele>107.9</ele>
        <time>2023-04-17T13:05:34Z</time>
      </trkpt>
      <trkpt lat="44.80472" lon="1.55791">
        <ele>107.9</ele>
        <time>2023-04-17T13:05:42Z</time>
      </trkpt>
      <trkpt lat="44.80465" lon="1.55783">
        <ele>108</ele>
        <time>2023-04-17T13:05:50Z</time>
      </trkpt>
      <trkpt lat="44.80457" lon="1.55775">
        <ele>108</ele>
        <time>2023-04-17T13:05:58Z</time>
      </trkpt>
      <trkpt lat="44.80449" lon="1.55768">
        <ele>108</ele>
        <time>2023-04-17T13:06:05Z</time>
      </trkpt>
      <trkpt lat="44.8044" lon="1.55762">
        <ele>108.2</ele>
        <time>2023-04-17T13:06:13Z</time>
      </trkpt>
      <trkpt lat="44.80432" lon="1.55756">
        <ele>108.2</ele>
        <time>2023-04-17T13:06:21Z</time>
      </trkpt>
      <trkpt lat="44.80423" lon="1.55751">
        <ele>108</ele>
        <time>2023-04-17T13:06:30Z</time>
      </trkpt>
      <trkpt lat="44.80414" lon="1.55748">
        <ele>108.2</ele>
        <time>2023-04-17T13:06:42Z</time>
      </trkpt>
      <trkpt lat="44.80405" lon="1.55753">
        <ele>109.8</ele>
        <time>2023-04-17T13:07:54Z</time>
      </trkpt>
      <trkpt lat="44.80396" lon="1.55759">
        <ele>111.8</ele>
        <time>2023-04-17T13:11:31Z</time>
      </trkpt>
      <trkpt lat="44.80388" lon="1.55763">
        <ele>113.2</ele>
        <time>2023-04-17T13:11:42Z</time>
      </trkpt>
      <trkpt lat="44.80379" lon="1.55765">
        <ele>111.9</ele>
        <time>2023-04-17T13:11:56Z</time>
      </trkpt>
      <trkpt lat="44.80371" lon="1.55772">
        <ele>111.6</ele>
        <time>2023-04-17T13:12:08Z</time>
      </trkpt>
      <trkpt lat="44.80362" lon="1.55777">
        <ele>111</ele>
        <time>2023-04-17T13:12:19Z</time>
      </trkpt>
      <trkpt lat="44.80354" lon="1.55783">
        <ele>111.2</ele>
        <time>2023-04-17T13:12:30Z</time>
      </trkpt>
      <trkpt lat="44.80345" lon="1.5579">
        <ele>111.1</ele>
        <time>2023-04-17T13:12:40Z</time>
      </trkpt>
      <trkpt lat="44.80336" lon="1.55796">
        <ele>110.6</ele>
        <time>2023-04-17T13:12:50Z</time>
      </trkpt>
      <trkpt lat="44.80328" lon="1.558">
        <ele>110.2</ele>
        <time>2023-04-17T13:12:59Z</time>
      </trkpt>
      <trkpt lat="44.80323" lon="1.55811">
        <ele>112.2</ele>
        <time>2023-04-17T13:13:07Z</time>
      </trkpt>
      <trkpt lat="44.80314" lon="1.55814">
        <ele>111.3</ele>
        <time>2023-04-17T13:13:15Z</time>
      </trkpt>
      <trkpt lat="44.80305" lon="1.5582">
        <ele>110.6</ele>
        <time>2023-04-17T13:13:25Z</time>
      </trkpt>
      <trkpt lat="44.80296" lon="1.55824">
        <ele>110.1</ele>
        <time>2023-04-17T13:13:33Z</time>
      </trkpt>
      <trkpt lat="44.80286" lon="1.55824">
        <ele>109</ele>
        <time>2023-04-17T13:13:40Z</time>
      </trkpt>
      <trkpt lat="44.80279" lon="1.55831">
        <ele>108.8</ele>
        <time>2023-04-17T13:13:49Z</time>
      </trkpt>
      <trkpt lat="44.80272" lon="1.5584">
        <ele>110.9</ele>
        <time>2023-04-17T13:13:57Z</time>
      </trkpt>
      <trkpt lat="44.80263" lon="1.55845">
        <ele>111.4</ele>
        <time>2023-04-17T13:14:05Z</time>
      </trkpt>
      <trkpt lat="44.80254" lon="1.55851">
        <ele>111.2</ele>
        <time>2023-04-17T13:14:14Z</time>
      </trkpt>
      <trkpt lat="44.80246" lon="1.55858">
        <ele>110.9</ele>
        <time>2023-04-17T13:14:22Z</time>
      </trkpt>
      <trkpt lat="44.80238" lon="1.55864">
        <ele>111.1</ele>
        <time>2023-04-17T13:14:31Z</time>
      </trkpt>
      <trkpt lat="44.80229" lon="1.55867">
        <ele>110.2</ele>
        <time>2023-04-17T13:14:37Z</time>
      </trkpt>
      <trkpt lat="44.80222" lon="1.55877">
        <ele>110.5</ele>
        <time>2023-04-17T13:14:46Z</time>
      </trkpt>
      <trkpt lat="44.80217" lon="1.5589">
        <ele>112.4</ele>
        <time>2023-04-17T13:14:55Z</time>
      </trkpt>
      <trkpt lat="44.80209" lon="1.55898">
        <ele>113.9</ele>
        <time>2023-04-17T13:15:02Z</time>
      </trkpt>
      <trkpt lat="44.80201" lon="1.55903">
        <ele>112.5</ele>
        <time>2023-04-17T13:15:09Z</time>
      </trkpt>
      <trkpt lat="44.80192" lon="1.55911">
        <ele>111.1</ele>
        <time>2023-04-17T13:15:18Z</time>
      </trkpt>
      <trkpt lat="44.80184" lon="1.55919">
        <ele>112.5</ele>
        <time>2023-04-17T13:15:25Z</time>
      </trkpt>
      <trkpt lat="44.80175" lon="1.55923">
        <ele>113.4</ele>
        <time>2023-04-17T13:15:34Z</time>
      </trkpt>
      <trkpt lat="44.80167" lon="1.55928">
        <ele>113.8</ele>
        <time>2023-04-17T13:15:45Z</time>
      </trkpt>
      <trkpt lat="44.80159" lon="1.55935">
        <ele>114.1</ele>
        <time>2023-04-17T13:15:54Z</time>
      </trkpt>
      <trkpt lat="44.80151" lon="1.55942">
        <ele>113.3</ele>
        <time>2023-04-17T13:16:04Z</time>
      </trkpt>
      <trkpt lat="44.80142" lon="1.55948">
        <ele>112.2</ele>
        <time>2023-04-17T13:16:16Z</time>
      </trkpt>
      <trkpt lat="44.80134" lon="1.55955">
        <ele>112.6</ele>
        <time>2023-04-17T13:16:24Z</time>
      </trkpt>
      <trkpt lat="44.80125" lon="1.55961">
        <ele>113</ele>
        <time>2023-04-17T13:16:33Z</time>
      </trkpt>
      <trkpt lat="44.80117" lon="1.55967">
        <ele>113</ele>
        <time>2023-04-17T13:16:43Z</time>
      </trkpt>
      <trkpt lat="44.80107" lon="1.55968">
        <ele>111.9</ele>
        <time>2023-04-17T13:16:51Z</time>
      </trkpt>
      <trkpt lat="44.80097" lon="1.5597">
        <ele>111.6</ele>
        <time>2023-04-17T13:16:59Z</time>
      </trkpt>
      <trkpt lat="44.80088" lon="1.55976">
        <ele>112.2</ele>
        <time>2023-04-17T13:17:09Z</time>
      </trkpt>
      <trkpt lat="44.80082" lon="1.55985">
        <ele>113.7</ele>
        <time>2023-04-17T13:19:36Z</time>
      </trkpt>
      <trkpt lat="44.80075" lon="1.55976">
        <ele>110.8</ele>
        <time>2023-04-17T13:19:55Z</time>
      </trkpt>
      <trkpt lat="44.80066" lon="1.55979">
        <ele>110.2</ele>
        <time>2023-04-17T13:20:04Z</time>
      </trkpt>
      <trkpt lat="44.80058" lon="1.55987">
        <ele>111</ele>
        <time>2023-04-17T13:20:13Z</time>
      </trkpt>
      <trkpt lat="44.8005" lon="1.55994">
        <ele>111.5</ele>
        <time>2023-04-17T13:20:21Z</time>
      </trkpt>
      <trkpt lat="44.80042" lon="1.56003">
        <ele>111.6</ele>
        <time>2023-04-17T13:20:29Z</time>
      </trkpt>
      <trkpt lat="44.80033" lon="1.56008">
        <ele>111</ele>
        <time>2023-04-17T13:20:38Z</time>
      </trkpt>
      <trkpt lat="44.80024" lon="1.56011">
        <ele>110</ele>
        <time>2023-04-17T13:20:47Z</time>
      </trkpt>
      <trkpt lat="44.80015" lon="1.56016">
        <ele>109.7</ele>
        <time>2023-04-17T13:20:55Z</time>
      </trkpt>
      <trkpt lat="44.80008" lon="1.56026">
        <ele>109.6</ele>
        <time>2023-04-17T13:21:03Z</time>
      </trkpt>
      <trkpt lat="44.80005" lon="1.56038">
        <ele>110.1</ele>
        <time>2023-04-17T13:21:11Z</time>
      </trkpt>
      <trkpt lat="44.80001" lon="1.56049">
        <ele>110.5</ele>
        <time>2023-04-17T13:21:19Z</time>
      </trkpt>
      <trkpt lat="44.79997" lon="1.56061">
        <ele>111.1</ele>
        <time>2023-04-17T13:21:27Z</time>
      </trkpt>
      <trkpt lat="44.7999" lon="1.5607">
        <ele>110.8</ele>
        <time>2023-04-17T13:21:35Z</time>
      </trkpt>
      <trkpt lat="44.79982" lon="1.56078">
        <ele>109.8</ele>
        <time>2023-04-17T13:21:43Z</time>
      </trkpt>
      <trkpt lat="44.79973" lon="1.56083">
        <ele>108.1</ele>
        <time>2023-04-17T13:21:51Z</time>
      </trkpt>
      <trkpt lat="44.79964" lon="1.56081">
        <ele>107.6</ele>
        <time>2023-04-17T13:22:00Z</time>
      </trkpt>
      <trkpt lat="44.79957" lon="1.56071">
        <ele>107.3</ele>
        <time>2023-04-17T13:22:08Z</time>
      </trkpt>
      <trkpt lat="44.79951" lon="1.56061">
        <ele>107</ele>
        <time>2023-04-17T13:22:16Z</time>
      </trkpt>
      <trkpt lat="44.79946" lon="1.5605">
        <ele>106.8</ele>
        <time>2023-04-17T13:22:24Z</time>
      </trkpt>
      <trkpt lat="44.7994" lon="1.5604">
        <ele>106.4</ele>
        <time>2023-04-17T13:22:32Z</time>
      </trkpt>
      <trkpt lat="44.79934" lon="1.56028">
        <ele>106</ele>
        <time>2023-04-17T13:22:40Z</time>
      </trkpt>
      <trkpt lat="44.79926" lon="1.56019">
        <ele>105.8</ele>
        <time>2023-04-17T13:22:49Z</time>
      </trkpt>
      <trkpt lat="44.79917" lon="1.56021">
        <ele>105.8</ele>
        <time>2023-04-17T13:23:12Z</time>
      </trkpt>
      <trkpt lat="44.79909" lon="1.56028">
        <ele>105.7</ele>
        <time>2023-04-17T13:23:20Z</time>
      </trkpt>
      <trkpt lat="44.79902" lon="1.56038">
        <ele>106</ele>
        <time>2023-04-17T13:23:31Z</time>
      </trkpt>
      <trkpt lat="44.79895" lon="1.56047">
        <ele>106.8</ele>
        <time>2023-04-17T13:25:02Z</time>
      </trkpt>
      <trkpt lat="44.79887" lon="1.56054">
        <ele>107.6</ele>
        <time>2023-04-17T13:25:11Z</time>
      </trkpt>
      <trkpt lat="44.79879" lon="1.56062">
        <ele>109.2</ele>
        <time>2023-04-17T13:25:24Z</time>
      </trkpt>
      <trkpt lat="44.79873" lon="1.56071">
        <ele>110.6</ele>
        <time>2023-04-17T13:25:35Z</time>
      </trkpt>
      <trkpt lat="44.79866" lon="1.56079">
        <ele>109.7</ele>
        <time>2023-04-17T13:25:45Z</time>
      </trkpt>
      <trkpt lat="44.79859" lon="1.56088">
        <ele>109.1</ele>
        <time>2023-04-17T13:25:54Z</time>
      </trkpt>
      <trkpt lat="44.7985" lon="1.56093">
        <ele>109.2</ele>
        <time>2023-04-17T13:26:02Z</time>
      </trkpt>
      <trkpt lat="44.79842" lon="1.56099">
        <ele>108.9</ele>
        <time>2023-04-17T13:26:10Z</time>
      </trkpt>
      <trkpt lat="44.79833" lon="1.56104">
        <ele>107.7</ele>
        <time>2023-04-17T13:26:18Z</time>
      </trkpt>
      <trkpt lat="44.79827" lon="1.56115">
        <ele>108.6</ele>
        <time>2023-04-17T13:26:27Z</time>
      </trkpt>
      <trkpt lat="44.79819" lon="1.56122">
        <ele>109.3</ele>
        <time>2023-04-17T13:26:36Z</time>
      </trkpt>
      <trkpt lat="44.79811" lon="1.56129">
        <ele>109.2</ele>
        <time>2023-04-17T13:26:45Z</time>
      </trkpt>
      <trkpt lat="44.79803" lon="1.56138">
        <ele>108.8</ele>
        <time>2023-04-17T13:26:54Z</time>
      </trkpt>
      <trkpt lat="44.79796" lon="1.56146">
        <ele>109.2</ele>
        <time>2023-04-17T13:27:02Z</time>
      </trkpt>
      <trkpt lat="44.79789" lon="1.56156">
        <ele>109.3</ele>
        <time>2023-04-17T13:27:10Z</time>
      </trkpt>
      <trkpt lat="44.79784" lon="1.56168">
        <ele>109</ele>
        <time>2023-04-17T13:27:19Z</time>
      </trkpt>
      <trkpt lat="44.79776" lon="1.56176">
        <ele>108.8</ele>
        <time>2023-04-17T13:27:27Z</time>
      </trkpt>
      <trkpt lat="44.7977" lon="1.56186">
        <ele>110</ele>
        <time>2023-04-17T13:27:35Z</time>
      </trkpt>
      <trkpt lat="44.79764" lon="1.56196">
        <ele>110.2</ele>
        <time>2023-04-17T13:27:43Z</time>
      </trkpt>
      <trkpt lat="44.79758" lon="1.56205">
        <ele>109.5</ele>
        <time>2023-04-17T13:27:51Z</time>
      </trkpt>
      <trkpt lat="44.79752" lon="1.56216">
        <ele>108</ele>
        <time>2023-04-17T13:27:59Z</time>
      </trkpt>
      <trkpt lat="44.79743" lon="1.56222">
        <ele>107</ele>
        <time>2023-04-17T13:28:06Z</time>
      </trkpt>
      <trkpt lat="44.79739" lon="1.56233">
        <ele>108.8</ele>
        <time>2023-04-17T13:28:15Z</time>
      </trkpt>
      <trkpt lat="44.79733" lon="1.56245">
        <ele>109.7</ele>
        <time>2023-04-17T13:28:24Z</time>
      </trkpt>
      <trkpt lat="44.79727" lon="1.56255">
        <ele>108.8</ele>
        <time>2023-04-17T13:28:35Z</time>
      </trkpt>
      <trkpt lat="44.79725" lon="1.56269">
        <ele>108.4</ele>
        <time>2023-04-17T13:28:43Z</time>
      </trkpt>
      <trkpt lat="44.79723" lon="1.56282">
        <ele>108.1</ele>
        <time>2023-04-17T13:29:24Z</time>
      </trkpt>
      <trkpt lat="44.79721" lon="1.56294">
        <ele>108.7</ele>
        <time>2023-04-17T13:32:55Z</time>
      </trkpt>
      <trkpt lat="44.79719" lon="1.56307">
        <ele>110.3</ele>
        <time>2023-04-17T13:33:08Z</time>
      </trkpt>
      <trkpt lat="44.79713" lon="1.56316">
        <ele>112.6</ele>
        <time>2023-04-17T13:33:19Z</time>
      </trkpt>
      <trkpt lat="44.79704" lon="1.5632">
        <ele>110.9</ele>
        <time>2023-04-17T13:33:28Z</time>
      </trkpt>
      <trkpt lat="44.79698" lon="1.56332">
        <ele>110</ele>
        <time>2023-04-17T13:33:38Z</time>
      </trkpt>
      <trkpt lat="44.79692" lon="1.56342">
        <ele>109.5</ele>
        <time>2023-04-17T13:33:47Z</time>
      </trkpt>
      <trkpt lat="44.79687" lon="1.56353">
        <ele>110.6</ele>
        <time>2023-04-17T13:33:56Z</time>
      </trkpt>
      <trkpt lat="44.79681" lon="1.56364">
        <ele>111.3</ele>
        <time>2023-04-17T13:34:08Z</time>
      </trkpt>
      <trkpt lat="44.79676" lon="1.56375">
        <ele>112.4</ele>
        <time>2023-04-17T13:34:17Z</time>
      </trkpt>
      <trkpt lat="44.79671" lon="1.56386">
        <ele>111.7</ele>
        <time>2023-04-17T13:34:28Z</time>
      </trkpt>
      <trkpt lat="44.79665" lon="1.56397">
        <ele>112.8</ele>
        <time>2023-04-17T13:34:40Z</time>
      </trkpt>
      <trkpt lat="44.79658" lon="1.56405">
        <ele>114.1</ele>
        <time>2023-04-17T13:34:50Z</time>
      </trkpt>
      <trkpt lat="44.79649" lon="1.56412">
        <ele>113.2</ele>
        <time>2023-04-17T13:35:00Z</time>
      </trkpt>
      <trkpt lat="44.79641" lon="1.56419">
        <ele>111.7</ele>
        <time>2023-04-17T13:35:11Z</time>
      </trkpt>
      <trkpt lat="44.79632" lon="1.56424">
        <ele>111.4</ele>
        <time>2023-04-17T13:35:29Z</time>
      </trkpt>
      <trkpt lat="44.79623" lon="1.5643">
        <ele>110.8</ele>
        <time>2023-04-17T13:35:37Z</time>
      </trkpt>
      <trkpt lat="44.79615" lon="1.56436">
        <ele>109.1</ele>
        <time>2023-04-17T13:35:45Z</time>
      </trkpt>
      <trkpt lat="44.79605" lon="1.56439">
        <ele>108</ele>
        <time>2023-04-17T13:35:52Z</time>
      </trkpt>
      <trkpt lat="44.79599" lon="1.56448">
        <ele>108.6</ele>
        <time>2023-04-17T13:36:01Z</time>
      </trkpt>
      <trkpt lat="44.79593" lon="1.5646">
        <ele>109.5</ele>
        <time>2023-04-17T13:36:10Z</time>
      </trkpt>
      <trkpt lat="44.79586" lon="1.56469">
        <ele>108.6</ele>
        <time>2023-04-17T13:36:19Z</time>
      </trkpt>
      <trkpt lat="44.79579" lon="1.5648">
        <ele>108.9</ele>
        <time>2023-04-17T13:36:29Z</time>
      </trkpt>
      <trkpt lat="44.79576" lon="1.56492">
        <ele>110.1</ele>
        <time>2023-04-17T13:36:38Z</time>
      </trkpt>
      <trkpt lat="44.7957" lon="1.56503">
        <ele>110.3</ele>
        <time>2023-04-17T13:36:46Z</time>
      </trkpt>
      <trkpt lat="44.79561" lon="1.56511">
        <ele>109.5</ele>
        <time>2023-04-17T13:36:55Z</time>
      </trkpt>
      <trkpt lat="44.79555" lon="1.56522">
        <ele>108.8</ele>
        <time>2023-04-17T13:37:04Z</time>
      </trkpt>
      <trkpt lat="44.7955" lon="1.56532">
        <ele>110.2</ele>
        <time>2023-04-17T13:37:12Z</time>
      </trkpt>
      <trkpt lat="44.79544" lon="1.56542">
        <ele>112.1</ele>
        <time>2023-04-17T13:37:24Z</time>
      </trkpt>
      <trkpt lat="44.79534" lon="1.56545">
        <ele>110.4</ele>
        <time>2023-04-17T13:37:30Z</time>
      </trkpt>
      <trkpt lat="44.79526" lon="1.56551">
        <ele>108.8</ele>
        <time>2023-04-17T13:37:38Z</time>
      </trkpt>
      <trkpt lat="44.79518" lon="1.56558">
        <ele>109.5</ele>
        <time>2023-04-17T13:37:50Z</time>
      </trkpt>
      <trkpt lat="44.79509" lon="1.56563">
        <ele>110.8</ele>
        <time>2023-04-17T13:37:59Z</time>
      </trkpt>
      <trkpt lat="44.79502" lon="1.5657">
        <ele>112.5</ele>
        <time>2023-04-17T13:38:10Z</time>
      </trkpt>
      <trkpt lat="44.79493" lon="1.56576">
        <ele>113.6</ele>
        <time>2023-04-17T13:38:22Z</time>
      </trkpt>
      <trkpt lat="44.79487" lon="1.56586">
        <ele>115.7</ele>
        <time>2023-04-17T13:38:31Z</time>
      </trkpt>
      <trkpt lat="44.7948" lon="1.56595">
        <ele>117.2</ele>
        <time>2023-04-17T13:38:41Z</time>
      </trkpt>
      <trkpt lat="44.79473" lon="1.56604">
        <ele>118.6</ele>
        <time>2023-04-17T13:38:51Z</time>
      </trkpt>
      <trkpt lat="44.79469" lon="1.56615">
        <ele>120.1</ele>
        <time>2023-04-17T13:39:01Z</time>
      </trkpt>
      <trkpt lat="44.79464" lon="1.56628">
        <ele>121.1</ele>
        <time>2023-04-17T13:39:10Z</time>
      </trkpt>
      <trkpt lat="44.79463" lon="1.56642">
        <ele>122.5</ele>
        <time>2023-04-17T13:39:20Z</time>
      </trkpt>
      <trkpt lat="44.79463" lon="1.56656">
        <ele>124</ele>
        <time>2023-04-17T13:39:31Z</time>
      </trkpt>
      <trkpt lat="44.79465" lon="1.56669">
        <ele>125.4</ele>
        <time>2023-04-17T13:39:41Z</time>
      </trkpt>
      <trkpt lat="44.79468" lon="1.56681">
        <ele>126.6</ele>
        <time>2023-04-17T13:39:48Z</time>
      </trkpt>
      <trkpt lat="44.79474" lon="1.56693">
        <ele>128.3</ele>
        <time>2023-04-17T13:39:58Z</time>
      </trkpt>
      <trkpt lat="44.79481" lon="1.56702">
        <ele>129.6</ele>
        <time>2023-04-17T13:40:07Z</time>
      </trkpt>
      <trkpt lat="44.79488" lon="1.56711">
        <ele>130.8</ele>
        <time>2023-04-17T13:40:16Z</time>
      </trkpt>
      <trkpt lat="44.79494" lon="1.56721">
        <ele>132.2</ele>
        <time>2023-04-17T13:40:26Z</time>
      </trkpt>
      <trkpt lat="44.79501" lon="1.56729">
        <ele>133.4</ele>
        <time>2023-04-17T13:41:09Z</time>
      </trkpt>
      <trkpt lat="44.79507" lon="1.56739">
        <ele>133.8</ele>
        <time>2023-04-17T13:41:19Z</time>
      </trkpt>
      <trkpt lat="44.79515" lon="1.56745">
        <ele>135.5</ele>
        <time>2023-04-17T13:41:30Z</time>
      </trkpt>
      <trkpt lat="44.79523" lon="1.56753">
        <ele>136.9</ele>
        <time>2023-04-17T13:41:40Z</time>
      </trkpt>
      <trkpt lat="44.7953" lon="1.56763">
        <ele>137.5</ele>
        <time>2023-04-17T13:41:51Z</time>
      </trkpt>
      <trkpt lat="44.79536" lon="1.56773">
        <ele>138</ele>
        <time>2023-04-17T13:42:00Z</time>
      </trkpt>
      <trkpt lat="44.79543" lon="1.56783">
        <ele>137.6</ele>
        <time>2023-04-17T13:42:10Z</time>
      </trkpt>
      <trkpt lat="44.7955" lon="1.56791">
        <ele>136.9</ele>
        <time>2023-04-17T13:42:19Z</time>
      </trkpt>
      <trkpt lat="44.79558" lon="1.56797">
        <ele>137.4</ele>
        <time>2023-04-17T13:42:34Z</time>
      </trkpt>
      <trkpt lat="44.79566" lon="1.56804">
        <ele>137.7</ele>
        <time>2023-04-17T13:42:43Z</time>
      </trkpt>
      <trkpt lat="44.79571" lon="1.56815">
        <ele>135.3</ele>
        <time>2023-04-17T13:43:19Z</time>
      </trkpt>
      <trkpt lat="44.79578" lon="1.56824">
        <ele>135.7</ele>
        <time>2023-04-17T13:43:31Z</time>
      </trkpt>
      <trkpt lat="44.79584" lon="1.56835">
        <ele>135.9</ele>
        <time>2023-04-17T13:43:40Z</time>
      </trkpt>
      <trkpt lat="44.79586" lon="1.56847">
        <ele>135.7</ele>
        <time>2023-04-17T13:43:59Z</time>
      </trkpt>
      <trkpt lat="44.79588" lon="1.5686">
        <ele>134.8</ele>
        <time>2023-04-17T13:44:11Z</time>
      </trkpt>
      <trkpt lat="44.7959" lon="1.56873">
        <ele>134.9</ele>
        <time>2023-04-17T13:44:20Z</time>
      </trkpt>
      <trkpt lat="44.79595" lon="1.56884">
        <ele>136</ele>
        <time>2023-04-17T13:44:34Z</time>
      </trkpt>
      <trkpt lat="44.79599" lon="1.56896">
        <ele>138.2</ele>
        <time>2023-04-17T13:45:20Z</time>
      </trkpt>
      <trkpt lat="44.79598" lon="1.56909">
        <ele>138.3</ele>
        <time>2023-04-17T13:45:30Z</time>
      </trkpt>
      <trkpt lat="44.79592" lon="1.56921">
        <ele>136.2</ele>
        <time>2023-04-17T13:45:39Z</time>
      </trkpt>
      <trkpt lat="44.79588" lon="1.56932">
        <ele>134.9</ele>
        <time>2023-04-17T13:45:58Z</time>
      </trkpt>
      <trkpt lat="44.79586" lon="1.56946">
        <ele>135.2</ele>
        <time>2023-04-17T13:46:09Z</time>
      </trkpt>
      <trkpt lat="44.79586" lon="1.56959">
        <ele>134.8</ele>
        <time>2023-04-17T13:46:19Z</time>
      </trkpt>
      <trkpt lat="44.79587" lon="1.56972">
        <ele>134.7</ele>
        <time>2023-04-17T13:46:35Z</time>
      </trkpt>
      <trkpt lat="44.79585" lon="1.56984">
        <ele>136.2</ele>
        <time>2023-04-17T13:46:45Z</time>
      </trkpt>
      <trkpt lat="44.79576" lon="1.5699">
        <ele>133.9</ele>
        <time>2023-04-17T13:47:00Z</time>
      </trkpt>
      <trkpt lat="44.79569" lon="1.56998">
        <ele>133</ele>
        <time>2023-04-17T13:47:12Z</time>
      </trkpt>
      <trkpt lat="44.79562" lon="1.57007">
        <ele>131.8</ele>
        <time>2023-04-17T13:47:23Z</time>
      </trkpt>
      <trkpt lat="44.79554" lon="1.57016">
        <ele>130.4</ele>
        <time>2023-04-17T13:47:33Z</time>
      </trkpt>
      <trkpt lat="44.79547" lon="1.57025">
        <ele>129.5</ele>
        <time>2023-04-17T13:47:43Z</time>
      </trkpt>
      <trkpt lat="44.79541" lon="1.57035">
        <ele>129.3</ele>
        <time>2023-04-17T13:47:51Z</time>
      </trkpt>
      <trkpt lat="44.79535" lon="1.57045">
        <ele>129</ele>
        <time>2023-04-17T13:48:00Z</time>
      </trkpt>
      <trkpt lat="44.79527" lon="1.57051">
        <ele>127.7</ele>
        <time>2023-04-17T13:48:10Z</time>
      </trkpt>
      <trkpt lat="44.79521" lon="1.57062">
        <ele>127.5</ele>
        <time>2023-04-17T13:48:20Z</time>
      </trkpt>
      <trkpt lat="44.79515" lon="1.57072">
        <ele>127.6</ele>
        <time>2023-04-17T13:48:28Z</time>
      </trkpt>
      <trkpt lat="44.79508" lon="1.57082">
        <ele>128.1</ele>
        <time>2023-04-17T13:48:36Z</time>
      </trkpt>
      <trkpt lat="44.79501" lon="1.57092">
        <ele>128.3</ele>
        <time>2023-04-17T13:48:43Z</time>
      </trkpt>
      <trkpt lat="44.79494" lon="1.57101">
        <ele>127.7</ele>
        <time>2023-04-17T13:48:51Z</time>
      </trkpt>
      <trkpt lat="44.79487" lon="1.5711">
        <ele>127.3</ele>
        <time>2023-04-17T13:49:00Z</time>
      </trkpt>
      <trkpt lat="44.79482" lon="1.5712">
        <ele>128.2</ele>
        <time>2023-04-17T13:49:09Z</time>
      </trkpt>
      <trkpt lat="44.79474" lon="1.5713">
        <ele>128.2</ele>
        <time>2023-04-17T13:49:18Z</time>
      </trkpt>
      <trkpt lat="44.79468" lon="1.57141">
        <ele>128.8</ele>
        <time>2023-04-17T13:49:28Z</time>
      </trkpt>
      <trkpt lat="44.7946" lon="1.57148">
        <ele>127.5</ele>
        <time>2023-04-17T13:49:37Z</time>
      </trkpt>
      <trkpt lat="44.79453" lon="1.57156">
        <ele>127</ele>
        <time>2023-04-17T13:49:45Z</time>
      </trkpt>
      <trkpt lat="44.79446" lon="1.57165">
        <ele>127.1</ele>
        <time>2023-04-17T13:49:54Z</time>
      </trkpt>
      <trkpt lat="44.79438" lon="1.57172">
        <ele>126</ele>
        <time>2023-04-17T13:50:02Z</time>
      </trkpt>
      <trkpt lat="44.7943" lon="1.5718">
        <ele>125.5</ele>
        <time>2023-04-17T13:50:10Z</time>
      </trkpt>
      <trkpt lat="44.79424" lon="1.57191">
        <ele>126.4</ele>
        <time>2023-04-17T13:50:19Z</time>
      </trkpt>
      <trkpt lat="44.79417" lon="1.57198">
        <ele>125.9</ele>
        <time>2023-04-17T13:50:28Z</time>
      </trkpt>
      <trkpt lat="44.79409" lon="1.57203">
        <ele>125</ele>
        <time>2023-04-17T13:50:35Z</time>
      </trkpt>
      <trkpt lat="44.79402" lon="1.57213">
        <ele>125.1</ele>
        <time>2023-04-17T13:50:42Z</time>
      </trkpt>
      <trkpt lat="44.79395" lon="1.57223">
        <ele>125.1</ele>
        <time>2023-04-17T13:50:50Z</time>
      </trkpt>
      <trkpt lat="44.7939" lon="1.57234">
        <ele>125.5</ele>
        <time>2023-04-17T13:50:58Z</time>
      </trkpt>
      <trkpt lat="44.79385" lon="1.57244">
        <ele>125.6</ele>
        <time>2023-04-17T13:51:06Z</time>
      </trkpt>
      <trkpt lat="44.79377" lon="1.57253">
        <ele>124.1</ele>
        <time>2023-04-17T13:51:14Z</time>
      </trkpt>
      <trkpt lat="44.79372" lon="1.57264">
        <ele>124.6</ele>
        <time>2023-04-17T13:51:23Z</time>
      </trkpt>
      <trkpt lat="44.79368" lon="1.57276">
        <ele>125.3</ele>
        <time>2023-04-17T13:51:32Z</time>
      </trkpt>
      <trkpt lat="44.79363" lon="1.57287">
        <ele>125</ele>
        <time>2023-04-17T13:51:40Z</time>
      </trkpt>
      <trkpt lat="44.79358" lon="1.57299">
        <ele>124.7</ele>
        <time>2023-04-17T13:51:48Z</time>
      </trkpt>
      <trkpt lat="44.79353" lon="1.5731">
        <ele>124.1</ele>
        <time>2023-04-17T13:51:56Z</time>
      </trkpt>
      <trkpt lat="44.79348" lon="1.57321">
        <ele>123.9</ele>
        <time>2023-04-17T13:52:04Z</time>
      </trkpt>
      <trkpt lat="44.79342" lon="1.57333">
        <ele>123.1</ele>
        <time>2023-04-17T13:52:12Z</time>
      </trkpt>
      <trkpt lat="44.79338" lon="1.57345">
        <ele>122.7</ele>
        <time>2023-04-17T13:52:21Z</time>
      </trkpt>
      <trkpt lat="44.79335" lon="1.57357">
        <ele>122.2</ele>
        <time>2023-04-17T13:52:29Z</time>
      </trkpt>
      <trkpt lat="44.79333" lon="1.5737">
        <ele>122.6</ele>
        <time>2023-04-17T13:59:24Z</time>
      </trkpt>
      <trkpt lat="44.7933" lon="1.57383">
        <ele>121.9</ele>
        <time>2023-04-17T13:59:36Z</time>
      </trkpt>
      <trkpt lat="44.7933" lon="1.57396">
        <ele>123</ele>
        <time>2023-04-17T13:59:48Z</time>
      </trkpt>
      <trkpt lat="44.79328" lon="1.57409">
        <ele>123.6</ele>
        <time>2023-04-17T13:59:58Z</time>
      </trkpt>
      <trkpt lat="44.79321" lon="1.57418">
        <ele>121</ele>
        <time>2023-04-17T14:00:07Z</time>
      </trkpt>
      <trkpt lat="44.79318" lon="1.57431">
        <ele>121.7</ele>
        <time>2023-04-17T14:00:16Z</time>
      </trkpt>
      <trkpt lat="44.79311" lon="1.5744">
        <ele>119.8</ele>
        <time>2023-04-17T14:00:25Z</time>
      </trkpt>
      <trkpt lat="44.79303" lon="1.57449">
        <ele>118.7</ele>
        <time>2023-04-17T14:00:34Z</time>
      </trkpt>
      <trkpt lat="44.79296" lon="1.57459">
        <ele>119.4</ele>
        <time>2023-04-17T14:00:45Z</time>
      </trkpt>
      <trkpt lat="44.79289" lon="1.57468">
        <ele>119.6</ele>
        <time>2023-04-17T14:00:55Z</time>
      </trkpt>
      <trkpt lat="44.79281" lon="1.57476">
        <ele>119.4</ele>
        <time>2023-04-17T14:01:03Z</time>
      </trkpt>
      <trkpt lat="44.79275" lon="1.57485">
        <ele>120.3</ele>
        <time>2023-04-17T14:01:13Z</time>
      </trkpt>
      <trkpt lat="44.79268" lon="1.57494">
        <ele>121.7</ele>
        <time>2023-04-17T14:01:23Z</time>
      </trkpt>
      <trkpt lat="44.79262" lon="1.57504">
        <ele>123.1</ele>
        <time>2023-04-17T14:01:33Z</time>
      </trkpt>
      <trkpt lat="44.79259" lon="1.57516">
        <ele>125.3</ele>
        <time>2023-04-17T14:01:45Z</time>
      </trkpt>
      <trkpt lat="44.79252" lon="1.57525">
        <ele>126</ele>
        <time>2023-04-17T14:01:55Z</time>
      </trkpt>
      <trkpt lat="44.79245" lon="1.57533">
        <ele>126.2</ele>
        <time>2023-04-17T14:02:05Z</time>
      </trkpt>
      <trkpt lat="44.79238" lon="1.57542">
        <ele>126.1</ele>
        <time>2023-04-17T14:02:14Z</time>
      </trkpt>
      <trkpt lat="44.7923" lon="1.57551">
        <ele>126</ele>
        <time>2023-04-17T14:02:22Z</time>
      </trkpt>
      <trkpt lat="44.79224" lon="1.57562">
        <ele>126.4</ele>
        <time>2023-04-17T14:02:31Z</time>
      </trkpt>
      <trkpt lat="44.7922" lon="1.57573">
        <ele>127.8</ele>
        <time>2023-04-17T14:02:40Z</time>
      </trkpt>
      <trkpt lat="44.79214" lon="1.57583">
        <ele>128.2</ele>
        <time>2023-04-17T14:02:49Z</time>
      </trkpt>
      <trkpt lat="44.79207" lon="1.57593">
        <ele>128.3</ele>
        <time>2023-04-17T14:02:57Z</time>
      </trkpt>
      <trkpt lat="44.79201" lon="1.57604">
        <ele>128.6</ele>
        <time>2023-04-17T14:03:06Z</time>
      </trkpt>
      <trkpt lat="44.79196" lon="1.57616">
        <ele>128.9</ele>
        <time>2023-04-17T14:03:14Z</time>
      </trkpt>
      <trkpt lat="44.79192" lon="1.57629">
        <ele>129.3</ele>
        <time>2023-04-17T14:03:23Z</time>
      </trkpt>
      <trkpt lat="44.79189" lon="1.57641">
        <ele>130.2</ele>
        <time>2023-04-17T14:03:31Z</time>
      </trkpt>
      <trkpt lat="44.79185" lon="1.57653">
        <ele>130.9</ele>
        <time>2023-04-17T14:03:39Z</time>
      </trkpt>
      <trkpt lat="44.79181" lon="1.57665">
        <ele>131.3</ele>
        <time>2023-04-17T14:03:48Z</time>
      </trkpt>
      <trkpt lat="44.79179" lon="1.57678">
        <ele>132.3</ele>
        <time>2023-04-17T14:03:57Z</time>
      </trkpt>
      <trkpt lat="44.79178" lon="1.57691">
        <ele>133.4</ele>
        <time>2023-04-17T14:04:05Z</time>
      </trkpt>
      <trkpt lat="44.79174" lon="1.57703">
        <ele>133.8</ele>
        <time>2023-04-17T14:04:14Z</time>
      </trkpt>
      <trkpt lat="44.79171" lon="1.57717">
        <ele>134.5</ele>
        <time>2023-04-17T14:04:23Z</time>
      </trkpt>
      <trkpt lat="44.79168" lon="1.5773">
        <ele>135.2</ele>
        <time>2023-04-17T14:04:33Z</time>
      </trkpt>
      <trkpt lat="44.79167" lon="1.57744">
        <ele>136.4</ele>
        <time>2023-04-17T14:04:43Z</time>
      </trkpt>
      <trkpt lat="44.79164" lon="1.57757">
        <ele>137.2</ele>
        <time>2023-04-17T14:04:53Z</time>
      </trkpt>
      <trkpt lat="44.79161" lon="1.57769">
        <ele>137.9</ele>
        <time>2023-04-17T14:05:02Z</time>
      </trkpt>
      <trkpt lat="44.79158" lon="1.57782">
        <ele>138.6</ele>
        <time>2023-04-17T14:05:11Z</time>
      </trkpt>
      <trkpt lat="44.79152" lon="1.57793">
        <ele>138.3</ele>
        <time>2023-04-17T14:05:19Z</time>
      </trkpt>
      <trkpt lat="44.79146" lon="1.57802">
        <ele>137.6</ele>
        <time>2023-04-17T14:05:27Z</time>
      </trkpt>
      <trkpt lat="44.79145" lon="1.57815">
        <ele>137.9</ele>
        <time>2023-04-17T14:05:41Z</time>
      </trkpt>
      <trkpt lat="44.79139" lon="1.57826">
        <ele>136.8</ele>
        <time>2023-04-17T14:08:00Z</time>
      </trkpt>
      <trkpt lat="44.79135" lon="1.57838">
        <ele>136.1</ele>
        <time>2023-04-17T14:08:09Z</time>
      </trkpt>
      <trkpt lat="44.79133" lon="1.5785">
        <ele>136</ele>
        <time>2023-04-17T14:08:16Z</time>
      </trkpt>
      <trkpt lat="44.79131" lon="1.57863">
        <ele>135.7</ele>
        <time>2023-04-17T14:08:22Z</time>
      </trkpt>
      <trkpt lat="44.7913" lon="1.57876">
        <ele>134.9</ele>
        <time>2023-04-17T14:08:29Z</time>
      </trkpt>
      <trkpt lat="44.7913" lon="1.5789">
        <ele>134.4</ele>
        <time>2023-04-17T14:08:37Z</time>
      </trkpt>
      <trkpt lat="44.7913" lon="1.57904">
        <ele>134.2</ele>
        <time>2023-04-17T14:08:47Z</time>
      </trkpt>
      <trkpt lat="44.7913" lon="1.57917">
        <ele>134.1</ele>
        <time>2023-04-17T14:08:54Z</time>
      </trkpt>
      <trkpt lat="44.79131" lon="1.5793">
        <ele>133.9</ele>
        <time>2023-04-17T14:09:02Z</time>
      </trkpt>
      <trkpt lat="44.79133" lon="1.57945">
        <ele>133.9</ele>
        <time>2023-04-17T14:09:09Z</time>
      </trkpt>
      <trkpt lat="44.79134" lon="1.57958">
        <ele>133.9</ele>
        <time>2023-04-17T14:09:16Z</time>
      </trkpt>
      <trkpt lat="44.79136" lon="1.57971">
        <ele>134.1</ele>
        <time>2023-04-17T14:09:24Z</time>
      </trkpt>
      <trkpt lat="44.79137" lon="1.57985">
        <ele>134</ele>
        <time>2023-04-17T14:09:34Z</time>
      </trkpt>
      <trkpt lat="44.79139" lon="1.57998">
        <ele>134</ele>
        <time>2023-04-17T14:09:41Z</time>
      </trkpt>
      <trkpt lat="44.7914" lon="1.58011">
        <ele>134.4</ele>
        <time>2023-04-17T14:09:48Z</time>
      </trkpt>
      <trkpt lat="44.7914" lon="1.58025">
        <ele>134.5</ele>
        <time>2023-04-17T14:09:55Z</time>
      </trkpt>
      <trkpt lat="44.7914" lon="1.58038">
        <ele>134.5</ele>
        <time>2023-04-17T14:10:02Z</time>
      </trkpt>
      <trkpt lat="44.7914" lon="1.5805">
        <ele>134.5</ele>
        <time>2023-04-17T14:10:09Z</time>
      </trkpt>
      <trkpt lat="44.79141" lon="1.58065">
        <ele>134.4</ele>
        <time>2023-04-17T14:10:16Z</time>
      </trkpt>
      <trkpt lat="44.79142" lon="1.58079">
        <ele>134.4</ele>
        <time>2023-04-17T14:10:24Z</time>
      </trkpt>
      <trkpt lat="44.79142" lon="1.58093">
        <ele>134.3</ele>
        <time>2023-04-17T14:10:31Z</time>
      </trkpt>
      <trkpt lat="44.79145" lon="1.58106">
        <ele>135.2</ele>
        <time>2023-04-17T14:10:39Z</time>
      </trkpt>
      <trkpt lat="44.79147" lon="1.58119">
        <ele>135</ele>
        <time>2023-04-17T14:10:46Z</time>
      </trkpt>
      <trkpt lat="44.79148" lon="1.58132">
        <ele>134.4</ele>
        <time>2023-04-17T14:10:53Z</time>
      </trkpt>
      <trkpt lat="44.79152" lon="1.58145">
        <ele>134.4</ele>
        <time>2023-04-17T14:11:01Z</time>
      </trkpt>
      <trkpt lat="44.79154" lon="1.58158">
        <ele>133.9</ele>
        <time>2023-04-17T14:11:08Z</time>
      </trkpt>
      <trkpt lat="44.79157" lon="1.5817">
        <ele>133.7</ele>
        <time>2023-04-17T14:11:15Z</time>
      </trkpt>
      <trkpt lat="44.79158" lon="1.58183">
        <ele>132.5</ele>
        <time>2023-04-17T14:11:24Z</time>
      </trkpt>
      <trkpt lat="44.79159" lon="1.58196">
        <ele>131.5</ele>
        <time>2023-04-17T14:11:33Z</time>
      </trkpt>
      <trkpt lat="44.79162" lon="1.58209">
        <ele>131.1</ele>
        <time>2023-04-17T14:11:41Z</time>
      </trkpt>
      <trkpt lat="44.79165" lon="1.58221">
        <ele>130.5</ele>
        <time>2023-04-17T14:11:50Z</time>
      </trkpt>
      <trkpt lat="44.79172" lon="1.58229">
        <ele>129.5</ele>
        <time>2023-04-17T14:11:59Z</time>
      </trkpt>
      <trkpt lat="44.79181" lon="1.58234">
        <ele>128.8</ele>
        <time>2023-04-17T14:12:07Z</time>
      </trkpt>
      <trkpt lat="44.79189" lon="1.58242">
        <ele>128.2</ele>
        <time>2023-04-17T14:12:15Z</time>
      </trkpt>
      <trkpt lat="44.79189" lon="1.58255">
        <ele>127.8</ele>
        <time>2023-04-17T14:12:26Z</time>
      </trkpt>
      <trkpt lat="44.79186" lon="1.58268">
        <ele>127.8</ele>
        <time>2023-04-17T14:12:36Z</time>
      </trkpt>
      <trkpt lat="44.7918" lon="1.58278">
        <ele>126.4</ele>
        <time>2023-04-17T14:12:47Z</time>
      </trkpt>
      <trkpt lat="44.79176" lon="1.58291">
        <ele>128.2</ele>
        <time>2023-04-17T14:12:58Z</time>
      </trkpt>
      <trkpt lat="44.79173" lon="1.58304">
        <ele>130.2</ele>
        <time>2023-04-17T14:13:07Z</time>
      </trkpt>
      <trkpt lat="44.79169" lon="1.58316">
        <ele>131.2</ele>
        <time>2023-04-17T14:13:17Z</time>
      </trkpt>
      <trkpt lat="44.79166" lon="1.58329">
        <ele>132.2</ele>
        <time>2023-04-17T14:13:26Z</time>
      </trkpt>
      <trkpt lat="44.79167" lon="1.58343">
        <ele>133.5</ele>
        <time>2023-04-17T14:13:36Z</time>
      </trkpt>
      <trkpt lat="44.79169" lon="1.58355">
        <ele>134.5</ele>
        <time>2023-04-17T14:13:44Z</time>
      </trkpt>
      <trkpt lat="44.79171" lon="1.58369">
        <ele>135.3</ele>
        <time>2023-04-17T14:13:52Z</time>
      </trkpt>
      <trkpt lat="44.79171" lon="1.58383">
        <ele>135.5</ele>
        <time>2023-04-17T14:14:01Z</time>
      </trkpt>
      <trkpt lat="44.79174" lon="1.58395">
        <ele>136.3</ele>
        <time>2023-04-17T14:14:10Z</time>
      </trkpt>
      <trkpt lat="44.79175" lon="1.58409">
        <ele>136.5</ele>
        <time>2023-04-17T14:14:23Z</time>
      </trkpt>
      <trkpt lat="44.79177" lon="1.58422">
        <ele>136.7</ele>
        <time>2023-04-17T14:14:32Z</time>
      </trkpt>
      <trkpt lat="44.79179" lon="1.58435">
        <ele>136.8</ele>
        <time>2023-04-17T14:14:41Z</time>
      </trkpt>
      <trkpt lat="44.79183" lon="1.58447">
        <ele>137.6</ele>
        <time>2023-04-17T14:14:50Z</time>
      </trkpt>
      <trkpt lat="44.79186" lon="1.58459">
        <ele>138.4</ele>
        <time>2023-04-17T14:14:57Z</time>
      </trkpt>
      <trkpt lat="44.79188" lon="1.58472">
        <ele>139.2</ele>
        <time>2023-04-17T14:15:04Z</time>
      </trkpt>
      <trkpt lat="44.79191" lon="1.58485">
        <ele>139.7</ele>
        <time>2023-04-17T14:15:12Z</time>
      </trkpt>
      <trkpt lat="44.79195" lon="1.58498">
        <ele>140.1</ele>
        <time>2023-04-17T14:15:20Z</time>
      </trkpt>
      <trkpt lat="44.79198" lon="1.58512">
        <ele>140</ele>
        <time>2023-04-17T14:15:28Z</time>
      </trkpt>
      <trkpt lat="44.79201" lon="1.58525">
        <ele>139.9</ele>
        <time>2023-04-17T14:15:36Z</time>
      </trkpt>
      <trkpt lat="44.79205" lon="1.58538">
        <ele>139.6</ele>
        <time>2023-04-17T14:15:45Z</time>
      </trkpt>
      <trkpt lat="44.79211" lon="1.5855">
        <ele>140.1</ele>
        <time>2023-04-17T14:15:54Z</time>
      </trkpt>
      <trkpt lat="44.79217" lon="1.58561">
        <ele>140.2</ele>
        <time>2023-04-17T14:16:02Z</time>
      </trkpt>
      <trkpt lat="44.79221" lon="1.58571">
        <ele>140.3</ele>
        <time>2023-04-17T14:16:10Z</time>
      </trkpt>
      <trkpt lat="44.79226" lon="1.58584">
        <ele>140.4</ele>
        <time>2023-04-17T14:16:19Z</time>
      </trkpt>
      <trkpt lat="44.79232" lon="1.58593">
        <ele>141.5</ele>
        <time>2023-04-17T14:16:33Z</time>
      </trkpt>
      <trkpt lat="44.79237" lon="1.58604">
        <ele>142.2</ele>
        <time>2023-04-17T14:17:05Z</time>
      </trkpt>
      <trkpt lat="44.79242" lon="1.58615">
        <ele>143.3</ele>
        <time>2023-04-17T14:17:15Z</time>
      </trkpt>
      <trkpt lat="44.79244" lon="1.58628">
        <ele>142.9</ele>
        <time>2023-04-17T14:17:24Z</time>
      </trkpt>
      <trkpt lat="44.79246" lon="1.58642">
        <ele>142.6</ele>
        <time>2023-04-17T14:17:33Z</time>
      </trkpt>
      <trkpt lat="44.79248" lon="1.58655">
        <ele>143.4</ele>
        <time>2023-04-17T14:17:41Z</time>
      </trkpt>
      <trkpt lat="44.7925" lon="1.58668">
        <ele>144</ele>
        <time>2023-04-17T14:17:49Z</time>
      </trkpt>
      <trkpt lat="44.79253" lon="1.58681">
        <ele>144.6</ele>
        <time>2023-04-17T14:17:57Z</time>
      </trkpt>
      <trkpt lat="44.79254" lon="1.58694">
        <ele>144.7</ele>
        <time>2023-04-17T14:18:06Z</time>
      </trkpt>
      <trkpt lat="44.79256" lon="1.58707">
        <ele>145</ele>
        <time>2023-04-17T14:18:16Z</time>
      </trkpt>
      <trkpt lat="44.79258" lon="1.5872">
        <ele>145.3</ele>
        <time>2023-04-17T14:18:24Z</time>
      </trkpt>
      <trkpt lat="44.7926" lon="1.58732">
        <ele>145.9</ele>
        <time>2023-04-17T14:18:33Z</time>
      </trkpt>
      <trkpt lat="44.79262" lon="1.58745">
        <ele>146.9</ele>
        <time>2023-04-17T14:18:43Z</time>
      </trkpt>
      <trkpt lat="44.79263" lon="1.58758">
        <ele>147.1</ele>
        <time>2023-04-17T14:18:51Z</time>
      </trkpt>
      <trkpt lat="44.79264" lon="1.58773">
        <ele>147.5</ele>
        <time>2023-04-17T14:19:00Z</time>
      </trkpt>
      <trkpt lat="44.79266" lon="1.58786">
        <ele>148.3</ele>
        <time>2023-04-17T14:19:09Z</time>
      </trkpt>
      <trkpt lat="44.79267" lon="1.58799">
        <ele>148.7</ele>
        <time>2023-04-17T14:19:17Z</time>
      </trkpt>
      <trkpt lat="44.79268" lon="1.58813">
        <ele>149.2</ele>
        <time>2023-04-17T14:19:27Z</time>
      </trkpt>
      <trkpt lat="44.7927" lon="1.58826">
        <ele>150</ele>
        <time>2023-04-17T14:19:37Z</time>
      </trkpt>
      <trkpt lat="44.7927" lon="1.5884">
        <ele>150.3</ele>
        <time>2023-04-17T14:19:46Z</time>
      </trkpt>
      <trkpt lat="44.79272" lon="1.58854">
        <ele>151.4</ele>
        <time>2023-04-17T14:19:56Z</time>
      </trkpt>
      <trkpt lat="44.79274" lon="1.58868">
        <ele>152.7</ele>
        <time>2023-04-17T14:20:06Z</time>
      </trkpt>
      <trkpt lat="44.79275" lon="1.58882">
        <ele>153.9</ele>
        <time>2023-04-17T14:20:15Z</time>
      </trkpt>
      <trkpt lat="44.79275" lon="1.58895">
        <ele>154.3</ele>
        <time>2023-04-17T14:20:25Z</time>
      </trkpt>
      <trkpt lat="44.79275" lon="1.58909">
        <ele>154.5</ele>
        <time>2023-04-17T14:20:35Z</time>
      </trkpt>
      <trkpt lat="44.79273" lon="1.58922">
        <ele>154.6</ele>
        <time>2023-04-17T14:20:44Z</time>
      </trkpt>
      <trkpt lat="44.79273" lon="1.58935">
        <ele>155.1</ele>
        <time>2023-04-17T14:20:54Z</time>
      </trkpt>
      <trkpt lat="44.79273" lon="1.58949">
        <ele>155.5</ele>
        <time>2023-04-17T14:21:04Z</time>
      </trkpt>
      <trkpt lat="44.79275" lon="1.58963">
        <ele>156.3</ele>
        <time>2023-04-17T14:21:13Z</time>
      </trkpt>
      <trkpt lat="44.79275" lon="1.58976">
        <ele>157</ele>
        <time>2023-04-17T14:21:21Z</time>
      </trkpt>
      <trkpt lat="44.79277" lon="1.58989">
        <ele>158.3</ele>
        <time>2023-04-17T14:21:29Z</time>
      </trkpt>
      <trkpt lat="44.79279" lon="1.59002">
        <ele>159.3</ele>
        <time>2023-04-17T14:21:38Z</time>
      </trkpt>
      <trkpt lat="44.79281" lon="1.59015">
        <ele>160.5</ele>
        <time>2023-04-17T14:21:47Z</time>
      </trkpt>
      <trkpt lat="44.79282" lon="1.5903">
        <ele>161.4</ele>
        <time>2023-04-17T14:21:56Z</time>
      </trkpt>
      <trkpt lat="44.79281" lon="1.59044">
        <ele>161.5</ele>
        <time>2023-04-17T14:22:05Z</time>
      </trkpt>
      <trkpt lat="44.79281" lon="1.59058">
        <ele>161.8</ele>
        <time>2023-04-17T14:22:14Z</time>
      </trkpt>
      <trkpt lat="44.79279" lon="1.59071">
        <ele>161.8</ele>
        <time>2023-04-17T14:22:23Z</time>
      </trkpt>
      <trkpt lat="44.79277" lon="1.59084">
        <ele>161.9</ele>
        <time>2023-04-17T14:22:32Z</time>
      </trkpt>
      <trkpt lat="44.79276" lon="1.59097">
        <ele>162.2</ele>
        <time>2023-04-17T14:22:41Z</time>
      </trkpt>
      <trkpt lat="44.79278" lon="1.5911">
        <ele>163.8</ele>
        <time>2023-04-17T14:22:50Z</time>
      </trkpt>
      <trkpt lat="44.7928" lon="1.59122">
        <ele>164.4</ele>
        <time>2023-04-17T14:23:01Z</time>
      </trkpt>
      <trkpt lat="44.79283" lon="1.59134">
        <ele>164.4</ele>
        <time>2023-04-17T14:23:31Z</time>
      </trkpt>
      <trkpt lat="44.79291" lon="1.5914">
        <ele>163.3</ele>
        <time>2023-04-17T14:23:53Z</time>
      </trkpt>
      <trkpt lat="44.79287" lon="1.59152">
        <ele>162.3</ele>
        <time>2023-04-17T14:26:47Z</time>
      </trkpt>
      <trkpt lat="44.79285" lon="1.59166">
        <ele>161</ele>
        <time>2023-04-17T14:30:00Z</time>
      </trkpt>
      <trkpt lat="44.79284" lon="1.5918">
        <ele>159.6</ele>
        <time>2023-04-17T14:30:09Z</time>
      </trkpt>
      <trkpt lat="44.79281" lon="1.59193">
        <ele>159.3</ele>
        <time>2023-04-17T14:30:19Z</time>
      </trkpt>
      <trkpt lat="44.79276" lon="1.59205">
        <ele>159.4</ele>
        <time>2023-04-17T14:30:29Z</time>
      </trkpt>
      <trkpt lat="44.79273" lon="1.59218">
        <ele>158.1</ele>
        <time>2023-04-17T14:30:39Z</time>
      </trkpt>
      <trkpt lat="44.79269" lon="1.5923">
        <ele>157.6</ele>
        <time>2023-04-17T14:30:48Z</time>
      </trkpt>
      <trkpt lat="44.79265" lon="1.59242">
        <ele>157.2</ele>
        <time>2023-04-17T14:30:57Z</time>
      </trkpt>
      <trkpt lat="44.79263" lon="1.59255">
        <ele>156.8</ele>
        <time>2023-04-17T14:31:06Z</time>
      </trkpt>
      <trkpt lat="44.7926" lon="1.59268">
        <ele>156.5</ele>
        <time>2023-04-17T14:31:14Z</time>
      </trkpt>
      <trkpt lat="44.79258" lon="1.59282">
        <ele>155.9</ele>
        <time>2023-04-17T14:31:23Z</time>
      </trkpt>
      <trkpt lat="44.79258" lon="1.59296">
        <ele>154.1</ele>
        <time>2023-04-17T14:31:33Z</time>
      </trkpt>
      <trkpt lat="44.79257" lon="1.5931">
        <ele>152.9</ele>
        <time>2023-04-17T14:31:42Z</time>
      </trkpt>
      <trkpt lat="44.79257" lon="1.59323">
        <ele>151.8</ele>
        <time>2023-04-17T14:31:50Z</time>
      </trkpt>
      <trkpt lat="44.79257" lon="1.59336">
        <ele>151.2</ele>
        <time>2023-04-17T14:31:59Z</time>
      </trkpt>
      <trkpt lat="44.79257" lon="1.59351">
        <ele>150.8</ele>
        <time>2023-04-17T14:32:09Z</time>
      </trkpt>
      <trkpt lat="44.79258" lon="1.59364">
        <ele>149.8</ele>
        <time>2023-04-17T14:32:18Z</time>
      </trkpt>
      <trkpt lat="44.79261" lon="1.59377">
        <ele>148.6</ele>
        <time>2023-04-17T14:32:26Z</time>
      </trkpt>
      <trkpt lat="44.79262" lon="1.5939">
        <ele>147.8</ele>
        <time>2023-04-17T14:32:35Z</time>
      </trkpt>
      <trkpt lat="44.79263" lon="1.59404">
        <ele>148.4</ele>
        <time>2023-04-17T14:32:44Z</time>
      </trkpt>
      <trkpt lat="44.79265" lon="1.59418">
        <ele>148.3</ele>
        <time>2023-04-17T14:32:52Z</time>
      </trkpt>
      <trkpt lat="44.7927" lon="1.5943">
        <ele>146.9</ele>
        <time>2023-04-17T14:33:01Z</time>
      </trkpt>
      <trkpt lat="44.79275" lon="1.59441">
        <ele>145.2</ele>
        <time>2023-04-17T14:33:08Z</time>
      </trkpt>
      <trkpt lat="44.79281" lon="1.59452">
        <ele>143.3</ele>
        <time>2023-04-17T14:33:16Z</time>
      </trkpt>
      <trkpt lat="44.79286" lon="1.59464">
        <ele>143.1</ele>
        <time>2023-04-17T14:33:24Z</time>
      </trkpt>
      <trkpt lat="44.79291" lon="1.59475">
        <ele>142.3</ele>
        <time>2023-04-17T14:33:33Z</time>
      </trkpt>
      <trkpt lat="44.79295" lon="1.59486">
        <ele>141.8</ele>
        <time>2023-04-17T14:33:41Z</time>
      </trkpt>
      <trkpt lat="44.79301" lon="1.59498">
        <ele>141.1</ele>
        <time>2023-04-17T14:33:50Z</time>
      </trkpt>
      <trkpt lat="44.79305" lon="1.59509">
        <ele>139.9</ele>
        <time>2023-04-17T14:33:58Z</time>
      </trkpt>
      <trkpt lat="44.79308" lon="1.59521">
        <ele>140.2</ele>
        <time>2023-04-17T14:34:06Z</time>
      </trkpt>
      <trkpt lat="44.79313" lon="1.59533">
        <ele>140.9</ele>
        <time>2023-04-17T14:34:14Z</time>
      </trkpt>
      <trkpt lat="44.7932" lon="1.59542">
        <ele>140</ele>
        <time>2023-04-17T14:34:22Z</time>
      </trkpt>
      <trkpt lat="44.79327" lon="1.59553">
        <ele>138.8</ele>
        <time>2023-04-17T14:34:30Z</time>
      </trkpt>
      <trkpt lat="44.79334" lon="1.59562">
        <ele>137.9</ele>
        <time>2023-04-17T14:34:40Z</time>
      </trkpt>
      <trkpt lat="44.79341" lon="1.5957">
        <ele>138</ele>
        <time>2023-04-17T14:34:50Z</time>
      </trkpt>
      <trkpt lat="44.79349" lon="1.59577">
        <ele>136.9</ele>
        <time>2023-04-17T14:34:58Z</time>
      </trkpt>
      <trkpt lat="44.79358" lon="1.59585">
        <ele>135.5</ele>
        <time>2023-04-17T14:35:07Z</time>
      </trkpt>
      <trkpt lat="44.79365" lon="1.59592">
        <ele>135.2</ele>
        <time>2023-04-17T14:35:17Z</time>
      </trkpt>
      <trkpt lat="44.79373" lon="1.59599">
        <ele>135</ele>
        <time>2023-04-17T14:35:26Z</time>
      </trkpt>
      <trkpt lat="44.79382" lon="1.59606">
        <ele>133.6</ele>
        <time>2023-04-17T14:35:34Z</time>
      </trkpt>
      <trkpt lat="44.7939" lon="1.59611">
        <ele>131.8</ele>
        <time>2023-04-17T14:35:42Z</time>
      </trkpt>
      <trkpt lat="44.79399" lon="1.59616">
        <ele>132.1</ele>
        <time>2023-04-17T14:35:51Z</time>
      </trkpt>
      <trkpt lat="44.79408" lon="1.59622">
        <ele>132.8</ele>
        <time>2023-04-17T14:35:59Z</time>
      </trkpt>
      <trkpt lat="44.79417" lon="1.59619">
        <ele>129.6</ele>
        <time>2023-04-17T14:36:08Z</time>
      </trkpt>
      <trkpt lat="44.79426" lon="1.59616">
        <ele>127.3</ele>
        <time>2023-04-17T14:36:15Z</time>
      </trkpt>
      <trkpt lat="44.79433" lon="1.59605">
        <ele>125.5</ele>
        <time>2023-04-17T14:36:23Z</time>
      </trkpt>
      <trkpt lat="44.7944" lon="1.59597">
        <ele>125.5</ele>
        <time>2023-04-17T14:36:31Z</time>
      </trkpt>
      <trkpt lat="44.79448" lon="1.59588">
        <ele>125.9</ele>
        <time>2023-04-17T14:36:38Z</time>
      </trkpt>
      <trkpt lat="44.79457" lon="1.59582">
        <ele>127.1</ele>
        <time>2023-04-17T14:36:47Z</time>
      </trkpt>
      <trkpt lat="44.79466" lon="1.59581">
        <ele>127.8</ele>
        <time>2023-04-17T14:36:56Z</time>
      </trkpt>
      <trkpt lat="44.79476" lon="1.59582">
        <ele>129</ele>
        <time>2023-04-17T14:37:05Z</time>
      </trkpt>
      <trkpt lat="44.79485" lon="1.59588">
        <ele>129.8</ele>
        <time>2023-04-17T14:37:14Z</time>
      </trkpt>
      <trkpt lat="44.79494" lon="1.59592">
        <ele>130.7</ele>
        <time>2023-04-17T14:37:23Z</time>
      </trkpt>
      <trkpt lat="44.79503" lon="1.59599">
        <ele>130.6</ele>
        <time>2023-04-17T14:37:30Z</time>
      </trkpt>
      <trkpt lat="44.79511" lon="1.59605">
        <ele>131.2</ele>
        <time>2023-04-17T14:37:38Z</time>
      </trkpt>
      <trkpt lat="44.7952" lon="1.5961">
        <ele>131.7</ele>
        <time>2023-04-17T14:37:46Z</time>
      </trkpt>
      <trkpt lat="44.79529" lon="1.59617">
        <ele>131.8</ele>
        <time>2023-04-17T14:37:53Z</time>
      </trkpt>
      <trkpt lat="44.79537" lon="1.59623">
        <ele>132.9</ele>
        <time>2023-04-17T14:38:00Z</time>
      </trkpt>
      <trkpt lat="44.79546" lon="1.5963">
        <ele>132.8</ele>
        <time>2023-04-17T14:38:07Z</time>
      </trkpt>
      <trkpt lat="44.79554" lon="1.59636">
        <ele>132.1</ele>
        <time>2023-04-17T14:38:14Z</time>
      </trkpt>
      <trkpt lat="44.79561" lon="1.59645">
        <ele>133.1</ele>
        <time>2023-04-17T14:38:23Z</time>
      </trkpt>
      <trkpt lat="44.79568" lon="1.59655">
        <ele>133.1</ele>
        <time>2023-04-17T14:38:30Z</time>
      </trkpt>
      <trkpt lat="44.79576" lon="1.59662">
        <ele>132.3</ele>
        <time>2023-04-17T14:38:39Z</time>
      </trkpt>
      <trkpt lat="44.79584" lon="1.59669">
        <ele>131.6</ele>
        <time>2023-04-17T14:38:46Z</time>
      </trkpt>
      <trkpt lat="44.79591" lon="1.5968">
        <ele>133.9</ele>
        <time>2023-04-17T14:38:54Z</time>
      </trkpt>
      <trkpt lat="44.79597" lon="1.59691">
        <ele>133.3</ele>
        <time>2023-04-17T14:39:02Z</time>
      </trkpt>
      <trkpt lat="44.79605" lon="1.59699">
        <ele>134.1</ele>
        <time>2023-04-17T14:39:10Z</time>
      </trkpt>
      <trkpt lat="44.7961" lon="1.5971">
        <ele>132.5</ele>
        <time>2023-04-17T14:39:20Z</time>
      </trkpt>
      <trkpt lat="44.79616" lon="1.59721">
        <ele>133.6</ele>
        <time>2023-04-17T14:39:28Z</time>
      </trkpt>
      <trkpt lat="44.79619" lon="1.59733">
        <ele>135.2</ele>
        <time>2023-04-17T14:39:35Z</time>
      </trkpt>
      <trkpt lat="44.79622" lon="1.59747">
        <ele>136.4</ele>
        <time>2023-04-17T14:39:44Z</time>
      </trkpt>
      <trkpt lat="44.79625" lon="1.5976">
        <ele>136.7</ele>
        <time>2023-04-17T14:39:53Z</time>
      </trkpt>
      <trkpt lat="44.79626" lon="1.59774">
        <ele>135.7</ele>
        <time>2023-04-17T14:40:01Z</time>
      </trkpt>
      <trkpt lat="44.79626" lon="1.59787">
        <ele>135.3</ele>
        <time>2023-04-17T14:40:10Z</time>
      </trkpt>
      <trkpt lat="44.79622" lon="1.59801">
        <ele>134.5</ele>
        <time>2023-04-17T14:40:18Z</time>
      </trkpt>
      <trkpt lat="44.79619" lon="1.59814">
        <ele>134.7</ele>
        <time>2023-04-17T14:40:25Z</time>
      </trkpt>
      <trkpt lat="44.79615" lon="1.59827">
        <ele>133.9</ele>
        <time>2023-04-17T14:40:34Z</time>
      </trkpt>
      <trkpt lat="44.79611" lon="1.59838">
        <ele>133.4</ele>
        <time>2023-04-17T14:40:42Z</time>
      </trkpt>
      <trkpt lat="44.79606" lon="1.59849">
        <ele>134.5</ele>
        <time>2023-04-17T14:40:50Z</time>
      </trkpt>
      <trkpt lat="44.796" lon="1.5986">
        <ele>135</ele>
        <time>2023-04-17T14:40:59Z</time>
      </trkpt>
      <trkpt lat="44.79594" lon="1.5987">
        <ele>137</ele>
        <time>2023-04-17T14:41:07Z</time>
      </trkpt>
      <trkpt lat="44.79586" lon="1.59878">
        <ele>136.3</ele>
        <time>2023-04-17T14:41:14Z</time>
      </trkpt>
      <trkpt lat="44.79579" lon="1.59889">
        <ele>136.5</ele>
        <time>2023-04-17T14:41:22Z</time>
      </trkpt>
      <trkpt lat="44.79571" lon="1.59896">
        <ele>138.5</ele>
        <time>2023-04-17T14:41:31Z</time>
      </trkpt>
      <trkpt lat="44.79562" lon="1.59898">
        <ele>136.5</ele>
        <time>2023-04-17T14:41:37Z</time>
      </trkpt>
      <trkpt lat="44.79552" lon="1.59902">
        <ele>136</ele>
        <time>2023-04-17T14:41:45Z</time>
      </trkpt>
      <trkpt lat="44.79545" lon="1.59909">
        <ele>137.1</ele>
        <time>2023-04-17T14:41:53Z</time>
      </trkpt>
      <trkpt lat="44.79539" lon="1.59919">
        <ele>138.7</ele>
        <time>2023-04-17T14:42:01Z</time>
      </trkpt>
      <trkpt lat="44.79531" lon="1.59927">
        <ele>139.7</ele>
        <time>2023-04-17T14:42:10Z</time>
      </trkpt>
      <trkpt lat="44.79522" lon="1.59932">
        <ele>138.9</ele>
        <time>2023-04-17T14:42:19Z</time>
      </trkpt>
      <trkpt lat="44.79512" lon="1.59937">
        <ele>138.3</ele>
        <time>2023-04-17T14:42:28Z</time>
      </trkpt>
      <trkpt lat="44.79503" lon="1.59943">
        <ele>136.3</ele>
        <time>2023-04-17T14:42:37Z</time>
      </trkpt>
      <trkpt lat="44.79494" lon="1.59948">
        <ele>136</ele>
        <time>2023-04-17T14:42:45Z</time>
      </trkpt>
      <trkpt lat="44.79485" lon="1.59952">
        <ele>135.3</ele>
        <time>2023-04-17T14:42:52Z</time>
      </trkpt>
      <trkpt lat="44.79475" lon="1.59957">
        <ele>134.4</ele>
        <time>2023-04-17T14:42:59Z</time>
      </trkpt>
      <trkpt lat="44.79467" lon="1.59961">
        <ele>133</ele>
        <time>2023-04-17T14:43:06Z</time>
      </trkpt>
      <trkpt lat="44.79459" lon="1.5997">
        <ele>132.9</ele>
        <time>2023-04-17T14:43:14Z</time>
      </trkpt>
      <trkpt lat="44.79453" lon="1.59981">
        <ele>133.9</ele>
        <time>2023-04-17T14:43:22Z</time>
      </trkpt>
      <trkpt lat="44.79447" lon="1.5999">
        <ele>132.8</ele>
        <time>2023-04-17T14:43:29Z</time>
      </trkpt>
      <trkpt lat="44.79441" lon="1.60001">
        <ele>132.5</ele>
        <time>2023-04-17T14:43:37Z</time>
      </trkpt>
      <trkpt lat="44.79436" lon="1.60013">
        <ele>133.9</ele>
        <time>2023-04-17T14:43:45Z</time>
      </trkpt>
      <trkpt lat="44.79432" lon="1.60025">
        <ele>134.6</ele>
        <time>2023-04-17T14:43:52Z</time>
      </trkpt>
      <trkpt lat="44.7943" lon="1.60037">
        <ele>135.2</ele>
        <time>2023-04-17T14:43:59Z</time>
      </trkpt>
      <trkpt lat="44.79428" lon="1.60051">
        <ele>135.5</ele>
        <time>2023-04-17T14:44:06Z</time>
      </trkpt>
      <trkpt lat="44.79428" lon="1.60064">
        <ele>135.2</ele>
        <time>2023-04-17T14:44:13Z</time>
      </trkpt>
      <trkpt lat="44.79427" lon="1.60078">
        <ele>133.6</ele>
        <time>2023-04-17T14:44:21Z</time>
      </trkpt>
      <trkpt lat="44.79427" lon="1.60092">
        <ele>131.8</ele>
        <time>2023-04-17T14:44:29Z</time>
      </trkpt>
      <trkpt lat="44.79427" lon="1.60106">
        <ele>130.6</ele>
        <time>2023-04-17T14:44:37Z</time>
      </trkpt>
      <trkpt lat="44.79431" lon="1.60118">
        <ele>130.4</ele>
        <time>2023-04-17T14:44:45Z</time>
      </trkpt>
      <trkpt lat="44.79435" lon="1.6013">
        <ele>129.6</ele>
        <time>2023-04-17T14:44:54Z</time>
      </trkpt>
      <trkpt lat="44.79441" lon="1.60142">
        <ele>128.6</ele>
        <time>2023-04-17T14:45:03Z</time>
      </trkpt>
      <trkpt lat="44.79446" lon="1.60153">
        <ele>128.3</ele>
        <time>2023-04-17T14:45:10Z</time>
      </trkpt>
      <trkpt lat="44.79451" lon="1.60164">
        <ele>128.6</ele>
        <time>2023-04-17T14:45:18Z</time>
      </trkpt>
      <trkpt lat="44.79457" lon="1.60175">
        <ele>129.1</ele>
        <time>2023-04-17T14:45:26Z</time>
      </trkpt>
      <trkpt lat="44.79461" lon="1.60188">
        <ele>128.8</ele>
        <time>2023-04-17T14:45:34Z</time>
      </trkpt>
      <trkpt lat="44.79466" lon="1.60199">
        <ele>128.4</ele>
        <time>2023-04-17T14:45:42Z</time>
      </trkpt>
      <trkpt lat="44.79472" lon="1.60209">
        <ele>128.5</ele>
        <time>2023-04-17T14:45:50Z</time>
      </trkpt>
      <trkpt lat="44.79478" lon="1.60219">
        <ele>129.9</ele>
        <time>2023-04-17T14:45:58Z</time>
      </trkpt>
      <trkpt lat="44.79484" lon="1.6023">
        <ele>130.8</ele>
        <time>2023-04-17T14:46:06Z</time>
      </trkpt>
      <trkpt lat="44.79489" lon="1.60241">
        <ele>131.2</ele>
        <time>2023-04-17T14:46:14Z</time>
      </trkpt>
      <trkpt lat="44.79494" lon="1.60253">
        <ele>130.8</ele>
        <time>2023-04-17T14:46:21Z</time>
      </trkpt>
      <trkpt lat="44.79498" lon="1.60264">
        <ele>129.8</ele>
        <time>2023-04-17T14:46:29Z</time>
      </trkpt>
      <trkpt lat="44.79503" lon="1.60277">
        <ele>129.2</ele>
        <time>2023-04-17T14:46:37Z</time>
      </trkpt>
      <trkpt lat="44.7951" lon="1.60286">
        <ele>130.4</ele>
        <time>2023-04-17T14:46:45Z</time>
      </trkpt>
      <trkpt lat="44.79516" lon="1.60297">
        <ele>130.6</ele>
        <time>2023-04-17T14:46:53Z</time>
      </trkpt>
      <trkpt lat="44.79522" lon="1.60307">
        <ele>130.3</ele>
        <time>2023-04-17T14:47:01Z</time>
      </trkpt>
      <trkpt lat="44.79528" lon="1.60318">
        <ele>129.8</ele>
        <time>2023-04-17T14:47:10Z</time>
      </trkpt>
      <trkpt lat="44.79533" lon="1.6033">
        <ele>130</ele>
        <time>2023-04-17T14:47:18Z</time>
      </trkpt>
      <trkpt lat="44.79539" lon="1.60342">
        <ele>130.8</ele>
        <time>2023-04-17T14:47:26Z</time>
      </trkpt>
      <trkpt lat="44.79544" lon="1.60353">
        <ele>130.4</ele>
        <time>2023-04-17T14:47:35Z</time>
      </trkpt>
      <trkpt lat="44.7955" lon="1.60364">
        <ele>129.5</ele>
        <time>2023-04-17T14:47:43Z</time>
      </trkpt>
      <trkpt lat="44.79559" lon="1.60371">
        <ele>131.1</ele>
        <time>2023-04-17T14:47:51Z</time>
      </trkpt>
      <trkpt lat="44.79564" lon="1.60382">
        <ele>132.8</ele>
        <time>2023-04-17T14:47:59Z</time>
      </trkpt>
      <trkpt lat="44.7957" lon="1.60393">
        <ele>134</ele>
        <time>2023-04-17T14:48:07Z</time>
      </trkpt>
      <trkpt lat="44.79574" lon="1.60405">
        <ele>134.6</ele>
        <time>2023-04-17T14:48:16Z</time>
      </trkpt>
      <trkpt lat="44.79576" lon="1.60418">
        <ele>134.1</ele>
        <time>2023-04-17T14:48:25Z</time>
      </trkpt>
      <trkpt lat="44.79576" lon="1.60432">
        <ele>134.5</ele>
        <time>2023-04-17T14:48:34Z</time>
      </trkpt>
      <trkpt lat="44.79574" lon="1.60446">
        <ele>134.4</ele>
        <time>2023-04-17T14:48:42Z</time>
      </trkpt>
      <trkpt lat="44.79571" lon="1.60459">
        <ele>134.7</ele>
        <time>2023-04-17T14:48:51Z</time>
      </trkpt>
      <trkpt lat="44.79569" lon="1.60472">
        <ele>134.7</ele>
        <time>2023-04-17T14:48:59Z</time>
      </trkpt>
      <trkpt lat="44.79566" lon="1.60485">
        <ele>133.9</ele>
        <time>2023-04-17T14:49:07Z</time>
      </trkpt>
      <trkpt lat="44.79563" lon="1.60498">
        <ele>132.9</ele>
        <time>2023-04-17T14:49:16Z</time>
      </trkpt>
      <trkpt lat="44.79559" lon="1.6051">
        <ele>131.8</ele>
        <time>2023-04-17T14:49:24Z</time>
      </trkpt>
      <trkpt lat="44.79556" lon="1.60522">
        <ele>130.8</ele>
        <time>2023-04-17T14:49:32Z</time>
      </trkpt>
      <trkpt lat="44.79552" lon="1.60534">
        <ele>132.1</ele>
        <time>2023-04-17T14:49:42Z</time>
      </trkpt>
      <trkpt lat="44.79547" lon="1.60545">
        <ele>133.4</ele>
        <time>2023-04-17T14:49:51Z</time>
      </trkpt>
      <trkpt lat="44.79542" lon="1.60557">
        <ele>133.8</ele>
        <time>2023-04-17T14:50:00Z</time>
      </trkpt>
      <trkpt lat="44.79537" lon="1.60568">
        <ele>133.9</ele>
        <time>2023-04-17T14:50:10Z</time>
      </trkpt>
      <trkpt lat="44.79532" lon="1.6058">
        <ele>133.8</ele>
        <time>2023-04-17T14:50:18Z</time>
      </trkpt>
      <trkpt lat="44.79526" lon="1.60591">
        <ele>133.2</ele>
        <time>2023-04-17T14:50:26Z</time>
      </trkpt>
      <trkpt lat="44.79521" lon="1.60603">
        <ele>133.9</ele>
        <time>2023-04-17T14:50:34Z</time>
      </trkpt>
      <trkpt lat="44.79515" lon="1.60614">
        <ele>133.9</ele>
        <time>2023-04-17T14:50:42Z</time>
      </trkpt>
      <trkpt lat="44.7951" lon="1.60626">
        <ele>133.6</ele>
        <time>2023-04-17T14:50:50Z</time>
      </trkpt>
      <trkpt lat="44.79505" lon="1.60638">
        <ele>132.9</ele>
        <time>2023-04-17T14:50:58Z</time>
      </trkpt>
      <trkpt lat="44.79502" lon="1.60651">
        <ele>132.7</ele>
        <time>2023-04-17T14:51:05Z</time>
      </trkpt>
      <trkpt lat="44.79499" lon="1.60663">
        <ele>132.4</ele>
        <time>2023-04-17T14:51:13Z</time>
      </trkpt>
      <trkpt lat="44.79495" lon="1.60676">
        <ele>132.8</ele>
        <time>2023-04-17T14:51:21Z</time>
      </trkpt>
      <trkpt lat="44.79494" lon="1.60689">
        <ele>133.3</ele>
        <time>2023-04-17T14:51:29Z</time>
      </trkpt>
      <trkpt lat="44.79493" lon="1.60703">
        <ele>133.5</ele>
        <time>2023-04-17T14:51:37Z</time>
      </trkpt>
      <trkpt lat="44.79495" lon="1.60717">
        <ele>133.9</ele>
        <time>2023-04-17T14:51:46Z</time>
      </trkpt>
      <trkpt lat="44.79496" lon="1.60729">
        <ele>133.6</ele>
        <time>2023-04-17T14:51:54Z</time>
      </trkpt>
      <trkpt lat="44.79498" lon="1.60742">
        <ele>133.3</ele>
        <time>2023-04-17T14:52:02Z</time>
      </trkpt>
      <trkpt lat="44.79502" lon="1.60755">
        <ele>133.1</ele>
        <time>2023-04-17T14:52:10Z</time>
      </trkpt>
      <trkpt lat="44.79506" lon="1.60766">
        <ele>133.3</ele>
        <time>2023-04-17T14:52:18Z</time>
      </trkpt>
      <trkpt lat="44.79511" lon="1.60779">
        <ele>132.9</ele>
        <time>2023-04-17T14:52:27Z</time>
      </trkpt>
      <trkpt lat="44.79518" lon="1.60788">
        <ele>133.5</ele>
        <time>2023-04-17T14:52:35Z</time>
      </trkpt>
      <trkpt lat="44.79525" lon="1.60796">
        <ele>132.8</ele>
        <time>2023-04-17T14:52:43Z</time>
      </trkpt>
      <trkpt lat="44.79533" lon="1.60803">
        <ele>132.5</ele>
        <time>2023-04-17T14:52:51Z</time>
      </trkpt>
      <trkpt lat="44.7954" lon="1.6081">
        <ele>132.9</ele>
        <time>2023-04-17T14:52:58Z</time>
      </trkpt>
      <trkpt lat="44.79549" lon="1.60818">
        <ele>133.3</ele>
        <time>2023-04-17T14:53:07Z</time>
      </trkpt>
      <trkpt lat="44.79556" lon="1.60825">
        <ele>132.5</ele>
        <time>2023-04-17T14:53:16Z</time>
      </trkpt>
      <trkpt lat="44.79566" lon="1.60829">
        <ele>134.3</ele>
        <time>2023-04-17T14:53:25Z</time>
      </trkpt>
      <trkpt lat="44.79575" lon="1.60835">
        <ele>134.7</ele>
        <time>2023-04-17T14:53:32Z</time>
      </trkpt>
      <trkpt lat="44.79583" lon="1.60842">
        <ele>134.7</ele>
        <time>2023-04-17T14:53:39Z</time>
      </trkpt>
      <trkpt lat="44.7959" lon="1.60852">
        <ele>134.6</ele>
        <time>2023-04-17T14:53:47Z</time>
      </trkpt>
      <trkpt lat="44.79595" lon="1.60863">
        <ele>133.1</ele>
        <time>2023-04-17T14:53:54Z</time>
      </trkpt>
      <trkpt lat="44.79602" lon="1.60871">
        <ele>133.6</ele>
        <time>2023-04-17T14:54:01Z</time>
      </trkpt>
      <trkpt lat="44.79611" lon="1.60879">
        <ele>132.8</ele>
        <time>2023-04-17T14:54:09Z</time>
      </trkpt>
      <trkpt lat="44.79619" lon="1.60887">
        <ele>132.2</ele>
        <time>2023-04-17T14:54:17Z</time>
      </trkpt>
      <trkpt lat="44.79627" lon="1.60893">
        <ele>132.9</ele>
        <time>2023-04-17T14:54:26Z</time>
      </trkpt>
      <trkpt lat="44.79636" lon="1.609">
        <ele>133.2</ele>
        <time>2023-04-17T14:55:47Z</time>
      </trkpt>
      <trkpt lat="44.7964" lon="1.60911">
        <ele>131.8</ele>
        <time>2023-04-17T14:56:59Z</time>
      </trkpt>
      <trkpt lat="44.79648" lon="1.60921">
        <ele>133</ele>
        <time>2023-04-17T14:57:07Z</time>
      </trkpt>
      <trkpt lat="44.79654" lon="1.60931">
        <ele>133.6</ele>
        <time>2023-04-17T14:57:16Z</time>
      </trkpt>
      <trkpt lat="44.79662" lon="1.60939">
        <ele>133.1</ele>
        <time>2023-04-17T14:57:24Z</time>
      </trkpt>
      <trkpt lat="44.79669" lon="1.60949">
        <ele>132.6</ele>
        <time>2023-04-17T14:57:32Z</time>
      </trkpt>
      <trkpt lat="44.79676" lon="1.60957">
        <ele>134.3</ele>
        <time>2023-04-17T14:57:40Z</time>
      </trkpt>
      <trkpt lat="44.79682" lon="1.60968">
        <ele>133.8</ele>
        <time>2023-04-17T14:57:48Z</time>
      </trkpt>
      <trkpt lat="44.79689" lon="1.60978">
        <ele>133.3</ele>
        <time>2023-04-17T14:57:56Z</time>
      </trkpt>
      <trkpt lat="44.79696" lon="1.60988">
        <ele>133.3</ele>
        <time>2023-04-17T14:58:04Z</time>
      </trkpt>
      <trkpt lat="44.79703" lon="1.60997">
        <ele>134.4</ele>
        <time>2023-04-17T14:58:12Z</time>
      </trkpt>
      <trkpt lat="44.7971" lon="1.61006">
        <ele>135.1</ele>
        <time>2023-04-17T14:58:20Z</time>
      </trkpt>
      <trkpt lat="44.79716" lon="1.61017">
        <ele>135</ele>
        <time>2023-04-17T14:58:28Z</time>
      </trkpt>
      <trkpt lat="44.7972" lon="1.61028">
        <ele>133.8</ele>
        <time>2023-04-17T14:58:38Z</time>
      </trkpt>
      <trkpt lat="44.79722" lon="1.61041">
        <ele>134</ele>
        <time>2023-04-17T14:59:20Z</time>
      </trkpt>
      <trkpt lat="44.79725" lon="1.61053">
        <ele>135.1</ele>
        <time>2023-04-17T14:59:31Z</time>
      </trkpt>
      <trkpt lat="44.79722" lon="1.61065">
        <ele>135</ele>
        <time>2023-04-17T14:59:41Z</time>
      </trkpt>
      <trkpt lat="44.79718" lon="1.61077">
        <ele>135.6</ele>
        <time>2023-04-17T14:59:52Z</time>
      </trkpt>
      <trkpt lat="44.79714" lon="1.61089">
        <ele>135.6</ele>
        <time>2023-04-17T15:00:02Z</time>
      </trkpt>
      <trkpt lat="44.79712" lon="1.61102">
        <ele>135.6</ele>
        <time>2023-04-17T15:00:11Z</time>
      </trkpt>
      <trkpt lat="44.7971" lon="1.61116">
        <ele>136.2</ele>
        <time>2023-04-17T15:00:20Z</time>
      </trkpt>
      <trkpt lat="44.79707" lon="1.61129">
        <ele>137.2</ele>
        <time>2023-04-17T15:00:29Z</time>
      </trkpt>
      <trkpt lat="44.79705" lon="1.61142">
        <ele>137.4</ele>
        <time>2023-04-17T15:00:39Z</time>
      </trkpt>
      <trkpt lat="44.79703" lon="1.61156">
        <ele>138</ele>
        <time>2023-04-17T15:00:49Z</time>
      </trkpt>
      <trkpt lat="44.79701" lon="1.61169">
        <ele>138.1</ele>
        <time>2023-04-17T15:00:58Z</time>
      </trkpt>
      <trkpt lat="44.79697" lon="1.61182">
        <ele>136.5</ele>
        <time>2023-04-17T15:01:08Z</time>
      </trkpt>
      <trkpt lat="44.79694" lon="1.61195">
        <ele>134.9</ele>
        <time>2023-04-17T15:01:17Z</time>
      </trkpt>
      <trkpt lat="44.79691" lon="1.61208">
        <ele>134.5</ele>
        <time>2023-04-17T15:01:26Z</time>
      </trkpt>
      <trkpt lat="44.79688" lon="1.6122">
        <ele>134</ele>
        <time>2023-04-17T15:01:35Z</time>
      </trkpt>
      <trkpt lat="44.79684" lon="1.61233">
        <ele>135.3</ele>
        <time>2023-04-17T15:01:44Z</time>
      </trkpt>
      <trkpt lat="44.79677" lon="1.61243">
        <ele>135.7</ele>
        <time>2023-04-17T15:01:53Z</time>
      </trkpt>
      <trkpt lat="44.79672" lon="1.61254">
        <ele>136.8</ele>
        <time>2023-04-17T15:02:03Z</time>
      </trkpt>
      <trkpt lat="44.79666" lon="1.61266">
        <ele>138.4</ele>
        <time>2023-04-17T15:02:23Z</time>
      </trkpt>
      <trkpt lat="44.7966" lon="1.61276">
        <ele>139.2</ele>
        <time>2023-04-17T15:02:31Z</time>
      </trkpt>
      <trkpt lat="44.79654" lon="1.61288">
        <ele>140</ele>
        <time>2023-04-17T15:02:40Z</time>
      </trkpt>
      <trkpt lat="44.79649" lon="1.613">
        <ele>139.9</ele>
        <time>2023-04-17T15:02:48Z</time>
      </trkpt>
      <trkpt lat="44.79643" lon="1.61311">
        <ele>139</ele>
        <time>2023-04-17T15:02:56Z</time>
      </trkpt>
      <trkpt lat="44.79638" lon="1.61322">
        <ele>138.9</ele>
        <time>2023-04-17T15:03:05Z</time>
      </trkpt>
      <trkpt lat="44.79632" lon="1.61333">
        <ele>140.1</ele>
        <time>2023-04-17T15:03:14Z</time>
      </trkpt>
      <trkpt lat="44.79628" lon="1.61346">
        <ele>140.9</ele>
        <time>2023-04-17T15:03:23Z</time>
      </trkpt>
      <trkpt lat="44.79624" lon="1.61359">
        <ele>141.4</ele>
        <time>2023-04-17T15:03:32Z</time>
      </trkpt>
      <trkpt lat="44.79621" lon="1.61372">
        <ele>140.7</ele>
        <time>2023-04-17T15:03:40Z</time>
      </trkpt>
      <trkpt lat="44.79619" lon="1.61384">
        <ele>140.2</ele>
        <time>2023-04-17T15:03:47Z</time>
      </trkpt>
      <trkpt lat="44.79617" lon="1.61397">
        <ele>138.6</ele>
        <time>2023-04-17T15:03:54Z</time>
      </trkpt>
      <trkpt lat="44.79616" lon="1.6141">
        <ele>137.8</ele>
        <time>2023-04-17T15:04:03Z</time>
      </trkpt>
      <trkpt lat="44.79618" lon="1.61425">
        <ele>138.3</ele>
        <time>2023-04-17T15:04:10Z</time>
      </trkpt>
      <trkpt lat="44.79622" lon="1.61438">
        <ele>138.8</ele>
        <time>2023-04-17T15:04:18Z</time>
      </trkpt>
      <trkpt lat="44.79625" lon="1.61451">
        <ele>138.7</ele>
        <time>2023-04-17T15:04:26Z</time>
      </trkpt>
      <trkpt lat="44.7963" lon="1.61463">
        <ele>138.2</ele>
        <time>2023-04-17T15:04:34Z</time>
      </trkpt>
      <trkpt lat="44.79634" lon="1.61476">
        <ele>137.4</ele>
        <time>2023-04-17T15:04:43Z</time>
      </trkpt>
      <trkpt lat="44.79638" lon="1.61489">
        <ele>136.5</ele>
        <time>2023-04-17T15:04:51Z</time>
      </trkpt>
      <trkpt lat="44.79642" lon="1.61501">
        <ele>136.4</ele>
        <time>2023-04-17T15:05:00Z</time>
      </trkpt>
      <trkpt lat="44.79646" lon="1.61513">
        <ele>137.3</ele>
        <time>2023-04-17T15:05:09Z</time>
      </trkpt>
      <trkpt lat="44.79651" lon="1.61525">
        <ele>137.4</ele>
        <time>2023-04-17T15:05:18Z</time>
      </trkpt>
      <trkpt lat="44.79657" lon="1.61536">
        <ele>137.6</ele>
        <time>2023-04-17T15:05:25Z</time>
      </trkpt>
      <trkpt lat="44.79661" lon="1.61548">
        <ele>136.6</ele>
        <time>2023-04-17T15:05:33Z</time>
      </trkpt>
      <trkpt lat="44.79664" lon="1.61562">
        <ele>135.4</ele>
        <time>2023-04-17T15:05:41Z</time>
      </trkpt>
      <trkpt lat="44.7967" lon="1.61573">
        <ele>135.9</ele>
        <time>2023-04-17T15:05:49Z</time>
      </trkpt>
      <trkpt lat="44.79675" lon="1.61585">
        <ele>136.2</ele>
        <time>2023-04-17T15:05:56Z</time>
      </trkpt>
      <trkpt lat="44.79679" lon="1.61596">
        <ele>136.5</ele>
        <time>2023-04-17T15:06:03Z</time>
      </trkpt>
      <trkpt lat="44.79683" lon="1.61608">
        <ele>136.1</ele>
        <time>2023-04-17T15:06:11Z</time>
      </trkpt>
      <trkpt lat="44.79691" lon="1.61615">
        <ele>136.5</ele>
        <time>2023-04-17T15:06:20Z</time>
      </trkpt>
      <trkpt lat="44.797" lon="1.61615">
        <ele>138.7</ele>
        <time>2023-04-17T15:06:30Z</time>
      </trkpt>
      <trkpt lat="44.79709" lon="1.61621">
        <ele>140.8</ele>
        <time>2023-04-17T15:06:37Z</time>
      </trkpt>
      <trkpt lat="44.79718" lon="1.61626">
        <ele>142.2</ele>
        <time>2023-04-17T15:06:45Z</time>
      </trkpt>
      <trkpt lat="44.79725" lon="1.61634">
        <ele>142.3</ele>
        <time>2023-04-17T15:06:52Z</time>
      </trkpt>
      <trkpt lat="44.79733" lon="1.61641">
        <ele>143.3</ele>
        <time>2023-04-17T15:07:01Z</time>
      </trkpt>
      <trkpt lat="44.79742" lon="1.61649">
        <ele>144.9</ele>
        <time>2023-04-17T15:07:11Z</time>
      </trkpt>
      <trkpt lat="44.7975" lon="1.61656">
        <ele>145.8</ele>
        <time>2023-04-17T15:07:20Z</time>
      </trkpt>
      <trkpt lat="44.79756" lon="1.61667">
        <ele>147.2</ele>
        <time>2023-04-17T15:07:29Z</time>
      </trkpt>
      <trkpt lat="44.79763" lon="1.61678">
        <ele>148.2</ele>
        <time>2023-04-17T15:07:37Z</time>
      </trkpt>
      <trkpt lat="44.7977" lon="1.61687">
        <ele>149.3</ele>
        <time>2023-04-17T15:07:46Z</time>
      </trkpt>
      <trkpt lat="44.79777" lon="1.61696">
        <ele>149.2</ele>
        <time>2023-04-17T15:07:55Z</time>
      </trkpt>
      <trkpt lat="44.79786" lon="1.61699">
        <ele>151.7</ele>
        <time>2023-04-17T15:08:03Z</time>
      </trkpt>
      <trkpt lat="44.79794" lon="1.61707">
        <ele>152.6</ele>
        <time>2023-04-17T15:08:11Z</time>
      </trkpt>
      <trkpt lat="44.79802" lon="1.61712">
        <ele>154.5</ele>
        <time>2023-04-17T15:08:21Z</time>
      </trkpt>
      <trkpt lat="44.79812" lon="1.61716">
        <ele>158.7</ele>
        <time>2023-04-17T15:08:32Z</time>
      </trkpt>
      <trkpt lat="44.7982" lon="1.61722">
        <ele>160.9</ele>
        <time>2023-04-17T15:08:40Z</time>
      </trkpt>
      <trkpt lat="44.79826" lon="1.61734">
        <ele>160.7</ele>
        <time>2023-04-17T15:08:48Z</time>
      </trkpt>
      <trkpt lat="44.79833" lon="1.61743">
        <ele>162.7</ele>
        <time>2023-04-17T15:08:58Z</time>
      </trkpt>
      <trkpt lat="44.7984" lon="1.61751">
        <ele>162.7</ele>
        <time>2023-04-17T15:09:06Z</time>
      </trkpt>
      <trkpt lat="44.79847" lon="1.6176">
        <ele>161.1</ele>
        <time>2023-04-17T15:09:14Z</time>
      </trkpt>
      <trkpt lat="44.79856" lon="1.61759">
        <ele>164.6</ele>
        <time>2023-04-17T15:09:21Z</time>
      </trkpt>
      <trkpt lat="44.79866" lon="1.61763">
        <ele>166.9</ele>
        <time>2023-04-17T15:09:30Z</time>
      </trkpt>
      <trkpt lat="44.79874" lon="1.61768">
        <ele>168.5</ele>
        <time>2023-04-17T15:09:38Z</time>
      </trkpt>
      <trkpt lat="44.7988" lon="1.6178">
        <ele>164.7</ele>
        <time>2023-04-17T15:09:48Z</time>
      </trkpt>
      <trkpt lat="44.79889" lon="1.6178">
        <ele>167.2</ele>
        <time>2023-04-17T15:09:55Z</time>
      </trkpt>
      <trkpt lat="44.79898" lon="1.61781">
        <ele>169</ele>
        <time>2023-04-17T15:10:02Z</time>
      </trkpt>
      <trkpt lat="44.79907" lon="1.61787">
        <ele>169</ele>
        <time>2023-04-17T15:10:09Z</time>
      </trkpt>
      <trkpt lat="44.79916" lon="1.6179">
        <ele>169.9</ele>
        <time>2023-04-17T15:10:15Z</time>
      </trkpt>
      <trkpt lat="44.79926" lon="1.61791">
        <ele>171.9</ele>
        <time>2023-04-17T15:10:23Z</time>
      </trkpt>
      <trkpt lat="44.79935" lon="1.61794">
        <ele>172.2</ele>
        <time>2023-04-17T15:10:30Z</time>
      </trkpt>
      <trkpt lat="44.79943" lon="1.61798">
        <ele>171.3</ele>
        <time>2023-04-17T15:10:38Z</time>
      </trkpt>
      <trkpt lat="44.79953" lon="1.61802">
        <ele>170.7</ele>
        <time>2023-04-17T15:10:45Z</time>
      </trkpt>
      <trkpt lat="44.79962" lon="1.61806">
        <ele>169.3</ele>
        <time>2023-04-17T15:10:53Z</time>
      </trkpt>
      <trkpt lat="44.79968" lon="1.61815">
        <ele>168.5</ele>
        <time>2023-04-17T15:10:59Z</time>
      </trkpt>
      <trkpt lat="44.79975" lon="1.61824">
        <ele>167.9</ele>
        <time>2023-04-17T15:11:07Z</time>
      </trkpt>
      <trkpt lat="44.79984" lon="1.61829">
        <ele>167.3</ele>
        <time>2023-04-17T15:11:15Z</time>
      </trkpt>
      <trkpt lat="44.79993" lon="1.61833">
        <ele>167</ele>
        <time>2023-04-17T15:11:23Z</time>
      </trkpt>
      <trkpt lat="44.80003" lon="1.61833">
        <ele>167.6</ele>
        <time>2023-04-17T15:11:31Z</time>
      </trkpt>
      <trkpt lat="44.80012" lon="1.61839">
        <ele>167.8</ele>
        <time>2023-04-17T15:11:39Z</time>
      </trkpt>
      <trkpt lat="44.80021" lon="1.61843">
        <ele>168.5</ele>
        <time>2023-04-17T15:11:47Z</time>
      </trkpt>
      <trkpt lat="44.80029" lon="1.61849">
        <ele>168.9</ele>
        <time>2023-04-17T15:11:57Z</time>
      </trkpt>
      <trkpt lat="44.80038" lon="1.61854">
        <ele>169.3</ele>
        <time>2023-04-17T15:12:04Z</time>
      </trkpt>
      <trkpt lat="44.80047" lon="1.61862">
        <ele>168.7</ele>
        <time>2023-04-17T15:12:12Z</time>
      </trkpt>
      <trkpt lat="44.80055" lon="1.61868">
        <ele>168.1</ele>
        <time>2023-04-17T15:12:20Z</time>
      </trkpt>
      <trkpt lat="44.80063" lon="1.61876">
        <ele>168.3</ele>
        <time>2023-04-17T15:12:27Z</time>
      </trkpt>
      <trkpt lat="44.80071" lon="1.61883">
        <ele>168.7</ele>
        <time>2023-04-17T15:12:35Z</time>
      </trkpt>
      <trkpt lat="44.80079" lon="1.61889">
        <ele>169.6</ele>
        <time>2023-04-17T15:12:42Z</time>
      </trkpt>
      <trkpt lat="44.80086" lon="1.61898">
        <ele>169.2</ele>
        <time>2023-04-17T15:12:51Z</time>
      </trkpt>
      <trkpt lat="44.80094" lon="1.61906">
        <ele>169.8</ele>
        <time>2023-04-17T15:12:59Z</time>
      </trkpt>
      <trkpt lat="44.80102" lon="1.61915">
        <ele>170.4</ele>
        <time>2023-04-17T15:13:08Z</time>
      </trkpt>
      <trkpt lat="44.80107" lon="1.61926">
        <ele>168.8</ele>
        <time>2023-04-17T15:13:15Z</time>
      </trkpt>
      <trkpt lat="44.80114" lon="1.61935">
        <ele>168.7</ele>
        <time>2023-04-17T15:13:22Z</time>
      </trkpt>
    </trkseg>
  </trk>
</gpx>